[[{"header":{"parameterUnit":"m.s-1","parameterCategory":1,"la1":30.6,"la2":28.766,"lo1":-90.7593,"lo2":-88.6598,"dy":0.0162,"dx":0.0183,"nx":116,"ny":114,"refTime":"2023-03-23T06:00:00:Z","depth":0,"parameterNumber":2,"parameterNumberName":"U-component_of_WINDS"},"data":[0.0,0.0,0.0,0.0,0.0,0.0,0.0,0.0,0.0,0.0,0.0,0.0,0.0,0.0,0.0,0.0,0.0,0.0,0.0,0.0,0.0,0.0,0.0,0.0,0.0,0.0,0.0,0.0,0.0,0.0,0.0,0.0,0.0,0.0,0.0,0.0,0.0,0.0,0.0,0.0,0.0,0.0,0.0,0.0,0.0,0.0,0.0,0.0,0.0,0.0,0.0,0.0,0.0,0.0,0.0,0.0,0.0,0.0,0.0,0.0,0.0,0.0,0.0,0.0,0.0,0.0,0.0,0.0,0.0,0.0,0.0,0.0,0.0,0.0,0.0,0.0,0.0,0.0,0.0,0.0,0.0,0.0,0.0,0.0,0.0,0.0,0.0,0.0,0.0,0.0,0.0,0.0,0.0,0.0,0.0,0.0,0.0,0.0,0.0,0.0,0.0,0.0,0.0,0.0,0.0,0.0,0.0,0.0,0.0,0.0,0.0,0.0,0.0,0.0,0.0,0.0,0.0,0.0,0.0,0.0,0.0,0.0,0.0,0.0,0.0,0.0,0.0,0.0,0.0,0.0,0.0,0.0,0.0,0.0,0.0,0.0,0.0,0.0,0.0,0.0,0.0,0.0,0.0,0.0,0.0,0.0,0.0,0.0,0.0,0.0,0.0,0.0,0.0,0.0,0.0,0.0,0.0,0.0,0.0,0.0,0.0,0.0,0.0,0.0,0.0,0.0,0.0,0.0,0.0,0.0,0.0,0.0,0.0,0.0,0.0,0.0,0.0,0.0,0.0,0.0,0.0,0.0,0.0,0.0,0.0,0.0,0.0,0.0,0.0,0.0,0.0,0.0,0.0,0.0,0.0,0.0,0.0,0.0,0.0,0.0,0.0,0.0,0.0,0.0,0.0,0.0,0.0,0.0,0.0,0.0,0.0,0.0,0.0,0.0,0.0,0.0,0.0,0.0,0.0,0.0,0.0,0.0,0.0,0.0,0.0,0.0,0.0,0.0,0.0,0.0,0.0,0.0,0.0,0.0,0.0,0.0,0.0,0.0,0.0,0.0,0.0,0.0,0.0,0.0,0.0,0.0,0.0,0.0,0.0,0.0,0.0,0.0,0.0,0.0,0.0,0.0,0.0,0.0,0.0,0.0,0.0,0.0,0.0,0.0,0.0,0.0,0.0,0.0,0.0,0.0,0.0,0.0,0.0,0.0,0.0,0.0,0.0,0.0,0.0,0.0,0.0,0.0,0.0,0.0,0.0,0.0,0.0,0.0,0.0,0.0,0.0,0.0,0.0,0.0,0.0,0.0,0.0,0.0,0.0,0.0,0.0,0.0,0.0,0.0,0.0,0.0,0.0,0.0,0.0,0.0,0.0,0.0,0.0,0.0,0.0,0.0,0.0,0.0,0.0,0.0,0.0,0.0,0.0,0.0,0.0,0.0,0.0,0.0,0.0,0.0,0.0,0.0,0.0,0.0,0.0,0.0,0.0,0.0,0.0,0.0,0.0,0.0,0.0,0.0,0.0,0.0,0.0,0.0,0.0,0.0,0.0,0.0,0.0,0.0,0.0,0.0,0.0,0.0,0.0,0.0,0.0,0.0,0.0,0.0,0.0,0.0,0.0,0.0,0.0,0.0,0.0,0.0,0.0,0.0,0.0,0.0,0.0,0.0,0.0,0.0,0.0,0.0,0.0,0.0,0.0,0.0,0.0,0.0,0.0,0.0,0.0,0.0,0.0,0.0,0.0,0.0,0.0,0.0,0.0,0.0,0.0,0.0,0.0,0.0,0.0,0.0,0.0,0.0,0.0,0.0,0.0,0.0,0.0,0.0,0.0,0.0,0.0,0.0,0.0,0.0,0.0,0.0,0.0,0.0,0.0,0.0,0.0,0.0,0.0,0.0,0.0,0.0,0.0,0.0,0.0,0.0,0.0,0.0,0.0,0.0,0.0,0.0,0.0,0.0,0.0,0.0,0.0,0.0,0.0,0.0,0.0,0.0,0.0,0.0,0.0,0.0,0.0,0.0,0.0,0.0,0.0,0.0,0.0,0.0,0.0,0.0,0.0,0.0,0.0,0.0,0.0,0.0,0.0,0.0,0.0,0.0,0.0,0.0,0.0,0.0,0.0,0.0,0.0,0.0,0.0,0.0,0.0,0.0,0.0,0.0,0.0,0.0,0.0,0.0,0.0,0.0,0.0,0.0,0.0,0.0,0.0,0.0,0.0,0.0,0.0,0.0,0.0,0.0,0.0,0.0,0.0,0.0,0.0,0.0,0.0,0.0,0.0,0.0,0.0,0.0,0.0,0.0,0.0,0.0,0.0,0.0,0.0,0.0,0.0,0.0,0.0,0.0,0.0,0.0,0.0,0.0,0.0,0.0,0.0,0.0,0.0,0.0,0.0,0.0,0.0,0.0,0.0,0.0,0.0,0.0,0.0,0.0,0.0,0.0,0.0,0.0,0.0,0.0,0.0,0.0,0.0,0.0,0.0,0.0,0.0,0.0,0.0,0.0,0.0,0.0,0.0,0.0,0.0,0.0,0.0,0.0,0.0,0.0,0.0,0.0,0.0,0.0,0.0,0.0,0.0,0.0,0.0,0.0,0.0,0.0,0.0,0.0,0.0,0.0,0.0,0.0,0.0,0.0,0.0,0.0,0.0,0.0,0.0,0.0,0.0,0.0,0.0,0.0,0.0,0.0,0.0,0.0,0.0,0.0,0.0,0.0,0.0,0.0,0.0,0.0,0.0,0.0,0.0,0.0,0.0,0.0,0.0,0.0,0.0,0.0,0.0,0.0,0.0,0.0,0.0,0.0,0.0,0.0,0.0,0.0,0.0,0.0,0.0,0.0,0.0,0.0,0.0,0.0,0.0,0.0,0.0,0.0,0.0,0.0,0.0,0.0,0.0,0.0,0.0,0.0,0.0,0.0,0.0,0.0,0.0,0.0,0.0,0.0,0.0,0.0,0.0,0.0,0.0,0.0,0.0,0.0,0.0,0.0,0.0,0.0,0.0,0.0,0.0,0.0,0.0,0.0,0.0,0.0,0.0,0.0,0.0,0.0,0.0,0.0,0.0,0.0,0.0,0.0,0.0,0.0,0.0,0.0,0.0,0.0,0.0,0.0,0.0,0.0,0.0,0.0,0.0,0.0,0.0,0.0,0.0,0.0,0.0,0.0,0.0,0.0,0.0,0.0,0.0,0.0,0.0,0.0,0.0,0.0,0.0,0.0,0.0,0.0,0.0,0.0,0.0,0.0,0.0,0.0,0.0,0.0,0.0,0.0,0.0,0.0,0.0,0.0,0.0,0.0,0.0,0.0,0.0,0.0,0.0,0.0,0.0,0.0,0.0,0.0,0.0,0.0,0.0,0.0,0.0,0.0,0.0,0.0,0.0,0.0,0.0,0.0,0.0,0.0,0.0,0.0,0.0,0.0,0.0,0.0,0.0,0.0,0.0,0.0,0.0,0.0,0.0,0.0,0.0,0.0,0.0,0.0,0.0,0.0,0.0,0.0,0.0,0.0,0.0,0.0,0.0,0.0,0.0,0.0,0.0,0.0,0.0,0.0,0.0,0.0,0.0,0.0,0.0,0.0,0.0,0.0,0.0,0.0,0.0,0.0,0.0,0.0,0.0,0.0,0.0,0.0,0.0,0.0,0.0,0.0,0.0,0.0,0.0,0.0,0.0,0.0,0.0,0.0,0.0,0.0,0.0,0.0,0.0,0.0,0.0,0.0,0.0,0.0,0.0,0.0,0.0,0.0,0.0,0.0,0.0,0.0,0.0,0.0,0.0,0.0,0.0,0.0,0.0,0.0,0.0,0.0,0.0,0.0,0.0,0.0,0.0,0.0,0.0,0.0,0.0,0.0,0.0,0.0,0.0,0.0,0.0,0.0,0.0,0.0,0.0,0.0,0.0,0.0,0.0,0.0,0.0,0.0,0.0,0.0,0.0,0.0,0.0,0.0,0.0,0.0,0.0,0.0,0.0,0.0,0.0,0.0,0.0,0.0,0.0,0.0,0.0,0.0,0.0,0.0,0.0,0.0,0.0,0.0,0.0,0.0,0.0,0.0,0.0,0.0,0.0,0.0,0.0,0.0,0.0,0.0,0.0,0.0,0.0,0.0,0.0,0.0,0.0,0.0,0.0,0.0,0.0,0.0,0.0,0.0,0.0,0.0,0.0,0.0,0.0,0.0,0.0,0.0,0.0,0.0,0.0,0.0,0.0,0.0,0.0,0.0,0.0,0.0,0.0,0.0,0.0,0.0,0.0,0.0,0.0,0.0,0.0,0.0,0.0,0.0,0.0,0.0,0.0,0.0,0.0,0.0,0.0,0.0,0.0,0.0,0.0,0.0,0.0,0.0,0.0,0.0,0.0,0.0,0.0,0.0,0.0,0.0,0.0,0.0,0.0,0.0,0.0,0.0,0.0,0.0,0.0,0.0,0.0,0.0,0.0,0.0,0.0,0.0,0.0,0.0,0.0,0.0,0.0,0.0,0.0,0.0,0.0,0.0,0.0,0.0,0.0,0.0,0.0,0.0,0.0,0.0,0.0,0.0,0.0,0.0,0.0,0.0,0.0,0.0,0.0,0.0,0.0,0.0,0.0,0.0,0.0,0.0,0.0,0.0,0.0,0.0,0.0,0.0,0.0,0.0,0.0,0.0,0.0,0.0,0.0,0.0,0.0,0.0,0.0,0.0,0.0,0.0,0.0,0.0,0.0,0.0,0.0,0.0,0.0,0.0,0.0,0.0,0.0,0.0,0.0,0.0,0.0,0.0,0.0,0.0,0.0,0.0,0.0,0.0,0.0,0.0,0.0,0.0,0.0,0.0,0.0,0.0,0.0,0.0,0.0,0.0,0.0,0.0,0.0,0.0,0.0,0.0,0.0,0.0,0.0,0.0,0.0,0.0,0.0,0.0,0.0,0.0,0.0,0.0,0.0,0.0,0.0,0.0,0.0,0.0,0.0,0.0,0.0,0.0,0.0,0.0,0.0,0.0,0.0,0.0,0.0,0.0,0.0,0.0,0.0,0.0,0.0,0.0,0.0,0.0,0.0,0.0,0.0,0.0,0.0,0.0,0.0,0.0,0.0,0.0,0.0,0.0,0.0,0.0,0.0,0.0,0.0,0.0,0.0,0.0,0.0,0.0,0.0,0.0,0.0,0.0,0.0,0.0,0.0,0.0,0.0,0.0,0.0,0.0,0.0,0.0,0.0,0.0,0.0,0.0,0.0,0.0,0.0,0.0,0.0,0.0,0.0,0.0,0.0,0.0,0.0,0.0,0.0,0.0,0.0,0.0,0.0,0.0,0.0,0.0,0.0,0.0,0.0,0.0,0.0,0.0,0.0,0.0,0.0,0.0,0.0,0.0,0.0,0.0,0.0,0.0,0.0,0.0,0.0,0.0,0.0,0.0,0.0,0.0,0.0,0.0,0.0,0.0,0.0,0.0,0.0,0.0,0.0,0.0,0.0,0.0,0.0,0.0,0.0,0.0,0.0,0.0,0.0,0.0,0.0,0.0,0.0,0.0,0.0,0.0,0.0,0.0,0.0,0.0,0.0,0.0,0.0,0.0,0.0,0.0,0.0,0.0,0.0,0.0,0.0,0.0,0.0,0.0,0.0,0.0,0.0,0.0,0.0,0.0,0.0,0.0,0.0,0.0,0.0,0.0,0.0,0.0,0.0,0.0,0.0,0.0,0.0,0.0,0.0,0.0,0.0,0.0,0.0,0.0,0.0,0.0,0.0,0.0,0.0,0.0,0.0,0.0,0.0,0.0,0.0,0.0,0.0,0.0,0.0,0.0,0.0,0.0,0.0,0.0,0.0,0.0,0.0,0.0,0.0,0.0,0.0,0.0,0.0,0.0,0.0,0.0,0.0,0.0,0.0,0.0,0.0,0.0,0.0,0.0,0.0,0.0,0.0,0.0,0.0,0.0,0.0,0.0,0.0,0.0,0.0,0.0,0.0,0.0,0.0,0.0,0.0,0.0,0.0,0.0,0.0,0.0,0.0,0.0,0.0,0.0,0.0,0.0,0.0,0.0,0.0,0.0,0.0,0.0,0.0,0.0,0.0,0.0,0.0,0.0,0.0,0.0,0.0,0.0,-5.5756,-5.5999,0.0,0.0,0.0,0.0,0.0,0.0,0.0,0.0,0.0,0.0,0.0,0.0,0.0,0.0,0.0,0.0,0.0,0.0,0.0,0.0,0.0,0.0,0.0,0.0,0.0,0.0,0.0,0.0,0.0,0.0,0.0,0.0,0.0,0.0,0.0,0.0,0.0,0.0,0.0,-4.2901,-4.2901,-4.2901,-4.2976,-4.3178,0.0,0.0,0.0,0.0,0.0,0.0,0.0,0.0,0.0,0.0,0.0,0.0,0.0,0.0,0.0,0.0,0.0,0.0,0.0,0.0,0.0,0.0,0.0,0.0,0.0,0.0,0.0,0.0,0.0,0.0,0.0,0.0,0.0,0.0,0.0,0.0,0.0,0.0,0.0,0.0,0.0,0.0,0.0,0.0,0.0,0.0,0.0,0.0,0.0,0.0,0.0,0.0,0.0,0.0,0.0,0.0,0.0,0.0,0.0,0.0,0.0,0.0,0.0,0.0,0.0,0.0,0.0,0.0,0.0,0.0,-5.5282,-5.558,0.0,0.0,0.0,0.0,0.0,0.0,0.0,0.0,0.0,0.0,0.0,0.0,0.0,0.0,0.0,0.0,0.0,0.0,0.0,0.0,0.0,0.0,0.0,0.0,0.0,0.0,0.0,0.0,0.0,0.0,0.0,0.0,0.0,0.0,0.0,0.0,0.0,0.0,0.0,0.0,-4.2901,-4.2901,-4.2901,-4.2937,-4.3733,0.0,0.0,0.0,0.0,0.0,0.0,0.0,0.0,0.0,0.0,0.0,0.0,0.0,0.0,0.0,0.0,0.0,0.0,0.0,0.0,0.0,0.0,0.0,0.0,0.0,0.0,0.0,0.0,0.0,0.0,0.0,0.0,0.0,0.0,0.0,0.0,0.0,0.0,0.0,0.0,0.0,0.0,0.0,0.0,0.0,0.0,0.0,0.0,0.0,0.0,0.0,0.0,0.0,0.0,0.0,0.0,0.0,0.0,0.0,0.0,0.0,0.0,0.0,-5.3826,-5.4623,-5.4623,-5.4623,-5.4623,-5.4639,-5.4682,-5.4993,-5.5466,-5.5489,0.0,0.0,0.0,0.0,0.0,0.0,0.0,0.0,0.0,0.0,0.0,0.0,0.0,0.0,0.0,0.0,0.0,0.0,0.0,0.0,0.0,0.0,0.0,0.0,0.0,0.0,0.0,0.0,0.0,0.0,0.0,0.0,0.0,0.0,0.0,0.0,0.0,-4.2901,-4.2901,-4.2901,-4.2901,-4.2937,-4.3733,-4.4476,-4.52,0.0,0.0,0.0,0.0,0.0,0.0,0.0,0.0,0.0,0.0,0.0,0.0,0.0,0.0,0.0,0.0,0.0,0.0,0.0,0.0,0.0,0.0,0.0,0.0,0.0,0.0,0.0,0.0,0.0,0.0,0.0,0.0,0.0,0.0,0.0,0.0,0.0,0.0,0.0,0.0,0.0,-5.0044,-4.9912,0.0,0.0,0.0,0.0,0.0,0.0,0.0,0.0,0.0,0.0,0.0,0.0,0.0,-4.9241,-4.9025,-5.0683,-5.1522,-5.1523,-5.3162,-5.3926,-5.3926,-5.3926,-5.3926,-5.3926,-5.3944,0.0,-5.5336,-5.5455,0.0,0.0,0.0,0.0,0.0,0.0,0.0,0.0,0.0,0.0,0.0,0.0,0.0,0.0,0.0,0.0,0.0,0.0,0.0,0.0,0.0,0.0,0.0,0.0,0.0,0.0,0.0,0.0,0.0,0.0,0.0,0.0,0.0,0.0,0.0,0.0,-4.2634,-4.2653,-4.2882,-4.2634,-4.2887,-4.3607,-4.4421,-4.4965,-4.5345,-4.616,0.0,0.0,0.0,0.0,0.0,0.0,0.0,0.0,0.0,0.0,0.0,0.0,0.0,0.0,0.0,0.0,0.0,0.0,0.0,0.0,0.0,0.0,0.0,0.0,0.0,0.0,0.0,0.0,0.0,0.0,0.0,0.0,0.0,0.0,0.0,0.0,0.0,0.0,0.0,-5.3524,-5.2119,-5.1386,-5.0709,-5.0193,0.0,0.0,0.0,0.0,0.0,0.0,0.0,0.0,0.0,-4.9273,-4.9228,-4.9096,-4.8909,-5.0562,-5.1398,-5.1416,-5.3032,-5.3813,-5.3813,-5.3813,-5.3813,-5.3813,-5.3813,-5.4158,-5.475,-5.4833,-5.5199,-5.5728,0.0,0.0,0.0,0.0,-5.6007,-5.5979,0.0,0.0,0.0,0.0,0.0,0.0,0.0,0.0,0.0,0.0,0.0,0.0,0.0,0.0,0.0,-4.0492,0.0,0.0,0.0,0.0,0.0,0.0,0.0,0.0,0.0,0.0,0.0,-4.2537,-4.23,-4.2407,-4.2823,-4.2622,-4.3095,-4.4245,-4.4979,-4.5417,-4.5653,-4.6468,-4.7518,0.0,0.0,0.0,0.0,0.0,0.0,0.0,0.0,0.0,0.0,0.0,0.0,0.0,0.0,0.0,0.0,0.0,0.0,0.0,0.0,0.0,0.0,0.0,0.0,0.0,0.0,0.0,0.0,0.0,0.0,0.0,0.0,0.0,0.0,0.0,0.0,0.0,0.0,-5.5039,-5.3553,-5.2405,-5.1375,-5.0456,0.0,0.0,0.0,0.0,0.0,0.0,-4.9396,-4.9286,-4.9174,-4.9077,-4.9113,-4.9139,-4.9206,-5.0673,-5.1491,-5.1714,-5.3144,-5.3813,-5.3813,-5.3813,-5.3813,-5.3813,-5.3813,-5.3944,-5.4177,-5.4328,-5.476,-5.5361,-5.5353,-5.5555,-5.5856,-5.5856,-5.5895,-5.5971,0.0,0.0,0.0,0.0,0.0,0.0,0.0,0.0,0.0,0.0,0.0,0.0,0.0,0.0,-3.9954,-4.0456,-3.9686,-3.9347,0.0,0.0,0.0,0.0,0.0,0.0,0.0,0.0,0.0,-4.1569,-4.1994,-4.2342,-4.2633,-4.3113,-4.375,-4.4503,-4.5034,-4.5725,-4.6504,-4.7301,-4.7699,-4.7844,0.0,0.0,0.0,0.0,0.0,0.0,0.0,0.0,0.0,0.0,0.0,0.0,0.0,0.0,0.0,0.0,0.0,0.0,0.0,0.0,0.0,0.0,0.0,0.0,0.0,0.0,0.0,0.0,0.0,0.0,0.0,0.0,0.0,0.0,0.0,0.0,0.0,0.0,0.0,-5.2035,-5.1479,0.0,0.0,0.0,0.0,-4.8729,-4.8603,-4.8549,-4.8549,-4.8658,-4.873,-4.873,-4.8855,-4.928,-5.0042,-5.0933,-5.1788,-5.2549,-5.3404,-5.3813,-5.3813,-5.3813,-5.3813,-5.3813,-5.3813,-5.3794,-5.3851,-5.4245,-5.4601,-5.4928,-5.4941,-5.5142,-5.5431,-5.5431,-5.5624,-5.5895,0.0,0.0,0.0,0.0,0.0,0.0,0.0,0.0,0.0,0.0,0.0,0.0,0.0,-4.0854,-4.0948,-4.1118,-4.0845,-4.0828,-4.1319,0.0,0.0,0.0,0.0,0.0,0.0,0.0,-4.1743,-4.1503,-4.1855,-4.2377,-4.3119,-4.3501,-4.4422,-4.5786,-4.5641,-4.6215,-4.7265,-4.7029,-4.7536,-4.8493,-4.8764,-4.8728,0.0,0.0,0.0,0.0,0.0,0.0,0.0,0.0,0.0,0.0,0.0,0.0,0.0,0.0,0.0,0.0,0.0,0.0,0.0,0.0,0.0,0.0,0.0,0.0,0.0,0.0,0.0,0.0,0.0,0.0,0.0,0.0,0.0,0.0,0.0,0.0,0.0,-5.4,-5.2952,0.0,-5.0489,-5.0472,-5.0232,-4.9436,-4.9195,-4.8861,-4.8328,-4.827,-4.8326,-4.8514,-4.9104,-4.964,-5.0098,-5.1491,-5.2327,-5.2605,-5.3423,-5.3813,-5.3813,-5.3813,-5.3813,-5.3813,-5.3813,-5.3813,-5.3794,-5.3944,-5.4245,-5.4569,-5.4582,-5.4785,-5.509,-5.5075,-5.525,-5.5504,0.0,0.0,0.0,0.0,0.0,0.0,0.0,0.0,0.0,0.0,0.0,-4.1147,-4.1171,-4.1183,-4.1276,-4.1481,-4.119,-4.123,-4.1696,0.0,0.0,0.0,-4.1343,0.0,0.0,-4.1655,-4.1637,-4.1383,-4.1995,-4.2666,-4.3401,-4.3785,-4.4701,-4.6101,-4.5924,-4.6449,-4.741,-4.687,-4.7352,-4.8511,-4.8782,-4.8728,-4.8692,0.0,0.0,0.0,0.0,0.0,0.0,0.0,0.0,0.0,0.0,0.0,0.0,0.0,0.0,0.0,0.0,0.0,0.0,0.0,0.0,0.0,0.0,0.0,0.0,0.0,0.0,0.0,0.0,0.0,0.0,0.0,0.0,0.0,0.0,-5.7777,-5.6636,-5.5264,-5.3999,-5.2706,-5.1365,-5.1101,-5.0672,-4.9826,-4.9547,-4.9182,-4.8598,-4.8574,-4.8694,-4.8879,-4.9548,-5.0129,-5.0562,-5.167,-5.2372,-5.2667,-5.3321,-5.3639,-5.3639,-5.3737,-5.3813,-5.3813,-5.3813,-5.3813,-5.3813,-5.3813,-5.3963,-5.4193,-5.4193,-5.439,-5.4697,-5.4693,-5.4886,-5.5153,0.0,0.0,0.0,0.0,0.0,0.0,0.0,0.0,0.0,0.0,-4.1423,-4.1418,-4.1477,-4.0949,-4.0808,-4.141,-4.0618,-4.0303,-4.0778,-4.0353,0.0,0.0,0.0,0.0,-4.0189,-4.1752,-4.2133,-4.1238,-4.2424,-4.316,-4.3447,-4.3974,-4.4613,-4.5355,-4.585,-4.6382,-4.6908,-4.6886,-4.7173,-4.7772,-4.8547,-4.8384,-4.7971,0.0,0.0,0.0,0.0,0.0,0.0,0.0,0.0,0.0,0.0,0.0,0.0,0.0,0.0,0.0,0.0,0.0,0.0,0.0,0.0,0.0,0.0,0.0,0.0,0.0,0.0,0.0,0.0,0.0,0.0,0.0,0.0,0.0,-5.8566,-5.7497,-5.6418,-5.5592,-5.4451,-5.3114,-5.152,-5.123,-5.0731,-4.9801,-4.9595,-4.9478,-4.9317,-4.9611,-4.9776,-4.9798,-5.0145,-5.0699,-5.1486,-5.1522,-5.1963,-5.2806,-5.3151,-5.33,-5.33,-5.3639,-5.3813,-5.3813,-5.3813,-5.3813,-5.3813,-5.3813,-5.3813,-5.3813,-5.3813,-5.4,-5.4279,-5.4279,-5.4495,-5.4836,0.0,0.0,0.0,0.0,0.0,0.0,0.0,0.0,0.0,0.0,-4.099,-4.0966,-4.0995,-4.0556,-4.0303,-4.0483,-4.0254,-4.0303,-4.0778,0.0,0.0,0.0,0.0,0.0,-4.2191,-4.2236,-4.2149,-4.1999,-4.286,-4.3532,-4.3983,-4.4673,-4.5303,-4.5875,-4.5622,-4.6024,-4.6886,-4.6478,-4.6845,-4.7735,-4.7932,-4.7916,-4.7844,0.0,0.0,0.0,0.0,0.0,0.0,0.0,0.0,0.0,0.0,0.0,0.0,0.0,0.0,0.0,0.0,0.0,0.0,0.0,0.0,0.0,0.0,0.0,0.0,0.0,0.0,0.0,0.0,0.0,0.0,0.0,-5.6988,-5.7576,-5.7576,-5.7582,-5.7143,-5.6006,-5.5112,-5.4164,-5.3132,-5.2382,-5.1578,-5.0628,-5.0438,-5.0068,-4.9329,-4.9389,-4.9541,-4.9776,-5.0507,-5.108,-5.1504,-5.2127,-5.2565,-5.2806,-5.3151,-5.33,-5.33,-5.3639,-5.3813,-5.3813,-5.3813,-5.3813,-5.3813,-5.3813,-5.3813,-5.3813,-5.3813,-5.3851,-5.3926,-5.3926,-5.4142,-5.4479,0.0,0.0,0.0,0.0,0.0,0.0,0.0,0.0,0.0,0.0,-4.0507,-4.0507,-4.0507,-4.0254,-4.0096,-4.0096,-4.0096,-4.0221,-4.0483,0.0,0.0,0.0,0.0,-4.1908,-4.268,-4.2671,-4.2696,-4.276,-4.3538,-4.4041,-4.4392,-4.482,-4.5169,-4.5468,-4.5142,-4.5451,-4.6213,-4.5918,-4.6382,-4.7381,-4.7723,-4.7796,-4.7826,-4.8967,-4.9401,-4.9727,-5.2136,-5.3005,-5.3204,-5.4472,0.0,0.0,0.0,0.0,0.0,0.0,0.0,0.0,0.0,0.0,0.0,0.0,0.0,0.0,0.0,0.0,0.0,0.0,0.0,0.0,0.0,0.0,0.0,0.0,-5.688,-5.7188,-5.7188,-5.7443,-5.7334,-5.6604,-5.5558,-5.4725,-5.4255,-5.3097,-5.2136,-5.1531,-5.1401,-5.1066,-5.0407,-5.0389,-5.0444,-5.0593,-5.1084,-5.1412,-5.1587,-5.2074,-5.2351,-5.2351,-5.2853,-5.3088,-5.3109,-5.358,-5.3813,-5.3813,-5.3813,-5.3813,-5.3813,-5.3813,-5.3813,-5.3813,0.0,0.0,0.0,0.0,-5.3926,-5.4143,0.0,0.0,0.0,0.0,0.0,0.0,0.0,0.0,0.0,0.0,0.0,-4.0374,-4.035,-4.0476,-4.0484,-4.035,-4.04,-4.0425,0.0,0.0,0.0,-4.2388,-4.2422,-4.2455,-4.2557,-4.32,-4.3527,-4.3527,-4.4248,-4.4615,-4.4615,-4.4615,-4.4615,-4.4615,-4.4615,-4.4903,-4.5441,-4.5519,-4.6167,-4.7229,-4.8013,-4.8124,-4.8007,-4.951,-5.0112,-5.042,-5.2733,-5.3621,-5.3838,-5.4725,0.0,0.0,0.0,0.0,0.0,0.0,0.0,0.0,0.0,0.0,0.0,0.0,0.0,0.0,0.0,0.0,0.0,0.0,0.0,0.0,0.0,0.0,0.0,0.0,-5.7188,-5.7188,-5.7188,-5.7188,-5.7188,-5.7188,-5.5903,-5.4997,-5.4907,-5.353,-5.2542,-5.2329,-5.2287,-5.2192,-5.1907,-5.1907,0.0,0.0,0.0,-5.169,-5.1715,-5.1715,-5.169,-5.1715,-5.2402,-5.2761,-5.2828,-5.3461,-5.3756,-5.3813,-5.3813,-5.3813,-5.3794,-5.3813,-5.3832,-5.3832,-5.3813,-5.3813,-5.3813,-5.3813,-5.3813,-5.3832,0.0,0.0,0.0,0.0,0.0,0.0,0.0,0.0,0.0,-4.1588,-4.1921,-4.2116,-4.1901,-4.2637,-4.2833,-4.1968,-4.227,-4.2346,0.0,0.0,-4.2422,-4.3166,-4.32,-4.3487,-4.4141,-4.4282,-4.4378,-4.4378,-4.453,-4.4615,-4.4615,-4.4615,-4.4615,-4.4615,-4.4615,-4.521,-4.6286,-4.6733,-4.764,-4.88,-4.9455,-4.9278,-4.8764,-4.9727,-5.0112,-5.0347,-5.21,-5.315,-5.3911,-5.5323,-5.6301,-5.6971,-5.6971,-5.7062,0.0,0.0,0.0,0.0,0.0,0.0,0.0,0.0,0.0,0.0,0.0,0.0,0.0,0.0,0.0,0.0,0.0,0.0,0.0,-5.708,-5.7188,-5.7188,-5.7188,-5.7188,-5.7188,-5.7188,-5.6355,-5.554,-5.4961,-5.4037,-5.3157,-5.2365,-5.2287,-5.2192,-5.1907,-5.1907,-5.1882,-5.1858,-5.1758,-5.174,-5.1858,-5.174,-5.169,-5.169,-5.2126,0.0,-5.2806,-5.3196,-5.3541,-5.3813,-5.3813,-5.3813,-5.3794,-5.3981,-5.4036,-5.4018,-5.3851,-5.3813,-5.3813,-5.3813,-5.3813,-5.3794,0.0,0.0,0.0,0.0,0.0,0.0,0.0,0.0,0.0,0.0,-4.3075,-4.312,-4.2394,-4.3242,-4.3461,-4.2375,-4.28,0.0,0.0,-4.3503,-4.3872,-4.4329,-4.4363,-4.4433,-4.4598,-4.4615,-4.4615,-4.4615,-4.4615,-4.4615,-4.4615,-4.4615,-4.4818,-4.5145,-4.5145,-4.5705,-4.6697,-4.7226,-4.797,-4.888,-4.9883,-5.0213,-5.0144,-5.0542,-5.0709,-5.0904,-5.2516,-5.3367,-5.3947,-5.5468,-5.6265,-5.6663,-5.7062,-5.7188,-5.7188,0.0,0.0,0.0,0.0,0.0,0.0,0.0,0.0,0.0,0.0,0.0,0.0,0.0,0.0,-5.5124,-5.5848,0.0,-5.6247,-5.7062,-5.7188,-5.7188,-5.7188,-5.7188,-5.7188,-5.7188,-5.6482,-5.5703,-5.4979,-5.4182,-5.3344,-5.2459,-5.2405,-5.2311,-5.2102,-5.2096,-5.2054,-5.2005,-5.1882,-5.1833,-5.1907,-5.1783,-5.169,-5.169,-5.2054,-5.2412,-5.2806,-5.3151,-5.3481,-5.3813,-5.3813,-5.387,-5.3963,-5.4163,-5.4252,-5.4234,-5.4018,-5.3889,-5.3813,-5.3813,-5.3813,-5.3813,0.0,0.0,0.0,0.0,0.0,0.0,0.0,0.0,0.0,0.0,-4.4281,-4.4242,-4.322,-4.4047,-4.4284,0.0,0.0,0.0,0.0,-4.4984,-4.5271,-4.5451,-4.5459,-4.5232,-4.4748,-4.4748,-4.4692,-4.4615,-4.4615,-4.4682,-4.479,-4.479,-4.5196,-4.5923,-4.6004,-4.6498,-4.7223,-4.7886,-4.8505,-4.9139,-5.0388,-5.1142,-5.152,-5.152,-5.152,-5.1701,-5.3005,-5.3566,-5.3911,-5.5305,-5.5866,-5.6138,-5.6935,-5.7188,-5.7188,-5.7188,-5.7188,0.0,0.0,0.0,0.0,0.0,0.0,0.0,0.0,-5.6573,-5.5957,-5.5812,-5.5305,-5.5088,-5.5667,-5.5884,-5.6247,-5.7062,-5.7188,-5.7188,-5.7188,-5.7188,-5.7188,-5.7188,-5.6627,-5.5939,-5.5196,-5.4399,-5.3603,-5.2788,-5.2589,-5.2452,-5.2311,-5.2287,-5.2264,-5.215,-5.2005,-5.1932,-5.1932,-5.1808,-5.1765,-5.1797,-5.206,-5.2435,-5.2915,-5.3193,-5.3481,-5.3794,-5.3832,-5.4,-5.4197,-5.4371,-5.4441,-5.4424,-5.4233,-5.4036,-5.3851,-5.3813,-5.3813,-5.3813,0.0,0.0,0.0,0.0,0.0,0.0,0.0,0.0,0.0,0.0,0.0,0.0,0.0,0.0,0.0,0.0,0.0,0.0,-4.5902,-4.5926,-4.6003,-4.6,-4.6,-4.5749,-4.5241,-4.5214,-4.5008,-4.4615,-4.4615,-4.4953,-4.5585,-4.5585,-4.5974,-4.6697,-4.7169,-4.7834,-4.8648,-4.9729,-5.0592,-5.1301,-5.2,-5.2307,-5.2371,-5.2371,-5.2371,-5.2389,-5.257,-5.3096,-5.3838,-5.4725,-5.545,-5.6138,-5.6935,-5.7188,-5.7188,-5.7188,-5.7188,-5.7188,-5.7188,-5.7188,-5.7188,-5.7188,-5.7188,-5.7188,0.0,-5.6573,-5.5812,-5.516,-5.4961,-5.4943,-5.5015,-5.5558,-5.6247,-5.7062,-5.7188,-5.7188,-5.7188,-5.7188,-5.7188,-5.7188,-5.7116,-5.6754,-5.5939,-5.5196,-5.4436,-5.3639,-5.2896,-5.2452,-5.2311,-5.2287,-5.2287,-5.2287,-5.215,-5.2078,-5.2078,-5.1956,-5.1969,-5.2155,-5.2161,-5.2572,-5.3256,-5.3279,-5.3481,-5.3813,-5.3981,-5.4249,-5.4549,-5.4565,-5.4581,-5.4549,-5.4422,-5.4233,-5.4055,-5.387,-5.3813,-5.3813,0.0,0.0,0.0,0.0,0.0,0.0,0.0,0.0,0.0,0.0,0.0,0.0,0.0,0.0,0.0,0.0,0.0,0.0,-4.659,-4.6863,-4.6886,-4.659,-4.6566,-4.631,-4.5792,-4.6228,-4.6369,-4.6178,-4.6628,-4.7026,-4.7338,-4.7338,-4.7736,-4.8446,-4.8657,-4.9201,-4.9943,-5.0799,-5.1315,-5.1669,-5.2251,-5.2498,-5.2498,-5.2498,-5.2498,-5.2498,-5.2498,-5.2715,0.0,-5.3929,-5.4725,-5.5486,-5.6265,-5.6808,-5.7188,-5.7188,-5.7188,-5.7188,-5.7188,-5.7188,-5.7188,-5.7188,-5.7188,-5.7188,-5.7188,-5.6573,-5.5903,-5.5595,-5.5196,-5.5033,-5.545,-5.5776,-5.6247,-5.7062,-5.7188,-5.7188,-5.7188,-5.7188,-5.7188,-5.7188,-5.7188,-5.688,-5.6066,-5.5721,-5.5214,-5.4454,-5.3657,-5.3163,-5.3134,-5.2658,-5.2428,-5.2428,-5.2287,-5.2438,-5.2906,-5.2336,-5.2293,-5.2846,-5.2589,-5.274,-5.3265,-5.3488,-5.3795,-5.4163,-5.4318,-5.4468,-5.4613,-5.4726,-5.4757,-5.4761,-5.4584,-5.4422,-5.4234,-5.3926,-5.3813,-5.3813,0.0,0.0,0.0,0.0,0.0,0.0,0.0,0.0,0.0,0.0,0.0,0.0,0.0,0.0,0.0,0.0,0.0,0.0,0.0,-4.7836,-4.7966,-4.7797,-4.7774,-4.7528,-4.6994,-4.7607,-4.7841,-4.7691,-4.8305,-4.87,-4.8911,-4.8911,-4.9309,-5.0031,-5.0287,-5.0698,-5.1239,-5.194,-5.2216,-5.2281,-5.2714,-5.2882,-5.2882,-5.2857,-5.2933,-5.2981,-5.264,-5.2643,0.0,-5.3766,-5.4562,-5.5341,-5.6084,-5.6717,-5.7188,-5.7188,-5.7188,-5.7188,-5.7188,-5.7188,-5.7188,-5.7188,-5.7188,-5.7188,-5.7188,-5.6736,-5.6265,-5.6047,-5.574,-5.5631,-5.5939,-5.6174,-5.6518,-5.7098,-5.7188,-5.7188,-5.7188,-5.7007,-5.6862,-5.6862,-5.6681,-5.6337,-5.574,-5.5703,-5.5377,-5.4635,-5.382,-5.3367,-5.3367,-5.2824,-5.2498,-5.2498,-5.2405,-5.2605,-5.3141,-5.2486,-5.2486,-5.3099,-5.3176,-5.3371,-5.3721,-5.4354,-5.4833,-5.5151,-5.5247,-5.5328,-5.5372,-5.5292,-5.5261,-5.5208,-5.4755,-5.4552,-5.4424,-5.4073,-5.3907,-5.3813,0.0,0.0,0.0,0.0,0.0,0.0,0.0,0.0,0.0,0.0,0.0,0.0,0.0,0.0,0.0,0.0,0.0,0.0,0.0,-4.8919,-4.9199,-4.9981,-4.9999,-4.974,-4.9222,-4.9352,-4.9186,-4.866,-4.881,-4.9249,-4.9943,-4.9943,-5.035,-5.1102,-5.202,-5.2429,-5.2514,-5.3438,-5.3832,-5.3832,-5.385,-5.385,-5.385,-5.3777,-5.3991,-5.4188,-5.2922,0.0,0.0,-5.4599,-5.5359,-5.6102,-5.6899,-5.717,-5.7188,-5.7188,-5.7188,-5.7188,-5.7188,-5.7188,-5.7188,-5.7188,-5.7188,-5.7188,-5.7188,-5.717,-5.6935,-5.6156,-5.6591,-5.6899,-5.6138,-5.6627,-5.717,-5.7188,-5.7188,-5.7188,-5.7188,-5.6518,-5.6029,-5.6029,-5.5414,-5.4961,-5.4943,-5.4943,-5.4599,-5.3802,-5.2987,-5.2534,-5.2534,-5.2516,-5.2498,-5.2498,-5.2498,-5.2446,-5.2347,-5.2305,-5.241,-5.2645,-5.3861,-5.4628,-5.4984,-5.6237,-5.688,-5.7031,-5.7031,-5.713,-5.727,-5.6474,-5.6152,-5.6061,-5.5016,-5.4597,-5.4581,-5.4422,-5.4127,-5.3813,0.0,0.0,0.0,0.0,0.0,0.0,0.0,0.0,0.0,0.0,0.0,0.0,0.0,0.0,0.0,0.0,-5.0394,-5.0343,0.0,-5.0527,-5.0522,-5.0317,-5.0552,-5.0472,-5.0043,-5.0609,-5.0796,-5.062,-5.1471,-5.201,-5.2262,-5.247,-5.2725,-5.2982,-5.3302,-5.3438,-5.3457,-5.3776,-5.3904,-5.396,-5.452,-5.4762,-5.48,-5.5268,-5.5545,-5.5593,0.0,0.0,0.0,-5.4816,-5.5395,-5.6047,-5.6319,-5.6772,-5.7188,-5.7188,-5.7188,-5.7188,-5.7188,-5.7188,-5.7188,-5.7188,-5.7188,-5.7188,-5.7188,-5.7188,-5.7116,-5.6844,-5.7007,-5.7116,-5.6844,-5.7007,-5.7188,-5.7188,-5.7188,-5.7007,-5.6482,-5.6156,-5.5812,-5.5323,-5.5051,-5.4689,-5.4164,-5.4599,-5.4798,-5.4526,-5.3748,-5.3295,-5.3295,-5.2788,-5.2498,-5.2498,-5.2498,-5.2728,-5.3224,-5.27,-5.2872,-5.373,-5.4162,-5.487,-5.5798,-5.625,-5.6746,-5.7305,-5.7305,-5.7337,-5.7384,-5.7099,-5.7005,-5.6967,-5.6601,-5.605,-5.5465,-5.5419,-5.4894,-5.4181,0.0,0.0,0.0,0.0,0.0,0.0,0.0,0.0,0.0,0.0,0.0,0.0,0.0,0.0,0.0,0.0,0.0,-5.1588,-5.1658,0.0,-5.1841,-5.1663,-5.1916,-5.1935,-5.1661,-5.2197,-5.2493,-5.2493,-5.3326,-5.372,-5.372,-5.3942,-5.4031,-5.4048,-5.417,-5.4388,-5.4704,-5.4875,-5.4965,-5.5044,-5.5927,-5.6078,-5.5876,-5.6517,-5.685,0.0,0.0,0.0,-5.6177,-5.5889,-5.6189,-5.6685,-5.6685,-5.6903,-5.7188,-5.7188,-5.7188,-5.7188,-5.7188,-5.7188,-5.7188,-5.7188,-5.7188,-5.7188,-5.7188,-5.7188,-5.7188,-5.7188,-5.7188,-5.7188,-5.7188,-5.7188,-5.7188,-5.7188,-5.7188,-5.7007,-5.65,-5.5939,-5.5432,-5.4961,-5.4399,-5.3838,-5.3313,-5.3748,-5.4037,-5.4037,-5.3566,-5.3277,-5.3277,-5.277,-5.2498,-5.2498,-5.2498,-5.2752,-5.3277,-5.2752,-5.3184,-5.4525,-5.467,-5.5402,-5.6645,-5.6948,-5.7365,-5.7876,-5.8161,-5.8293,-5.8274,-5.7971,-5.7858,-5.782,-5.7516,-5.7018,-5.6449,-5.6449,-5.5807,-5.4871,0.0,0.0,0.0,0.0,0.0,0.0,0.0,0.0,0.0,0.0,0.0,0.0,0.0,0.0,0.0,0.0,0.0,0.0,0.0,0.0,0.0,-5.3903,-5.394,-5.394,-5.3922,-5.4048,-5.4119,-5.4119,-5.4277,-5.4347,-5.4347,-5.4361,-5.4416,-5.4451,-5.4784,-5.5411,-5.6249,-5.6774,-5.6986,-5.706,-5.7918,-5.7783,-5.7093,-5.7573,0.0,0.0,0.0,0.0,-5.8539,-5.7717,-5.7664,-5.7928,-5.7928,-5.7642,-5.7264,-5.7239,-5.7239,-5.7239,-5.7206,-5.7188,-5.7188,-5.7188,-5.7188,-5.7188,-5.7188,-5.7188,-5.7188,-5.7188,-5.7188,-5.7188,-5.7188,-5.7188,-5.7188,-5.7188,-5.7188,-5.7188,-5.7134,-5.5884,-5.4943,-5.4852,-5.3494,-5.2552,-5.2498,-5.2498,-5.2498,-5.2498,-5.2498,-5.2498,-5.2498,-5.2498,-5.2498,-5.2498,-5.2498,-5.2498,-5.2498,-5.2526,-5.3328,-5.4835,-5.5264,-5.6132,-5.7365,-5.818,-5.8631,-5.8745,-5.9522,-5.9864,-5.9828,-5.9086,-5.8748,-5.8672,-5.7839,-5.7497,-5.746,-5.746,-5.6835,-5.5826,0.0,0.0,0.0,0.0,0.0,0.0,0.0,0.0,0.0,0.0,0.0,0.0,0.0,0.0,0.0,0.0,0.0,0.0,-5.4329,0.0,0.0,0.0,0.0,0.0,0.0,0.0,0.0,-5.4262,-5.4678,-5.4903,-5.4903,-5.5312,-5.5838,-5.6456,-5.6547,-5.7079,-5.7909,-5.8028,-5.8094,-5.8162,0.0,-5.9147,-5.8978,0.0,0.0,0.0,0.0,-5.9604,-5.9433,-5.8588,-5.8357,-5.8418,-5.8418,-5.8332,-5.8179,-5.7812,-5.7737,-5.7642,-5.7289,-5.7188,-5.7188,-5.7188,-5.7188,-5.7188,-5.7188,-5.7188,-5.7188,-5.7188,-5.7188,-5.7188,-5.7188,-5.7188,-5.7188,-5.7188,-5.7188,-5.6989,-5.6373,-5.5957,-5.5287,-5.4146,-5.3639,-5.315,-5.2552,-5.2498,-5.2498,-5.2498,-5.2498,-5.2498,-5.2498,-5.2498,-5.2498,-5.2498,-5.2498,-5.2498,-5.2498,-5.3096,-5.36,-5.4017,-5.4717,-5.5564,-5.6512,-5.6739,-5.7516,-5.8726,-5.8935,-5.9352,-5.9866,-5.9693,-5.9598,-5.9563,-5.9336,-5.89,-5.8369,-5.8369,-5.7804,-5.6996,0.0,0.0,0.0,0.0,0.0,0.0,0.0,0.0,0.0,0.0,0.0,0.0,0.0,0.0,0.0,0.0,0.0,0.0,0.0,0.0,0.0,0.0,0.0,0.0,0.0,0.0,0.0,0.0,0.0,0.0,-5.6047,-5.6714,-5.7112,-5.719,-5.719,-5.7673,-5.8456,-5.8551,0.0,0.0,0.0,0.0,0.0,0.0,0.0,0.0,-6.0362,-6.0213,-5.9944,-5.9362,-5.9026,-5.8832,-5.8669,-5.8607,-5.8545,-5.8289,-5.8201,-5.8157,-5.7905,-5.7794,-5.7794,-5.7794,-5.7794,-5.7766,-5.7546,-5.769,-5.7695,-5.727,-5.7522,-5.7695,-5.7289,-5.737,-5.7443,-5.7239,-5.7188,-5.7043,-5.6591,-5.621,-5.5558,-5.4363,-5.3911,-5.3385,-5.257,-5.2498,-5.2498,-5.2498,-5.2498,-5.2498,-5.2498,-5.2498,-5.2498,-5.2498,-5.2498,-5.2498,-5.2498,-5.3306,-5.3702,-5.3702,-5.4533,-5.5166,-5.564,-5.6019,-5.6702,-5.763,-5.8385,-5.8973,-5.9393,-5.975,-5.9902,-5.9902,-5.9902,-5.9636,-5.9238,-5.9238,-5.8691,-5.8003,0.0,0.0,0.0,0.0,0.0,0.0,0.0,0.0,0.0,0.0,0.0,0.0,0.0,0.0,0.0,0.0,0.0,0.0,0.0,0.0,0.0,0.0,0.0,0.0,0.0,0.0,0.0,-5.7364,-5.8037,0.0,0.0,0.0,0.0,0.0,0.0,0.0,0.0,0.0,0.0,0.0,0.0,0.0,0.0,0.0,0.0,0.0,-6.0533,-6.039,-6.0213,-6.001,-5.9662,-5.9234,-5.889,-5.877,-5.877,-5.871,-5.8689,-5.8669,-5.8607,-5.8607,-5.8607,-5.8607,-5.8607,-5.8503,-5.8086,-5.8311,-5.8375,-5.7546,-5.8023,-5.8332,-5.7449,-5.7618,-5.776,-5.7289,-5.7188,-5.7188,-5.7188,-5.6591,-5.5866,-5.5142,-5.4345,-5.3548,-5.2733,-5.2552,-5.2498,-5.2498,-5.2498,-5.2498,-5.2498,-5.2498,-5.2498,-5.2498,-5.2498,-5.2498,-5.2498,-5.3306,-5.3702,-5.3702,-5.4533,-5.4901,-5.4939,-5.5678,-5.6095,-5.6285,-5.7725,-5.8483,-5.8764,-5.9449,-5.9791,-5.9902,-5.9902,-5.9902,-5.9902,-5.9902,-5.9466,-5.8859,0.0,0.0,0.0,0.0,0.0,0.0,0.0,0.0,0.0,0.0,-5.8311,-5.8176,0.0,0.0,0.0,0.0,0.0,0.0,0.0,0.0,0.0,0.0,0.0,0.0,-5.8495,-5.8495,-5.8417,-5.8263,-5.787,-5.7598,0.0,0.0,0.0,0.0,0.0,0.0,0.0,0.0,0.0,0.0,0.0,0.0,0.0,0.0,0.0,0.0,-6.0571,-6.0482,-6.0416,-6.0227,-5.9972,-5.9767,-5.9698,-5.9664,-5.9594,-5.9215,-5.9103,-5.9008,-5.8689,-5.8607,-5.8607,-5.8607,-5.8607,-5.8586,-5.8503,-5.8545,-5.8545,-5.8397,-5.8482,-5.8439,-5.7882,-5.7854,-5.776,-5.7289,-5.7188,-5.7188,-5.7188,-5.708,-5.6699,-5.5903,-5.5142,-5.4381,-5.3566,-5.2878,-5.2498,-5.2498,-5.2498,-5.2498,-5.2498,-5.2498,-5.2498,-5.2498,-5.2498,-5.2498,-5.2498,-5.3306,-5.3702,-5.3702,-5.4533,-5.4901,-5.492,-5.5072,-5.5527,-5.6209,-5.6512,-5.7422,-5.8726,-5.8843,-5.9314,-5.9902,-5.9902,-5.9902,-5.9902,-5.9902,-5.9809,-5.9709,0.0,0.0,0.0,0.0,0.0,0.0,0.0,-6.0356,-6.0344,-6.0345,-6.0263,-5.9838,-5.8862,-5.8759,-5.8759,0.0,0.0,0.0,0.0,0.0,0.0,0.0,0.0,0.0,-6.0106,-6.0106,-5.9892,-5.9439,0.0,-5.9396,-5.8972,-5.9479,-5.9722,-5.9741,-6.0169,-6.0586,-6.0987,-6.0975,0.0,-6.1581,-6.1522,-6.1471,0.0,0.0,0.0,0.0,0.0,-6.0657,-6.0633,-6.043,-6.0227,-6.0038,-5.9934,-5.9902,-5.9853,-5.9628,-5.9558,-5.9523,-5.9344,-5.929,-5.929,-5.929,-5.929,-5.9215,-5.8968,-5.9103,-5.9159,-5.8689,-5.8949,-5.9065,-5.8397,-5.8267,-5.8113,-5.7642,-5.7345,-5.7188,-5.7188,-5.7188,-5.6899,-5.6084,-5.5341,-5.4581,-5.3784,-5.2969,-5.2498,-5.2498,-5.2878,-5.2933,-5.2516,-5.2896,-5.3313,-5.3748,-5.3748,-5.3852,-5.4072,-5.4646,-5.4838,-5.465,-5.5274,-5.5337,-5.4901,-5.4901,-5.5129,-5.5546,-5.6,-5.6891,-5.8047,-5.8502,-5.9165,-5.9902,-5.9902,-5.9902,-5.9902,-5.9902,-5.9902,-5.9934,0.0,0.0,0.0,0.0,0.0,0.0,0.0,-6.1596,-6.1598,-6.1599,-6.1591,-6.108,-5.9702,-5.9561,-5.9561,0.0,0.0,0.0,0.0,0.0,0.0,0.0,0.0,0.0,0.0,0.0,0.0,-6.0577,-6.1084,0.0,0.0,0.0,0.0,0.0,-6.0602,-6.0681,-6.0683,-6.068,-6.1046,0.0,0.0,-6.1491,0.0,0.0,0.0,0.0,0.0,-6.0869,-6.0817,-6.0633,-6.0469,-6.0293,-6.0099,-5.9963,-5.9902,-5.9902,-5.9902,-5.9902,-5.9902,-5.9902,-5.9902,-5.9902,-5.9902,-5.9801,-5.9433,-5.9628,-5.9717,-5.9007,-5.9417,-5.9664,-5.887,-5.8669,-5.8439,-5.7973,-5.7516,-5.7188,-5.7188,-5.7188,-5.6971,-5.6319,-5.545,-5.4653,-5.4019,-5.3078,-5.2498,-5.2498,-5.3241,-5.3494,-5.3041,-5.3603,-5.4255,-5.4888,-5.4907,-5.5044,-5.5367,-5.5872,-5.5938,-5.5655,-5.6191,-5.6,-5.5185,-5.5185,-5.5091,-5.4958,-5.5811,-5.6664,-5.746,-5.8331,-5.9165,-5.9902,-5.9902,-5.9902,-5.9902,-5.9902,-5.9934,-5.9979,0.0,0.0,0.0,0.0,0.0,0.0,0.0,-6.1608,-6.16,-6.1601,-6.1595,-6.1537,-6.1383,-6.1354,-6.1354,0.0,0.0,0.0,0.0,0.0,0.0,0.0,0.0,0.0,0.0,0.0,0.0,-6.1478,-6.0776,0.0,0.0,0.0,0.0,0.0,0.0,-6.1575,-6.1575,-6.158,0.0,0.0,0.0,0.0,0.0,0.0,0.0,0.0,0.0,-6.108,-6.1032,-6.0847,-6.075,-6.0716,-6.0508,-6.0184,-5.9902,-5.9902,-5.9902,-5.9902,-5.9902,-5.9902,-5.9902,-5.9902,-5.9902,-5.9885,-5.9853,-5.9869,-5.9869,-5.9801,-5.9853,-5.9751,-5.9234,-5.885,-5.8439,-5.7973,-5.7516,-5.7188,-5.7188,-5.7188,-5.717,-5.7098,-5.5794,-5.487,-5.4798,-5.3403,-5.2498,-5.2498,-5.3241,-5.4001,-5.4653,-5.4762,-5.4834,-5.4907,-5.4907,-5.4931,-5.4961,-5.5723,-5.608,-5.6046,-5.6886,-5.6872,-5.6076,-5.6076,-5.564,-5.4958,-5.5811,-5.6664,-5.746,-5.8331,-5.9165,-5.9902,-5.9902,-5.9902,-5.9902,-5.9902,-6.0026,-6.0184,0.0,0.0,0.0,0.0,0.0,0.0,-6.166,-6.166,-6.1658,-6.16,-6.1596,-6.1592,-6.1596,-6.1609,-6.1596,-6.1592,0.0,0.0,0.0,0.0,0.0,0.0,0.0,0.0,0.0,0.0,-6.1602,-6.1592,-6.1254,0.0,0.0,0.0,0.0,0.0,0.0,-6.1697,-6.1692,-6.1707,0.0,0.0,0.0,0.0,0.0,0.0,0.0,0.0,0.0,0.0,-6.1089,-6.1002,-6.0901,-6.0803,-6.0704,-6.0495,-6.0242,-6.0129,-5.9994,-5.9902,-5.9902,-5.9902,-5.9902,-5.9902,-5.9902,-5.9902,-5.9902,-5.9902,-5.9902,-5.9902,-5.9902,-5.9834,-5.9664,-5.9065,-5.8545,-5.8354,-5.7695,-5.7188,-5.7188,-5.7188,-5.7025,-5.6536,-5.554,-5.4707,-5.4218,-5.3168,-5.2896,-5.3874,-5.4237,-5.4979,-5.6228,-5.583,-5.5776,-5.6265,-5.6283,-5.6563,-5.7125,-5.7436,-5.7638,-5.7686,-5.8013,-5.7744,-5.691,-5.691,-5.6474,-5.5735,-5.655,-5.7099,-5.746,-5.8331,-5.9165,-5.9902,-5.9902,-5.9963,-6.0084,-6.0084,-6.0213,-6.0403,0.0,0.0,0.0,0.0,0.0,-6.1707,-6.1708,-6.1691,-6.1677,-6.1639,-6.1638,-6.1617,-6.1592,-6.1605,-6.1605,-6.1603,-6.1602,0.0,0.0,0.0,0.0,0.0,0.0,0.0,0.0,0.0,-6.161,-6.1607,-6.1604,-6.1603,0.0,0.0,-6.1702,-6.1698,0.0,0.0,0.0,0.0,0.0,0.0,0.0,0.0,0.0,0.0,0.0,0.0,0.0,0.0,0.0,0.0,0.0,-6.089,-6.089,-6.075,-6.0546,-6.0279,-6.0114,-5.9979,-5.9918,-5.9902,-5.9902,-5.9902,-5.9902,-5.9902,-5.9902,-5.9902,-5.9902,-5.9902,-5.9902,-5.9902,-5.9902,-5.9178,-5.8607,-5.8607,-5.7812,-5.7188,-5.7188,-5.7188,-5.6899,-5.6084,-5.5341,-5.4581,-5.3784,-5.2969,-5.3168,-5.478,-5.4907,-5.5577,-5.7116,-5.6663,-5.6609,-5.717,-5.7188,-5.7594,-5.8397,-5.8524,-5.8688,-5.8847,-5.8984,-5.8597,-5.7782,-5.7782,-5.7479,-5.6967,-5.7535,-5.7914,-5.818,-5.8786,-5.939,-5.9902,-5.9902,-6.0007,-6.0213,-6.0213,-6.0362,-6.0608,0.0,0.0,0.0,0.0,0.0,0.0,-6.1701,-6.1701,-6.1694,-6.1696,-6.1697,-6.168,-6.1613,-6.1605,-6.1601,-6.1601,-6.1608,0.0,0.0,0.0,0.0,0.0,0.0,0.0,0.0,0.0,-6.1595,-6.1591,-6.1591,-6.1621,-6.1701,-6.1701,-6.1698,-6.1698,0.0,0.0,0.0,0.0,0.0,0.0,0.0,0.0,0.0,0.0,0.0,0.0,0.0,0.0,0.0,0.0,0.0,0.0,0.0,-6.0962,-6.0716,-6.0321,-6.0213,-6.0154,-5.9947,-5.9902,-5.9902,-5.9902,-5.9902,-5.9902,-5.9902,-5.9902,-5.9902,-5.9902,-5.9902,-5.9902,-5.9902,-5.9178,-5.8607,-5.8607,-5.7812,-5.7188,-5.7188,-5.7188,-5.6899,-5.6084,-5.5341,-5.4581,-5.3784,-5.2969,-5.3168,-5.478,-5.4907,-5.5577,-5.7116,-5.7188,-5.7188,-5.7188,-5.7188,-5.7419,-5.7905,-5.8375,-5.8792,-5.9196,-5.9662,-5.9485,-5.8691,-5.8691,-5.8672,-5.8669,-5.8672,-5.9143,-5.9883,-5.9866,-5.9885,-5.9902,-5.9902,-6.0007,-6.0213,-6.0213,-6.0437,-6.0803,0.0,0.0,0.0,0.0,0.0,0.0,0.0,-6.1698,-6.1703,-6.1696,-6.1696,-6.1699,-6.1668,-6.1679,-6.1677,-6.1677,-6.1622,0.0,0.0,0.0,0.0,0.0,0.0,0.0,0.0,-6.1605,-6.1596,-6.1592,-6.1659,-6.1679,-6.1709,-6.1692,-6.1698,-6.1701,-6.1709,-6.1697,0.0,0.0,0.0,0.0,0.0,0.0,-6.1448,0.0,0.0,0.0,0.0,0.0,0.0,0.0,0.0,0.0,0.0,0.0,0.0,-6.0692,-6.0416,-6.0198,-6.011,-6.001,-5.9902,-5.9902,-5.9902,-5.9902,-5.9902,-5.9902,-5.9902,-5.9902,-5.9902,-5.9902,-5.9902,-5.9178,-5.8607,-5.8607,-5.7812,-5.7188,-5.7188,-5.7188,-5.6717,-5.5395,-5.4074,-5.315,-5.2896,-5.2643,-5.2933,-5.4001,-5.4599,-5.5323,-5.6319,-5.6899,-5.7188,-5.7188,-5.7188,-5.7594,-5.8375,-5.8524,-5.8968,-5.9681,-5.9817,-5.9772,-5.9506,-5.9506,-5.9506,-5.956,-6.0094,-6.017,-5.9939,-6.0492,-6.0413,-5.9902,-5.9902,-6.0114,-6.0403,-6.0403,-6.0669,-6.1002,0.0,0.0,0.0,0.0,0.0,0.0,0.0,-6.1698,-6.1698,-6.1698,-6.1698,-6.1698,-6.1698,-6.1707,-6.1697,-6.1697,-6.1656,0.0,0.0,0.0,0.0,0.0,0.0,0.0,-6.1592,-6.1592,-6.1615,-6.1639,-6.1679,-6.1695,-6.1708,-6.169,-6.1698,-6.1701,-6.1694,-6.1702,0.0,0.0,0.0,0.0,0.0,0.0,-6.1365,0.0,0.0,0.0,0.0,0.0,0.0,0.0,0.0,0.0,0.0,0.0,0.0,0.0,-6.0692,-6.0384,-6.0237,-6.0114,-5.9994,-5.9918,-5.9902,-5.9902,-5.9902,-5.9902,-5.9902,-5.9902,-5.9902,-5.9902,-5.9902,-5.9178,-5.8607,-5.8607,-5.7812,-5.7188,-5.7188,-5.6935,-5.6174,-5.4635,-5.3295,-5.2498,-5.2498,-5.2498,-5.2824,-5.3639,-5.4164,-5.4907,-5.5939,-5.6482,-5.688,-5.7188,-5.7188,-5.7648,-5.8586,-5.8607,-5.9045,-5.9902,-5.9902,-5.9902,-5.9902,-5.9902,-6.0245,-6.0852,-6.1022,-6.1174,0.0,-6.1136,-6.0795,-6.0338,-6.0092,-6.0213,-6.0508,-6.0584,-6.0825,-6.1099,0.0,0.0,0.0,0.0,0.0,0.0,0.0,-6.1698,-6.1698,-6.1698,-6.1698,-6.1698,-6.1698,-6.1705,-6.1696,-6.1696,0.0,0.0,0.0,0.0,0.0,0.0,0.0,0.0,-6.1615,-6.1615,-6.1639,-6.1696,-6.1696,-6.1708,-6.1698,-6.1698,-6.1701,-6.1703,-6.1697,-6.1688,0.0,0.0,0.0,0.0,-6.1383,-6.1353,0.0,0.0,0.0,0.0,0.0,0.0,0.0,0.0,0.0,0.0,0.0,0.0,0.0,0.0,0.0,0.0,0.0,-6.0208,-6.0154,-5.9966,-5.9902,-5.9902,-5.9902,-5.9902,0.0,-5.9902,-5.9902,-5.9902,-5.9902,-5.9215,-5.8628,-5.8607,-5.7859,-5.7239,-5.7188,-5.6446,-5.5359,-5.3874,-5.2987,-5.2498,-5.2498,-5.2498,-5.2806,-5.3566,-5.3675,-5.4327,-5.5758,-5.5884,-5.6283,-5.708,-5.7166,-5.7617,-5.8586,-5.8628,-5.9083,-5.9902,-5.9902,-5.9902,-5.9902,-5.9958,-6.0871,-6.2351,-6.1591,-6.2159,-6.3469,-6.1913,-6.1231,-6.1131,-6.0529,-6.0417,-6.0597,-6.0746,-6.0922,-6.1099,0.0,0.0,0.0,0.0,0.0,0.0,0.0,0.0,0.0,0.0,-6.1698,-6.1698,-6.1698,-6.1707,-6.1692,0.0,0.0,0.0,0.0,0.0,0.0,0.0,0.0,0.0,-6.1683,-6.1683,-6.168,-6.1692,-6.1692,-6.1707,-6.1698,-6.1698,-6.1694,-6.1693,-6.164,-6.1566,0.0,0.0,0.0,0.0,-6.1318,-6.1247,0.0,0.0,0.0,0.0,-6.1099,-6.1099,0.0,0.0,0.0,0.0,0.0,0.0,0.0,0.0,-6.107,0.0,-6.0727,0.0,-6.0154,-5.9966,-5.9902,-5.9902,0.0,-5.9902,-5.9902,-5.9902,-5.9902,-5.9902,-5.9902,-5.9434,-5.895,-5.8648,-5.8113,-5.7618,-5.7239,-5.6011,-5.4798,-5.382,-5.2987,-5.2498,-5.2498,-5.2498,-5.257,-5.277,-5.3349,-5.3856,-5.4218,-5.4816,-5.5504,-5.6247,-5.6616,-5.7398,-5.8586,-5.891,-5.9344,-5.9902,-5.9902,-5.9902,-5.9904,-6.053,-6.1401,-6.2408,-6.2842,-6.324,-6.3563,-6.3183,-6.2652,-6.2025,-6.1427,-6.132,-6.1441,-6.0966,-6.0922,-6.1099,0.0,0.0,0.0,0.0,0.0,0.0,0.0,0.0,0.0,0.0,0.0,0.0,0.0,0.0,0.0,0.0,0.0,0.0,0.0,0.0,0.0,0.0,0.0,-6.1698,-6.1698,-6.1698,-6.1698,-6.1698,-6.1698,-6.1698,-6.1698,-6.1696,-6.1709,-6.1698,-6.1591,-6.1485,-6.1359,-6.1359,-6.1298,-6.1217,-6.1217,0.0,0.0,0.0,0.0,0.0,-6.2143,-6.2046,0.0,-6.1698,-6.1427,-6.1099,0.0,0.0,0.0,0.0,-6.1099,-6.1061,-6.0858,-6.0564,-6.0279,-6.0084,-5.9963,-5.9902,-5.9902,-5.9902,-5.9902,-5.9902,-5.9902,-5.9902,-5.9902,-5.9523,-5.9065,-5.8669,-5.8397,-5.7788,-5.6591,-5.5214,-5.4055,-5.3241,-5.277,-5.2498,-5.2498,-5.2498,-5.2498,-5.2498,-5.2896,-5.3313,-5.3675,-5.411,-5.4785,-5.5749,-5.6581,-5.7521,-5.8607,-5.8988,-5.9452,-5.9902,-5.9902,-6.0075,-6.047,-6.089,-6.178,-6.2957,-6.3393,-6.3846,-6.4168,-6.3753,-6.3336,-6.2914,-6.2387,-6.2035,-6.178,-6.1607,-6.135,-6.1099,0.0,0.0,0.0,0.0,0.0,0.0,0.0,0.0,0.0,0.0,0.0,0.0,0.0,0.0,0.0,0.0,0.0,0.0,0.0,0.0,0.0,0.0,-6.2228,-6.211,-6.211,-6.211,-6.203,-6.1893,-6.1893,-6.1839,-6.1707,-6.1692,-6.1679,-6.1659,-6.1537,-6.1393,-6.1274,-6.1274,-6.1209,-6.1099,-6.1099,0.0,0.0,0.0,0.0,0.0,0.0,0.0,0.0,-6.2607,-6.2104,-6.1466,-6.135,0.0,0.0,0.0,0.0,0.0,-6.089,-6.0681,-6.0456,-6.0237,-6.0038,-5.9902,-5.9902,-5.9902,-5.9902,-5.9902,-5.9902,-5.9902,-5.9902,-5.9558,-5.9159,-5.8669,-5.8452,-5.7632,-5.5772,-5.4506,-5.3479,-5.2589,-5.2498,-5.2498,-5.2498,-5.2498,-5.2498,-5.2498,-5.2498,-5.2788,-5.3476,-5.3512,-5.4072,-5.5273,-5.6432,-5.744,-5.8299,-5.8972,-5.9505,-5.9902,-6.0018,-6.0435,-6.1115,-6.1345,-6.2254,-6.3601,-6.3734,-6.4225,-6.485,-6.4094,-6.3791,-6.3765,-6.336,-6.2699,-6.2023,-6.2302,-6.1853,-6.1099,0.0,0.0,0.0,0.0,0.0,0.0,0.0,0.0,0.0,0.0,0.0,0.0,0.0,0.0,0.0,0.0,0.0,0.0,0.0,0.0,0.0,-6.6034,-6.4667,-6.3906,-6.3906,-6.3906,-6.3535,-6.2794,-6.2794,-6.2418,-6.1695,-6.1696,-6.1612,-6.145,-6.1412,-6.1313,-6.1125,-6.1125,-6.1126,-6.1099,-6.1099,0.0,0.0,0.0,0.0,0.0,0.0,0.0,0.0,-6.3507,-6.341,-6.3168,-6.2433,0.0,0.0,0.0,0.0,0.0,-6.107,-6.0773,-6.0456,-6.0237,-6.0038,-5.9902,-5.9902,-5.9902,-5.9902,-5.9902,-5.9902,-5.9902,-5.9902,-5.9853,-5.9542,-5.873,-5.7691,-5.665,-5.5655,-5.4737,-5.377,-5.2635,-5.2498,-5.2498,-5.2498,-5.2498,-5.2498,-5.2498,-5.2498,-5.2552,-5.2679,-5.2679,-5.3236,-5.4451,-5.5005,-5.5826,-5.6986,-5.8842,-5.9817,-5.9921,-6.0603,-6.0966,-6.1153,-6.2576,-6.3372,-6.3639,-6.4396,-6.4794,-6.4888,-6.4775,-6.4699,-6.4656,-6.4259,-6.3568,-6.2778,-6.2495,-6.1853,-6.1099,0.0,0.0,0.0,0.0,0.0,0.0,0.0,0.0,0.0,0.0,0.0,0.0,0.0,0.0,0.0,0.0,0.0,0.0,0.0,0.0,-6.82,-6.82,-6.7479,-6.6602,-6.5665,-6.5646,-6.544,-6.5047,-6.4107,-6.3434,-6.3025,-6.2054,-6.1517,-6.1395,-6.1327,-6.1212,-6.1099,-6.1099,-6.1099,-6.1099,0.0,0.0,0.0,0.0,0.0,0.0,0.0,0.0,0.0,0.0,-6.4087,-6.3642,-6.3226,0.0,0.0,0.0,0.0,0.0,-6.1795,-6.1161,-6.0482,-6.039,-6.0144,-5.9902,-5.9902,-5.9902,-5.9902,-5.9902,-5.9902,-5.9902,-5.9902,-5.9902,-5.9635,-5.8779,-5.7371,-5.6106,-5.5295,-5.4312,-5.3365,-5.2603,-5.2498,-5.2498,-5.2498,-5.2498,-5.2498,-5.2498,-5.2498,-5.2498,-5.2498,-5.2712,-5.3173,-5.3963,-5.4782,-5.5615,-5.6427,-5.8308,-5.9485,-5.9921,-6.0736,-6.1572,-6.2482,-6.3259,-6.3848,-6.432,-6.4737,-6.4907,-6.4907,-6.4907,-6.4907,-6.4903,-6.4981,-6.4463,-6.3602,-6.2727,-6.1853,-6.1099,0.0,0.0,0.0,0.0,0.0,0.0,0.0,0.0,0.0,0.0,0.0,0.0,0.0,0.0,0.0,0.0,0.0,0.0,0.0,-6.9987,-6.9991,-6.9991,-6.9996,-6.9175,-6.7442,-6.7399,-6.7296,-6.7108,-6.5761,-6.49,-6.4468,-6.2836,-6.1946,-6.1672,-6.1551,-6.1344,-6.1099,-6.1099,-6.1099,-6.1099,0.0,0.0,0.0,0.0,0.0,0.0,0.0,0.0,0.0,0.0,0.0,0.0,0.0,0.0,0.0,-6.3758,-6.3226,-6.2656,-6.2404,-6.1582,-6.0744,-6.0481,-6.0154,-5.9902,-5.9902,-5.9902,-5.9902,-5.9902,-5.9902,-5.9902,-5.9902,-5.9801,-5.9467,-5.8673,-5.7173,-5.5799,-5.4883,-5.3803,-5.2944,-5.2549,-5.2595,-5.2645,-5.2645,-5.2717,-5.2739,-5.2645,-5.2645,-5.2595,-5.2521,-5.2879,-5.3267,-5.3683,-5.4685,-5.5442,-5.5887,-5.7554,-5.8916,-5.9921,-6.0909,-6.2178,-6.3601,-6.381,-6.4282,-6.4907,-6.4907,-6.4907,-6.4907,-6.4907,-6.4907,-6.4941,-6.5416,-6.5024,-6.4014,-6.2836,-6.1853,-6.1099,0.0,0.0,0.0,0.0,0.0,0.0,0.0,0.0,0.0,0.0,0.0,0.0,0.0,0.0,0.0,0.0,0.0,0.0,0.0,-7.1744,-7.1715,-7.1715,-7.1717,-7.0937,-6.9257,-6.914,-6.8748,-6.8006,-6.7887,-6.6987,-6.5384,-6.4325,-6.3346,-6.2514,-6.2443,-6.1925,-6.1099,-6.1099,-6.1099,-6.1099,-6.1099,0.0,0.0,0.0,0.0,0.0,0.0,0.0,0.0,0.0,0.0,0.0,0.0,0.0,-6.4764,-6.3952,-6.3661,-6.339,-6.2384,-6.193,-6.1479,-6.0456,-6.0053,-5.9902,-5.9902,-5.9902,-5.9902,-5.9902,-5.9902,-5.9902,-5.9902,-5.954,-5.9007,-5.818,-5.6949,-5.5699,-5.4512,-5.3616,-5.2944,-5.2549,-5.2831,-5.3054,-5.3054,-5.3388,-5.3468,-5.3096,-5.3054,-5.2879,-5.2521,-5.2879,-5.3267,-5.3683,-5.4143,-5.4576,-5.4996,-5.6664,-5.8293,-5.9904,-6.1553,-6.2749,-6.362,-6.4453,-6.485,-6.4907,-6.4907,-6.4907,-6.4907,-6.4907,-6.4907,-6.4941,-6.5416,-6.4838,-6.3622,-6.2733,-6.1853,-6.1099,0.0,0.0,0.0,0.0,0.0,0.0,0.0,0.0,0.0,0.0,0.0,0.0,0.0,0.0,0.0,0.0,0.0,0.0,0.0,-7.1914,-7.1892,-7.1892,-7.1893,-7.1602,-7.0976,-7.0932,-7.0766,-7.0466,-6.8824,-6.7114,-6.5357,-6.439,-6.3731,-6.3336,-6.3289,-6.2742,-6.1911,-6.1911,-6.1601,-6.1099,-6.1099,-6.1427,0.0,0.0,0.0,0.0,0.0,0.0,0.0,0.0,-6.6205,-6.6147,-6.5837,-6.574,-6.5682,-6.5354,-6.4889,-6.4415,-6.4007,-6.286,-6.1697,-6.131,-6.054,-5.9902,-5.9902,-5.9902,-5.9902,-5.9902,-5.9902,-5.9902,-5.9902,-5.9748,-5.9194,-5.785,-5.7015,-5.5921,-5.4158,-5.3449,-5.3033,-5.2879,-5.3008,-5.3203,-5.3448,-5.3606,-5.3625,-5.3469,-5.3468,-5.3408,-5.3247,-5.3624,-5.3907,-5.4069,-5.4465,-5.5007,-5.5697,-5.6834,-5.8237,-5.9921,-6.1041,-6.2292,-6.3601,-6.3923,-6.4396,-6.4907,-6.4907,-6.4907,-6.4907,-6.4907,-6.4907,-6.4941,-6.5416,-6.5158,-6.4396,-6.3536,-6.2665,-6.1834,0.0,0.0,0.0,0.0,0.0,0.0,0.0,0.0,0.0,0.0,0.0,0.0,0.0,0.0,0.0,0.0,0.0,0.0,-7.1894,-7.1904,-7.1909,-7.1909,-7.1888,-7.1877,-7.187,-7.1873,-7.1884,-7.1904,-6.9543,-6.7734,-6.6504,-6.5241,-6.4496,-6.4216,-6.4145,-6.3632,-6.282,-6.282,-6.2317,-6.1505,-6.1505,-6.1698,0.0,0.0,0.0,0.0,0.0,0.0,0.0,0.0,-6.5992,-6.6205,-6.6205,-6.6205,-6.6205,-6.6205,-6.5799,-6.5305,-6.4974,-6.3758,-6.2444,-6.1841,-6.0993,-6.0207,-5.9958,-5.9902,-5.9902,-5.9902,-5.9902,-5.9902,-5.9902,-5.9677,-5.9,-5.7465,-5.6741,-5.5767,-5.3944,-5.3348,-5.3096,-5.3096,-5.3224,-5.3388,-5.3663,-5.3924,-5.4033,-5.3907,-5.3907,-5.3833,-5.3702,-5.4069,-5.4315,-5.4315,-5.496,-5.5602,-5.619,-5.727,-5.8388,-5.9525,-6.034,-6.1591,-6.3222,-6.3469,-6.3923,-6.4509,-6.4794,-6.4907,-6.4907,-6.4907,-6.4993,-6.5155,-6.5527,-6.5399,-6.4889,-6.4029,-6.3149,-6.2278,0.0,0.0,0.0,0.0,0.0,0.0,0.0,0.0,0.0,0.0,0.0,0.0,0.0,0.0,0.0,0.0,0.0,0.0,-7.1902,-7.1892,-7.1904,-7.1904,-7.1843,-7.1797,-7.1797,-7.1797,-7.1838,-7.1904,-7.0091,-6.9195,-6.915,-6.7207,-6.5872,-6.5108,-6.5035,-6.4532,-6.3719,-6.3719,-6.3207,-6.2414,-6.2394,-6.1892,-6.1215,0.0,0.0,0.0,0.0,0.0,0.0,0.0,-6.5508,-6.6185,-6.6185,-6.6185,-6.6185,-6.6205,-6.6205,-6.5981,-6.491,-6.4468,-6.3855,-6.1984,-6.1308,-6.089,-6.0075,-5.9902,-5.9902,-5.9902,-5.9902,-5.9902,-5.9902,-5.9241,-5.8292,-5.7013,-5.6078,-5.5075,-5.387,-5.3348,-5.3117,-5.3117,-5.3468,-5.3702,-5.3702,-5.4432,-5.4726,-5.4332,-5.4315,-5.4122,-5.372,-5.4087,-5.4315,-5.4315,-5.5545,-5.619,-5.6209,-5.7858,-5.8707,-5.871,-5.9522,-6.0776,-6.2408,-6.3203,-6.3582,-6.3639,-6.4509,-6.4888,-6.4907,-6.4907,-6.5172,-6.5616,-6.5826,-6.5534,-6.4889,-6.4029,-6.3149,-6.2298,0.0,0.0,0.0,0.0,0.0,0.0,0.0,0.0,0.0,0.0,0.0,0.0,0.0,0.0,0.0,0.0,0.0,0.0,-7.1906,-7.1854,-7.1833,-7.1833,-7.1813,-7.1797,-7.1797,-7.1797,-7.1792,-7.1755,-7.0032,-6.9121,-6.8946,-6.7148,-6.6146,-6.5867,-6.5857,-6.5392,-6.4609,-6.4609,-6.4097,-6.3265,-6.2646,-6.2607,-6.2878,0.0,0.0,0.0,0.0,0.0,0.0,0.0,0.0,0.0,-6.516,-6.5354,-6.547,-6.6031,-6.6205,-6.6136,-6.5805,-6.5028,-6.4017,-6.2908,-6.1865,-6.089,-6.0075,-5.9902,-5.9902,-5.9902,-5.9902,-5.9902,-5.9902,-5.9241,-5.8375,-5.737,-5.6252,-5.5181,-5.4234,-5.3777,-5.3644,-5.3907,-5.4051,-5.4228,-5.4533,-5.4776,-5.4856,-5.4726,-5.4711,-5.468,-5.4549,-5.4664,-5.4711,-5.4711,-5.5689,-5.6474,-5.7043,-5.8142,-5.8992,-5.956,-5.9807,-6.0454,-6.1496,-6.1724,-6.2482,-6.3601,-6.3884,-6.4339,-6.4925,-6.5057,-6.5291,-6.5616,-6.5826,-6.5881,-6.5663,-6.4242,-6.3545,-6.3091,0.0,0.0,0.0,0.0,0.0,0.0,0.0,0.0,0.0,0.0,0.0,0.0,0.0,0.0,0.0,0.0,0.0,0.0,0.0,-7.1828,-7.1797,-7.1797,-7.1797,-7.1797,-7.1797,-7.1775,-7.1725,-7.1656,-6.9945,-6.9049,-6.8867,-6.7096,-6.6245,-6.6205,-6.6205,-6.5934,-6.547,-6.547,-6.4986,-6.4145,-6.3265,-6.3013,-6.3091,0.0,0.0,0.0,0.0,0.0,0.0,0.0,0.0,0.0,-6.4725,-6.4986,-6.516,-6.5953,-6.6205,-6.6205,-6.6205,-6.5527,-6.4625,-6.3775,-6.2597,-6.1326,-6.0151,-5.9902,-5.9902,-5.9902,-5.9902,-5.9902,-5.9902,-5.8957,-5.8009,-5.7479,-5.6188,-5.5096,-5.4608,-5.4193,-5.4033,-5.4262,-5.4315,-5.4399,-5.4648,-5.4807,-5.4901,-5.4901,-5.4901,-5.4901,-5.4901,-5.4901,-5.4901,-5.4901,-5.6057,-5.691,-5.7403,-5.8578,-5.9428,-5.9902,-5.9902,-6.0167,-6.0641,-6.0963,-6.1837,-6.3147,-6.3846,-6.4415,-6.4924,-6.5232,-6.5441,-6.563,-6.5912,-6.6102,-6.5992,-6.4319,-6.37,-6.3449,0.0,0.0,0.0,0.0,0.0,0.0,0.0,0.0,0.0,0.0,-7.1739,0.0,0.0,0.0,0.0,0.0,0.0,0.0,0.0,0.0,-7.1797,-7.1797,-7.1792,-7.1786,-7.178,-7.1719,-7.1668,-7.1589,-6.9841,-6.8965,-6.8848,-6.7048,-6.6205,-6.6205,-6.6205,-6.6205,-6.6205,-6.6205,-6.5779,-6.5025,-6.4164,-6.3304,-6.2414,-6.1543,0.0,0.0,0.0,0.0,0.0,0.0,0.0,0.0,-6.4483,-6.4812,-6.5044,-6.5857,-6.6147,-6.6205,-6.6205,-6.5912,-6.5392,-6.4509,-6.3284,-6.1875,-6.0245,-5.9902,-5.9902,-5.9902,-5.9902,-5.9902,-5.9902,-5.8521,-5.7403,-5.7403,-5.5981,-5.4901,-5.4901,-5.46,-5.4349,-5.4349,-5.4349,-5.4349,-5.4349,-5.468,-5.4901,-5.4901,-5.4901,-5.4901,-5.4901,-5.4901,-5.4901,-5.4901,-5.6531,-5.7403,-5.7403,-5.9051,-5.9902,-5.9902,-5.9902,-5.9902,-5.9904,-6.0643,-6.1515,-6.2484,-6.4092,-6.4832,-6.4942,-6.5401,-6.5603,-6.5644,-6.6039,-6.6205,-6.5992,-6.4319,-6.37,-6.3449,0.0,0.0,0.0,0.0,0.0,0.0,0.0,0.0,0.0,0.0,0.0,0.0,0.0,0.0,0.0,0.0,0.0,0.0,0.0,0.0,-7.1797,-7.1797,-7.1751,-7.1692,-7.1634,-7.1638,-7.1581,-7.1523,-6.9786,-6.8878,-6.877,-6.7027,-6.6205,-6.6205,-6.6205,-6.6205,-6.6205,-6.6205,-6.6108,-6.5876,-6.5044,-6.4203,-6.3323,-6.2453,-6.1698,0.0,0.0,0.0,0.0,0.0,0.0,0.0,-6.2685,-6.342,-6.4145,-6.5006,-6.5702,-6.6205,-6.6205,-6.5912,-6.5392,-6.4509,-6.2826,-6.1117,-6.0132,-5.9902,-5.9902,-5.9902,-5.9902,-5.9902,-5.9902,-5.8521,-5.7403,-5.7403,-5.5981,-5.4901,-5.4901,-5.4841,-5.4776,-5.4776,-5.4776,-5.4776,-5.4776,-5.4856,-5.4901,-5.4901,-5.4901,-5.4901,-5.4901,-5.4901,-5.4901,-5.4901,-5.6531,-5.7403,-5.7403,-5.9051,-5.9902,-5.9902,-5.9902,-5.9902,-5.9921,-6.0091,-6.0984,-6.2446,-6.345,-6.4282,-6.4942,-6.5401,-6.5603,-6.5644,-6.6039,-6.6205,-6.5992,-6.4319,-6.37,-6.3449,0.0,0.0,0.0,0.0,0.0,0.0,0.0,0.0,0.0,0.0,0.0,0.0,0.0,0.0,0.0,0.0,0.0,0.0,0.0,0.0,-7.1705,-7.1705,-7.1663,-7.1645,-7.1598,-7.1575,-7.155,-7.1494,-6.9721,-6.8829,-6.8758,-6.7017,-6.6205,-6.6205,-6.6205,-6.6205,-6.6205,-6.6205,-6.6205,-6.6127,-6.5315,-6.4493,-6.3603,-6.2723,-6.1872,-6.1099,-6.1099,0.0,0.0,0.0,0.0,0.0,0.0,0.0,-6.3874,-6.4745,-6.5566,-6.6205,-6.6205,-6.5971,-6.5486,-6.4417,-6.2943,-6.1496,-6.0662,-6.017,-5.9902,-5.9902,-5.9902,-5.9902,-5.9902,-5.8521,-5.7403,-5.7403,-5.5981,-5.4901,-5.4901,-5.4901,-5.4901,-5.4901,-5.4901,-5.4901,-5.4901,-5.4901,-5.4901,-5.4901,-5.4901,-5.4901,-5.4901,-5.4901,-5.5091,-5.5508,-5.6739,-5.7592,-5.8009,-5.926,-5.9902,-5.9902,-5.9902,-5.9902,-5.9921,-6.0283,-6.0947,-6.1856,-6.3069,-6.3848,-6.4355,-6.5229,-6.5603,-6.5644,-6.6039,-6.6205,-6.5992,-6.4319,-6.37,-6.3449,0.0,0.0,0.0,0.0,0.0,0.0,0.0,0.0,0.0,0.0,0.0,0.0,0.0,0.0,0.0,0.0,0.0,0.0,0.0,0.0,0.0,-7.1581,-7.1573,-7.1573,-7.1556,-7.1494,-7.1388,-7.1233,-6.9593,-6.8719,-6.8545,-6.6959,-6.6205,-6.6205,-6.6205,-6.6205,-6.6205,-6.6205,-6.6205,-6.6127,-6.5315,-6.4493,-6.3603,-6.2723,-6.1872,-6.1099,-6.1099,-6.1099,-6.1099,-6.1099,0.0,0.0,0.0,0.0,-6.3835,-6.4571,-6.545,-6.6205,-6.6205,-6.6016,-6.5551,-6.431,-6.3193,-6.2178,-6.1288,-6.0489,-5.9902,-5.9902,-5.9902,-5.9902,-5.9902,-5.8521,-5.7403,-5.7403,-5.5981,-5.4901,-5.4901,-5.4901,-5.4901,-5.4901,-5.4901,-5.4901,-5.4901,-5.4901,-5.4901,-5.4901,-5.4901,-5.4901,-5.4901,-5.4901,-5.5299,-5.6171,-5.6986,-5.782,-5.8691,-5.9503,-5.9902,-5.9902,-5.9902,-5.9902,-5.9904,-6.0603,-6.0966,-6.1191,-6.2728,-6.3469,-6.3691,-6.5038,-6.5603,-6.5644,-6.6039,-6.6127,-6.5799,-6.428,-6.3603,-6.3245,0.0,0.0,0.0,0.0,0.0,0.0,0.0,0.0,0.0,0.0,-7.1334,-7.1345,0.0,0.0,0.0,0.0,0.0,0.0,0.0,0.0,0.0,-7.1513,-7.1513,-7.1455,-7.1345,-7.1324,-7.0965,-7.0202,-6.9271,-6.841,-6.7655,-6.6669,-6.6205,-6.6205,-6.6205,-6.6205,-6.6205,-6.6205,-6.6205,-6.6127,-6.5315,-6.4493,-6.3603,-6.2723,-6.1872,-6.1099,-6.1099,-6.1099,-6.1099,-6.1099,-6.1099,0.0,0.0,0.0,-6.3719,-6.3835,-6.4967,-6.6205,-6.6205,-6.5924,-6.5383,-6.4279,-6.3193,-6.2178,-6.1288,-6.0489,-5.9902,-5.9902,-5.9902,-5.9902,-5.9902,-5.8521,-5.7403,-5.7403,-5.5981,-5.4901,-5.4901,-5.4901,-5.4901,-5.4901,-5.4901,-5.4901,-5.4901,-5.4901,-5.4901,-5.4901,-5.4901,-5.4901,-5.4901,-5.4901,-5.5299,-5.6171,-5.6986,-5.782,-5.8691,-5.9503,-5.9902,-5.9902,-5.9902,-5.9902,-5.9902,-5.9999,-6.0435,-6.1136,-6.214,-6.2957,-6.3691,-6.5038,-6.5603,-6.5644,-6.6039,-6.576,-6.5044,-6.4068,-6.3226,-6.2433,0.0,0.0,0.0,0.0,0.0,0.0,0.0,0.0,0.0,0.0,0.0,-7.1291,0.0,0.0,0.0,0.0,0.0,0.0,0.0,0.0,0.0,-7.1385,-7.1385,-7.1132,-7.0576,-7.0556,-7.015,-6.9338,-6.8487,-6.7887,-6.7481,-6.6611,-6.6205,-6.6205,-6.6205,-6.6205,-6.6205,-6.6205,-6.5934,-6.5489,-6.5141,-6.4493,-6.3603,-6.2723,-6.2162,-6.1756,-6.1273,-6.1099,-6.1099,-6.1099,-6.1099,-6.1099,-6.1099,0.0,0.0,0.0,-6.4889,-6.6205,-6.6205,-6.5982,-6.5628,-6.5044,-6.41,-6.3044,-6.2041,-6.1174,-6.0435,-5.9996,-5.9902,-5.9902,-5.9902,-5.8521,-5.7403,-5.7403,-5.5981,-5.4901,-5.4901,-5.4901,-5.4901,-5.4901,-5.4901,-5.4901,-5.4901,-5.4901,-5.4901,-5.4901,-5.4901,-5.4901,-5.4901,-5.4901,-5.5508,-5.6834,-5.7213,-5.8028,-5.9355,-5.9715,-5.9902,-5.9902,-5.9902,-5.9902,-5.9902,-5.9902,-6.0075,-6.047,-6.1307,-6.1875,-6.2326,-6.4024,-6.4781,-6.4901,-6.5192,-6.5174,-6.4831,-6.3478,-6.2414,-6.1543,0.0,0.0,0.0,0.0,0.0,0.0,0.0,0.0,0.0,0.0,0.0,0.0,0.0,0.0,0.0,0.0,0.0,0.0,0.0,0.0,0.0,-7.1291,-7.1079,-7.0672,-6.9996,-6.9802,-6.928,-6.8468,-6.7829,-6.7384,-6.7152,-6.6495,-6.6205,-6.6205,-6.6205,-6.6205,-6.6205,-6.6205,-6.574,-6.4986,-6.4986,-6.4493,-6.3642,-6.2975,-6.2723,-6.2627,-6.1737,-6.1427,-6.1408,-6.1176,-6.1099,-6.1099,-6.1099,-6.2298,0.0,0.0,0.0,-6.6205,-6.6205,-6.6039,-6.5863,-6.5657,-6.4785,-6.3721,-6.2646,-6.1724,-6.0868,-6.0072,-5.9902,-5.9902,-5.9902,-5.8521,-5.7403,-5.7403,-5.5981,-5.4901,-5.4901,-5.4901,-5.4901,-5.4901,-5.4901,-5.4901,-5.4901,-5.4901,-5.4901,-5.4901,-5.4901,-5.4901,-5.4901,-5.4901,-5.5678,-5.7346,-5.7403,-5.8199,-5.9866,-5.9902,-5.9902,-5.9902,-5.9902,-5.9902,-5.9902,-5.9902,-5.9902,-5.9939,-6.0755,-6.1098,-6.1226,-6.2966,-6.38,-6.3986,-6.421,-6.4183,-6.3845,-6.2549,-6.1389,-6.0383,0.0,0.0,0.0,0.0,0.0,0.0,0.0,0.0,0.0,0.0,0.0,0.0,-7.1291,-7.1291,-7.1291,-7.1291,-7.1291,0.0,0.0,0.0,0.0,-7.1291,-7.0498,0.0,-6.9996,-6.9241,-6.8448,-6.7578,-6.752,-6.7075,-6.6263,-6.6224,-6.6205,-6.6205,-6.6205,-6.6205,-6.6205,-6.6205,-6.574,-6.4986,-6.4986,-6.4493,-6.37,-6.3661,-6.3642,-6.3526,-6.2646,-6.2336,-6.222,-6.1389,-6.1099,-6.1099,-6.1099,-6.2298,-6.37,0.0,0.0,0.0,-6.6205,-6.6039,-6.5863,-6.5657,-6.4785,-6.3721,-6.2646,-6.1724,-6.0868,-6.0072,-5.9902,-5.9902,-5.9902,-5.8521,-5.7403,-5.7403,-5.5981,-5.4901,-5.4901,-5.4901,-5.4901,-5.4901,-5.4901,-5.4901,-5.4901,-5.4901,-5.4901,-5.4901,-5.4901,-5.4901,-5.4901,-5.4901,-5.5678,-5.7346,-5.7403,-5.8199,-5.9866,-5.9902,-5.9902,-5.9902,-5.9902,-5.9902,-5.9902,-5.9902,-5.9902,-5.9939,-6.0755,-6.1098,-6.1188,-6.2315,-6.2882,-6.309,-6.3356,-6.2581,-6.1292,-6.1195,-6.0132,-5.872,0.0,0.0,0.0,0.0,0.0,0.0,0.0,0.0,0.0,0.0,0.0,0.0,0.0,-7.1291,-7.1291,-7.1291,-7.1291,0.0,0.0,0.0,0.0,-7.046,-6.9667,-6.897,-6.841,-6.8119,-6.7539,-6.6669,-6.6669,-6.6514,-6.6205,-6.6205,-6.6205,-6.6205,-6.6205,-6.6205,-6.6205,-6.6205,-6.574,-6.4986,-6.4986,-6.4822,-6.4474,-6.3913,-6.4048,-6.4416,-6.3555,-6.2878,-6.2356,-6.2046,-6.1563,-6.1099,-6.1099,-6.2298,-6.3913,-6.4986,-6.5721,-6.6205,-6.6205,-6.6144,-6.6039,-6.5832,-6.5413,-6.4747,-6.3664,-6.2653,-6.1686,-6.0833,-6.0245,-5.9902,-5.9902,-5.8521,-5.7403,-5.7403,-5.5981,-5.4901,-5.4901,-5.4901,-5.4901,-5.4901,-5.4901,-5.4901,-5.4901,-5.4901,-5.4901,-5.4901,-5.4901,-5.4901,-5.4901,-5.4901,-5.5678,-5.7346,-5.7403,-5.8199,-5.9866,-5.9902,-5.9902,-5.9902,-5.9902,-5.9902,-5.9902,-5.9902,-5.9902,-5.9921,-6.0189,-6.0321,-6.0394,-6.1289,-6.1552,-6.1409,-6.1505,-6.1046,-6.0267,-5.9706,-5.8758,-5.7772,0.0,0.0,0.0,0.0,0.0,0.0,0.0,0.0,0.0,-7.1291,0.0,0.0,0.0,0.0,-7.1291,-7.1291,-7.1291,-7.1175,-7.0885,-7.0324,-6.9879,-6.9609,-6.8796,-6.81,-6.752,-6.721,-6.6785,-6.6205,-6.6205,-6.6205,-6.6205,-6.6205,-6.6205,-6.6205,-6.6205,-6.6205,-6.6205,-6.6205,-6.5671,-6.4895,-6.5256,-6.5188,-6.4837,-6.4618,-6.4889,-6.5296,-6.4435,-6.3748,-6.3226,-6.2936,-6.2453,-6.1969,-6.1969,-6.2975,-6.4416,-6.5779,-6.6205,-6.6205,-6.6205,-6.6205,-6.6144,-6.5947,-6.5801,-6.54,-6.4256,-6.3448,-6.2599,-6.1342,-6.0679,-6.0207,-5.9958,-5.8767,-5.7744,-5.7441,-5.6247,-5.5223,-5.4939,-5.4901,-5.4901,-5.4901,-5.4901,-5.4901,-5.4901,-5.4901,-5.4901,-5.4901,-5.4901,-5.4901,-5.4901,-5.4901,-5.5678,-5.7346,-5.7952,-5.8767,-5.9885,-5.9902,-5.9902,-5.9902,-5.9902,-5.9902,-5.9902,-5.9902,-5.975,-5.9503,-5.9503,-5.9503,-5.9541,-6.0072,-6.0049,-5.9652,-5.9671,-5.94,-5.8952,-5.8372,-5.7617,-5.6854,0.0,0.0,0.0,0.0,0.0,0.0,0.0,0.0,-7.1291,-7.1291,0.0,0.0,0.0,0.0,0.0,-7.1253,-7.1253,-7.0885,-7.0015,-6.9938,-6.957,-6.8796,0.0,0.0,-6.7462,-6.663,-6.6205,-6.6205,-6.6205,-6.6205,-6.6205,-6.6205,-6.6205,-6.6205,-6.6205,-6.6205,-6.6194,-6.6194,-6.5578,-6.4729,-6.5765,-6.5559,-6.4748,-6.5795,-6.6185,-6.6108,-6.5315,-6.5006,-6.488,-6.4029,-6.3719,-6.37,-6.3739,-6.4319,-6.516,-6.5953,-6.6205,-6.6205,0.0,0.0,0.0,-6.5959,-6.5912,-6.557,-6.4339,-6.4043,-6.347,-6.1579,-6.1153,-6.0868,-6.0091,-5.9295,-5.8445,-5.7573,-5.6739,-5.5906,-5.5015,-5.4901,-5.4901,-5.4901,-5.4901,-5.4901,-5.4901,-5.4901,-5.4901,-5.4901,-5.4901,-5.4901,-5.4901,-5.4958,-5.5716,-5.7346,-5.9033,-5.9902,-5.9902,-5.9902,-5.9902,-5.9902,-5.9902,-5.9902,-5.9902,-5.9883,-5.9447,-5.8707,-5.8669,-5.8635,-5.8631,-5.8635,-5.8392,-5.7958,-5.7958,-5.7679,-5.726,-5.726,-5.6719,-5.6012,0.0,0.0,0.0,0.0,0.0,0.0,-7.1291,-7.1291,-7.1291,0.0,0.0,0.0,-7.1291,-7.1291,-7.104,-7.0402,-7.0363,-7.0015,-6.9183,-6.8545,-6.81,-6.7868,-6.7017,-6.6553,-6.6553,-6.6321,-6.6205,-6.6205,-6.6205,-6.6205,-6.6205,-6.6205,-6.6205,-6.6205,-6.6205,-6.6123,-6.5982,-6.5982,-6.5812,-6.5553,-6.5718,-6.5672,-6.5565,-6.5863,-6.6061,-6.6166,-6.5953,-6.5489,-6.4948,-6.4725,-6.4222,-6.3816,-6.4435,-6.4822,-6.516,-6.5953,-6.6205,-6.6205,-6.6205,0.0,0.0,0.0,0.0,0.0,-6.5455,-6.4767,-6.403,-6.3336,-6.2223,-6.1263,-6.0844,-6.011,-5.9314,-5.8464,-5.7137,-5.5906,-5.5015,-5.4901,-5.4901,-5.4901,-5.4901,-5.4901,-5.4901,-5.4901,-5.4901,-5.4901,-5.4901,-5.4901,-5.4901,-5.6057,-5.691,-5.7384,-5.9033,-5.9902,-5.9902,-5.9902,-5.9902,-5.9902,-5.9902,-5.9902,-5.9866,-5.9314,-5.8916,-5.8669,-5.8028,-5.7422,-5.6929,-5.7516,-5.7482,-5.7064,-5.7064,-5.6774,-5.6351,-5.6351,-5.6197,-5.6012,0.0,0.0,0.0,0.0,0.0,-7.1291,-7.1291,-7.1291,-7.1291,0.0,0.0,0.0,-7.1291,-7.0982,-7.0537,-7.0034,-6.9686,-6.9145,-6.8313,-6.7791,-6.7346,-6.6978,-6.6475,-6.6205,-6.6205,-6.6205,-6.6205,-6.6205,-6.6205,-6.6205,-6.6205,-6.6205,-6.6205,-6.6205,-6.6205,-6.6091,-6.59,-6.5814,-6.5705,-6.5605,-6.5691,-6.575,-6.5769,-6.5876,-6.5971,-6.6061,-6.6061,-6.5771,-6.5396,-6.5469,-6.516,-6.4831,-6.5334,-6.5489,-6.5586,-6.605,-6.6205,-6.6205,-6.6205,-6.6205,-6.6205,-6.6205,0.0,0.0,-6.5924,-6.5422,-6.4807,-6.424,-6.3282,-6.2285,-6.1422,-6.0896,-6.0197,-5.9015,-5.8081,-5.7025,-5.5708,-5.5237,-5.5071,-5.5135,-5.5085,-5.5028,-5.5028,-5.4941,-5.4901,-5.4901,-5.4901,-5.5072,-5.5413,-5.6683,-5.7573,-5.7933,-5.9219,-5.9902,-5.9902,-5.9902,-5.9902,-5.9902,-5.9902,-5.9902,-5.9883,-5.9086,-5.8499,-5.8104,-5.727,-5.6436,-5.5697,-5.6152,-5.6297,-5.6201,-5.6201,-5.612,-5.6012,-5.6012,-5.6012,-5.6012,0.0,0.0,0.0,-7.1291,-7.1291,-7.1291,-7.1291,-7.1291,-7.1291,0.0,-7.1291,-7.1253,-7.1175,-7.046,-6.9918,-6.9744,-6.9067,-6.8294,-6.7404,-6.7365,-6.7017,-6.6224,-6.6205,-6.6205,-6.6205,-6.6205,-6.6205,-6.6205,-6.6205,-6.6205,-6.6205,-6.6205,-6.6205,-6.6205,-6.6184,-6.605,-6.5844,-6.5638,-6.5416,-6.5198,-6.5619,-6.5711,-6.5575,-6.5756,-6.5832,-6.5876,-6.5876,-6.5876,-6.59,-6.6102,-6.6175,-6.6205,-6.6205,-6.6205,-6.6205,-6.6205,-6.6205,-6.6205,-6.6205,-6.6205,-6.6205,-6.6205,-6.6205,0.0,-6.5971,-6.5936,-6.5657,-6.4686,-6.4269,-6.3592,-6.2103,-6.1654,-6.1048,-5.955,-5.9299,-5.8624,-5.67,-5.5815,-5.5403,-5.548,-5.5339,-5.521,-5.5197,-5.5071,-5.496,-5.4927,-5.5022,-5.5405,-5.6152,-5.7043,-5.7895,-5.8688,-5.9468,-5.9902,-5.9902,-5.9902,-5.9902,-5.9902,-5.9902,-5.9847,-5.975,-5.8919,-5.8066,-5.7213,-5.6398,-5.5621,-5.4901,-5.4931,-5.5149,-5.5504,-5.5504,-5.5696,-5.6012,-5.6012,-5.6012,-5.6012,0.0,0.0,0.0,0.0,0.0,-7.1291,-7.1291,-7.1291,-7.1291,-7.1291,-7.1291,-7.1021,-7.0324,-7.0092,-6.9454,-6.8119,-6.7849,-6.7384,-6.6514,-6.6456,-6.6379,-6.6205,-6.6205,-6.6205,-6.6205,-6.6205,-6.6205,-6.6205,-6.6205,-6.6205,-6.6205,-6.6205,-6.6205,-6.6194,-6.6027,-6.5851,-6.5644,-6.5382,-6.5153,-6.4976,-6.5059,-6.5169,-6.5291,-6.5318,-6.547,-6.5657,-6.5657,-6.5657,-6.5697,-6.59,-6.6069,-6.6205,-6.6205,-6.6205,-6.6205,-6.6205,-6.6205,-6.6205,-6.6205,-6.6205,-6.6205,-6.6205,-6.6205,0.0,-6.6144,-6.6134,-6.6033,-6.5657,-6.4999,-6.4328,-6.383,-6.2653,-6.1638,-6.1312,-6.015,-5.8674,-5.6893,-5.651,-5.6177,-5.5581,-5.5468,-5.5383,-5.5229,-5.5301,-5.532,-5.5162,-5.5739,-5.6131,-5.6205,-5.763,-5.8521,-5.8691,-5.9468,-5.9902,-5.9902,-5.9902,-5.9902,-5.9902,-5.9902,-5.9544,-5.8916,-5.8047,-5.7213,-5.6379,-5.5527,-5.5072,-5.4916,-5.5066,-5.5275,-5.5504,-5.5504,-5.5696,-5.6012,-5.6012,-5.6012,-5.6012,0.0,-7.1291,-7.1269,0.0,0.0,-7.1269,-7.1166,-7.1236,-7.1291,-7.1291,-7.0924,-7.0324,-6.9493,-6.9009,-6.841,-6.7578,-6.7094,-6.6669,-6.6224,-6.6205,-6.6205,-6.6205,-6.6205,-6.6205,-6.6205,-6.6205,-6.6205,-6.6205,-6.6205,-6.6205,-6.6205,-6.6205,-6.6205,-6.6194,-6.5982,-6.5801,-6.5589,-6.5322,-6.5071,-6.4907,-6.5008,-6.5104,-6.5198,-6.5198,-6.5291,-6.5397,-6.5397,-6.5504,-6.563,-6.582,-6.5971,-6.608,-6.6165,-6.6205,-6.6205,-6.6205,-6.6205,-6.6205,-6.6205,-6.6205,-6.6205,-6.6205,-6.6205,0.0,0.0,-6.6205,-6.6165,-6.608,-6.5624,-6.5079,-6.4558,-6.3764,-6.3072,-6.2661,-6.1616,-6.0536,-5.9669,-5.836,-5.7396,-5.7077,-5.6956,-5.6867,-5.6755,-5.6743,-5.6707,-5.6588,-5.6885,-5.7201,-5.7581,-5.8296,-5.8881,-5.9279,-5.9677,-5.9902,-5.9902,-5.9902,-5.9902,-5.9902,-5.9902,-5.9485,-5.8669,-5.7801,-5.6948,-5.6152,-5.528,-5.4901,-5.4916,-5.5121,-5.5333,-5.5516,-5.5607,-5.5798,-5.6012,-5.6012,-5.6012,-5.6012,-7.117,-7.117,-7.1104,0.0,0.0,0.0,0.0,-7.1074,-7.1112,-7.0939,-7.022,-6.9391,-6.8569,-6.7905,-6.7423,-6.7268,-6.6611,-6.6205,-6.6205,-6.6205,-6.6205,-6.6205,-6.6205,-6.6205,-6.6205,-6.6205,-6.6205,-6.6205,-6.6205,-6.6205,-6.6205,-6.6205,-6.6205,-6.6194,-6.5947,-6.5763,-6.5575,-6.526,-6.504,-6.4906,-6.509,-6.5153,-6.5153,-6.5153,-6.5153,-6.5153,-6.5153,-6.5307,-6.5561,-6.5718,-6.5795,-6.5888,-6.608,-6.6134,-6.6144,-6.6194,-6.6205,-6.6205,-6.6205,-6.6205,-6.6205,-6.6205,-6.6205,-6.6205,0.0,0.0,0.0,-6.6205,-6.608,-6.5747,-6.5045,-6.4783,-6.4359,-6.3367,-6.2895,-6.253,-6.2201,-6.0538,-5.9224,-5.8885,-5.8558,-5.8333,-5.8301,-5.8143,-5.8062,-5.8062,-5.8055,-5.8358,-5.9024,-5.9003,-5.9283,-5.9947,-5.9918,-5.9902,-5.9902,-5.9902,-5.9902,-5.9902,-5.975,-5.9241,-5.8407,-5.7554,-5.672,-5.5906,-5.5204,-5.4931,-5.4971,-5.5176,-5.5383,-5.5573,-5.5735,-5.5885,-5.6012,-5.6012,-5.6012,-5.6012,-7.0681,-7.0681,-7.0666,-7.0637,0.0,0.0,0.0,0.0,-7.0412,-6.9702,-6.9014,-6.8268,-6.7458,-6.7454,-6.7191,-6.6417,-6.6263,-6.6205,-6.6205,-6.6205,-6.6205,-6.6205,-6.6205,-6.6205,-6.6205,-6.6205,-6.6205,-6.6205,-6.6205,-6.6205,-6.6205,-6.6205,-6.6205,-6.6175,-6.5795,-6.5616,-6.5575,-6.5123,-6.4906,-6.4907,-6.4924,-6.4924,-6.4924,-6.4924,-6.4924,-6.4924,-6.4924,-6.5073,-6.5245,-6.5257,-6.5441,-6.5671,-6.5876,-6.5936,-6.5971,-6.6144,-6.6205,-6.6205,-6.6205,-6.6205,-6.6205,-6.6205,-6.6205,-6.6205,-6.6205,0.0,-6.6205,-6.6205,0.0,-6.6135,-6.6049,0.0,0.0,-6.2771,-6.31,-6.3013,-6.1466,-6.2308,-6.2269,-6.0016,-5.9059,-5.8491,-5.8312,-5.828,-5.8269,-5.8269,-5.896,-5.935,-5.9268,-5.9764,-6.0074,-6.0169,-5.9994,-5.9902,-5.9902,-5.9902,-5.9902,-5.9885,-5.9181,-5.8369,-5.7516,-5.6702,-5.5849,-5.5034,-5.4939,-5.5,-5.5189,-5.5376,-5.5585,-5.5766,-5.5787,-5.5885,-5.6012,-5.6012,-5.6012,-5.6012,-7.0547,-7.0593,-7.0547,-7.0407,0.0,0.0,0.0,0.0,-6.8843,-6.8,-6.7643,-6.7178,-6.6371,-6.6451,-6.6422,-6.6055,-6.6134,-6.6205,-6.6205,-6.6205,-6.6205,-6.6205,-6.6205,-6.6205,-6.6205,-6.6205,-6.6205,-6.6205,-6.6205,-6.6205,-6.6205,-6.6205,-6.6134,-6.6005,-6.5737,-6.5499,-6.5352,-6.5025,-6.4907,-6.4907,-6.4907,-6.4907,-6.4907,-6.4907,-6.4907,-6.4907,-6.4907,-6.4958,-6.504,-6.515,-6.4951,-6.48,-6.5498,-6.5448,-6.5249,-6.5851,-6.6112,-6.6205,-6.6205,-6.6205,-6.6205,-6.6205,-6.6205,-6.6205,-6.6205,-6.6205,-6.6205,-6.6205,0.0,0.0,0.0,0.0,0.0,0.0,-6.4522,-6.4348,-6.4097,-6.3845,-6.3294,-6.223,-6.1785,-6.1331,-6.0741,-6.021,-5.992,-5.992,-6.0156,-6.0261,-6.0161,-6.0185,-6.0213,-6.0213,-6.001,-5.9902,-5.9902,-5.9902,-5.9902,-5.9885,-5.907,-5.8237,-5.7365,-5.6569,-5.5716,-5.4901,-5.4901,-5.5014,-5.5229,-5.542,-5.5618,-5.5797,-5.5885,-5.5959,-5.6012,-5.6012,-5.6012,-5.6012,-6.9658,-6.9894,-6.9982,-6.98,-6.9745,0.0,0.0,-6.7986,-6.7328,-6.6697,-6.6455,-6.6136,-6.5561,-6.5731,-6.5888,-6.5826,-6.6039,-6.6184,-6.6123,-6.6165,-6.6205,-6.6205,-6.6205,-6.6205,-6.6205,-6.6205,-6.6205,-6.6205,-6.6205,-6.6205,-6.6205,-6.6205,-6.6102,-6.59,-6.5697,-6.5441,-6.5182,-6.4974,-6.4907,-6.4888,-6.4642,-6.4282,-6.3884,-6.413,-6.4225,-6.4149,-6.3694,-6.3524,-6.3558,-6.3685,-6.3518,-6.3394,-6.4456,-6.4652,-6.4629,-6.5544,-6.5959,-6.6123,-6.6123,-6.6155,-6.6205,-6.6205,-6.6205,-6.6205,-6.6205,-6.6205,-6.6205,-6.6205,-6.6205,0.0,0.0,0.0,-6.605,-6.5586,0.0,-6.5373,-6.5489,-6.4851,-6.43,-6.4087,-6.3855,-6.3449,-6.282,-6.2182,-6.1718,-6.1466,-6.1319,-6.113,-6.088,-6.054,-6.0335,-6.0279,-6.0084,-5.9966,-5.9902,-5.9902,-5.9807,-5.9544,-5.8745,-5.7895,-5.7043,-5.6209,-5.5508,-5.4901,-5.4975,-5.5094,-5.5288,-5.5504,-5.5684,-5.5866,-5.5949,-5.6012,-5.6012,-5.6012,-5.6012,-5.6012,-6.7484,-6.8128,-6.8659,-6.8659,-6.8015,-6.7484,-6.7465,-6.6726,-6.6138,-6.6119,-6.562,-6.5232,-6.5213,-6.5619,-6.5826,-6.563,-6.5971,-6.6123,-6.5924,-6.6102,-6.6205,-6.6205,-6.6205,-6.6205,-6.6205,-6.6205,-6.6205,-6.6205,-6.6205,-6.6205,-6.6205,-6.6205,-6.6102,-6.59,-6.5697,-6.5441,-6.5182,-6.4974,-6.4907,-6.4832,-6.398,-6.2671,-6.1307,-6.2159,-6.2465,-6.2273,-6.0643,-6.0056,-6.0056,-6.0072,-6.0565,-6.1373,-6.2441,-6.3356,-6.4241,-6.5297,-6.5763,-6.5912,-6.5912,-6.6039,-6.6205,-6.6205,-6.6205,-6.6205,-6.6205,-6.6205,-6.6205,-6.6205,-6.6205,-6.6205,-6.6205,-6.6205,-6.5663,-6.4048,-6.5122,0.0,0.0,-6.5122,-6.5837,-6.5044,-6.4222,-6.37,-6.3661,-6.3642,-6.3265,-6.2414,-6.2346,-6.1979,-6.1147,-6.089,-6.0692,-6.0495,-6.0293,-6.0099,-5.9902,-5.9902,-5.9522,-5.8729,-5.7858,-5.7024,-5.6209,-5.5337,-5.4939,-5.4916,-5.5107,-5.5301,-5.5504,-5.5714,-5.5876,-5.5984,-5.6003,-5.6012,-5.6012,-5.6012,-5.6012,-5.6012,-6.7295,-6.7144,-6.7125,-6.7712,-6.7579,-6.7219,-6.6632,-6.5836,-6.5305,-6.5305,-6.5129,-6.5008,-6.5008,-6.526,-6.5407,-6.5337,-6.5624,-6.5839,-6.59,-6.5959,-6.605,-6.6185,-6.6205,-6.6205,-6.6205,-6.6205,-6.6205,-6.6205,-6.6205,-6.6205,-6.6205,-6.605,-6.59,-6.5697,-6.5441,-6.5217,-6.4953,-6.4317,-6.4055,-6.3922,-6.2519,-6.161,-6.1117,-6.142,-6.1212,-6.0662,-6.0094,-5.9902,-5.9902,-5.9902,-5.9715,-5.9671,-6.0548,-6.1142,-6.1658,-6.2605,-6.3803,-6.4846,-6.4846,-6.5301,-6.582,-6.5971,-6.5994,-6.6047,-6.6165,-6.6205,-6.6205,-6.6205,-6.6205,-6.6205,-6.6205,-6.6205,-6.6011,-6.545,-6.5837,-6.5992,0.0,-6.5837,-6.6108,-6.5837,-6.5064,-6.4571,-6.4571,-6.3516,-6.2723,-6.2433,-6.1872,-6.1408,-6.1118,-6.0901,-6.0762,-6.0704,-6.0508,-6.0362,-6.0313,-6.0313,-5.9859,-5.9019,-5.8058,-5.7163,-5.6293,-5.5474,-5.5094,-5.5107,-5.5301,-5.5516,-5.5695,-5.5766,-5.5885,-5.6012,-5.6012,-5.6012,-5.6012,-5.6012,-5.6012,-5.6012,-6.6404,-6.6063,-6.595,-6.6783,-6.6708,-6.6329,-6.576,-6.5229,-6.4907,-6.4907,-6.4907,-6.4907,-6.4907,-6.509,-6.5166,-6.5087,-6.5397,-6.5657,-6.5769,-6.5863,-6.5982,-6.6194,-6.6205,-6.6205,-6.6205,-6.6205,-6.6205,-6.6205,-6.6205,-6.6205,-6.6205,-6.5994,-6.5782,-6.5589,-6.5016,-6.465,-6.4396,-6.3526,-6.3166,-6.3031,-6.1345,-6.0321,-5.9753,-5.9468,-5.9203,-5.8919,-5.8331,-5.8123,-5.8123,-5.8123,-5.7971,-5.7952,-5.8748,-5.9311,-5.9828,-6.0685,-6.2065,-6.3288,-6.3288,-6.3995,-6.4755,-6.4959,-6.5238,-6.5496,-6.5729,-6.5992,-6.6205,-6.6205,-6.6205,-6.6205,-6.6205,-6.6205,-6.6205,-6.6205,-6.6205,-6.6205,0.0,-6.6205,-6.6205,-6.6205,-6.574,-6.5431,-6.5431,-6.4406,-6.3632,-6.3342,-6.2511,-6.1892,-6.1582,-6.1156,-6.088,-6.0795,-6.0669,-6.0571,-6.0495,-6.0495,-5.992,-5.877,-5.8039,-5.7126,-5.6052,-5.5471,-5.5236,-5.5333,-5.5527,-5.5692,-5.5797,-5.5847,-5.5932,-5.6012,-5.6012,-5.6012,-5.6012,-5.6012,-5.6012,-5.6012,-6.4888,-6.4907,-6.5154,-6.5912,-6.5419,-6.4907,-6.4907,-6.4907,-6.4907,-6.4907,-6.4907,-6.4907,-6.4907,-6.5073,-6.5104,-6.4925,-6.5314,-6.5575,-6.5575,-6.5756,-6.5971,-6.6184,-6.6185,-6.6205,-6.6205,-6.6205,-6.6205,-6.6205,-6.6205,-6.6185,-6.6175,-6.5982,-6.575,-6.5479,-6.4443,-6.3832,-6.3488,-6.2673,-6.2311,-6.214,-6.0454,-5.8805,-5.7308,-5.6455,-5.6607,-5.7062,-5.547,-5.4901,-5.4901,-5.4901,-5.5451,-5.6266,-5.7043,-5.7858,-5.8729,-5.9487,-6.0532,-6.1434,-6.1434,-6.2223,-6.3111,-6.3318,-6.3954,-6.4579,-6.4868,-6.5528,-6.6089,-6.6127,-6.6147,-6.6147,-6.6185,-6.6205,-6.6185,-6.6147,-6.6147,-6.6147,-6.6185,-6.6205,-6.6205,-6.6205,-6.6205,-6.6205,-6.6205,-6.6166,-6.5818,-6.5064,-6.4203,-6.3323,-6.2453,-6.1621,-6.107,-6.0825,-6.0806,-6.0716,-6.0533,-6.0495,-5.9651,-5.804,-5.7773,-5.6913,-5.5504,-5.5333,-5.5326,-5.5527,-5.5716,-5.5807,-5.5817,-5.5959,-5.6012,-5.6012,-5.6012,-5.6012,-5.6012,-5.6012,-5.6012,-5.6012,-6.4775,-6.4907,-6.4983,-6.5173,-6.504,-6.4907,-6.4907,-6.4907,-6.4907,-6.4907,-6.4907,-6.4907,-6.4907,-6.4941,-6.4958,-6.4888,-6.501,-6.5139,-6.5291,-6.5542,-6.5776,-6.5971,-6.6123,-6.6205,-6.6205,-6.6205,-6.6205,-6.6205,-6.6205,-6.6123,-6.5971,-6.5776,-6.5216,-6.439,-6.3913,-6.3346,-6.2635,-6.1799,-6.1079,-6.0397,-5.871,-5.7782,-5.7232,-5.5792,-5.5356,-5.5489,-5.5053,-5.4901,-5.4901,-5.4901,-5.5053,-5.528,-5.5489,-5.6133,-5.6872,-5.7081,-5.866,-6.0301,-6.0301,-6.1432,-6.2646,-6.283,-6.3146,-6.3489,-6.375,-6.4093,-6.4532,-6.516,-6.5315,-6.5489,-6.6089,-6.6205,-6.5992,-6.5412,-6.5315,-6.5508,-6.6127,-6.6205,-6.6205,-6.6205,-6.6205,-6.6205,-6.6205,-6.5663,-6.5218,-6.5006,-6.4203,-6.3323,-6.2453,-6.2201,-6.1756,-6.106,-6.1022,-6.1002,-6.0951,-6.0353,-5.9514,-5.8433,-5.7593,-5.6662,-5.5724,-5.5662,-5.5662,-5.5735,-5.5875,-5.5959,-5.5959,-5.5995,-5.6012,-5.6012,-5.6012,-5.6012,-5.6012,-5.6012,-5.6012,-5.6012,-6.4813,-6.4907,-6.4907,-6.4907,-6.4907,-6.4907,-6.4907,-6.4907,-6.4907,-6.4907,-6.4907,-6.4907,-6.4907,-6.4907,-6.4907,-6.4907,-6.4907,-6.4974,-6.5182,-6.5337,-6.5569,-6.5888,-6.6005,-6.6112,-6.6205,-6.6205,-6.6205,-6.6205,-6.6112,-6.6005,-6.59,0.0,-6.4588,-6.3958,-6.294,-6.2254,-6.178,-6.0928,-6.011,-5.9276,-5.7933,-5.7194,0.0,-5.5394,-5.4901,-5.4901,-5.4901,-5.4901,-5.4901,-5.4901,-5.4901,-5.4901,-5.4901,-5.5242,-5.5621,-5.5621,-5.6891,-5.835,-5.871,-5.9772,-6.0917,-6.1469,-6.1994,-6.2429,-6.276,-6.3216,-6.3736,-6.4299,-6.4435,-6.4687,-6.5508,-6.5682,-6.5644,-6.5528,-6.5508,-6.5682,-6.6147,-6.6205,-6.6205,-6.6205,-6.6205,-6.6205,-6.6205,-6.5779,-6.5508,-6.5508,-6.4735,-6.4038,-6.3555,-6.282,-6.2182,-6.1679,-6.1311,-6.0925,-6.0576,-6.0132,-5.9261,-5.8023,-5.7332,-5.6617,-5.5885,-5.5827,-5.5827,-5.5895,-5.5977,-5.6012,-5.6012,-5.6012,-5.6012,-5.6012,-5.6012,-5.6012,-5.6012,-5.6012,-5.6012,-5.6012,-6.4907,-6.4907,-6.4907,-6.4907,-6.4907,-6.4907,-6.4907,-6.4907,-6.4907,-6.4907,-6.4907,-6.4907,-6.4907,-6.4907,-6.4907,-6.4907,-6.4907,-6.4974,-6.5153,-6.5182,-6.5378,-6.5795,-6.5876,-6.5982,-6.6155,-6.6194,-6.6194,-6.6155,-6.5982,-6.5799,0.0,0.0,-6.3863,-6.355,-6.1858,-6.1041,-6.089,-6.0205,-5.9447,-5.8631,-5.7744,-5.691,-5.6095,-5.5223,-5.4901,-5.4901,-5.4901,-5.4901,-5.4901,-5.4901,-5.4901,-5.4901,-5.4901,-5.4901,-5.4901,-5.4901,-5.5527,-5.6379,-5.7175,-5.8028,-5.8944,-5.9919,-6.0751,-6.1416,-6.1771,-6.2487,-6.3144,-6.3428,-6.3506,-6.3835,-6.4812,-6.4986,-6.5257,-6.6069,-6.6108,-6.6069,-6.6185,-6.6205,-6.6205,-6.6205,-6.6205,0.0,-6.6205,-6.6205,-6.6205,-6.6205,-6.5547,-6.5102,-6.5006,-6.3555,-6.2646,-6.2414,-6.1679,-6.0828,-5.9899,-5.9783,-5.8913,-5.7299,-5.7004,-5.6561,-5.6003,-5.5885,-5.5895,-5.6012,-5.6012,-5.6012,-5.6012,-5.6012,-5.6012,-5.6012,-5.6012,-5.6012,-5.6012,-5.6012,-5.6012,-5.6012,-6.4907,-6.4907,-6.4907,-6.4907,-6.4907,-6.4907,-6.4907,-6.4907,-6.4907,-6.4907,-6.4907,-6.4907,-6.4907,-6.4907,-6.4907,-6.4907,-6.4907,-6.4906,-6.4958,-6.5104,-6.5245,-6.5318,-6.5685,-6.5924,-6.5947,-6.6112,-6.6123,-6.5959,-6.5924,-6.5372,-6.4325,-6.4115,-6.314,-6.1598,-6.1264,-6.0719,-6.0094,-5.9958,-5.9447,-5.8631,-5.7744,-5.691,-5.6095,-5.5223,-5.4901,-5.4901,-5.4901,-5.4901,-5.4901,-5.4901,-5.4901,-5.4901,-5.4901,-5.4901,-5.4901,-5.4901,-5.5527,-5.6379,-5.7175,-5.8028,-5.8897,-5.9741,-6.0198,-6.0437,-6.0523,-6.0897,-6.1481,-6.2227,-6.2518,-6.311,-6.4715,-6.4986,-6.5257,-6.6069,-6.5644,-6.5431,-6.6108,-6.6205,-6.6205,-6.6205,-6.6205,-6.6205,-6.6205,-6.6205,-6.6205,-6.6205,-6.6069,-6.5702,-6.5044,-6.4715,-6.3884,-6.2453,-6.2259,-6.1447,-5.9899,-5.9184,-5.8314,-5.728,-5.6546,-5.6102,-5.6003,-5.5986,-5.5986,-5.6012,-5.6012,-5.6012,-5.6012,-5.6012,-5.6012,-5.6012,-5.6012,-5.6012,-5.6012,-5.6012,-5.6012,-5.6012,-6.4907,-6.4907,-6.4907,-6.4907,-6.4907,-6.4907,-6.4907,-6.4907,-6.4907,-6.4907,-6.4907,-6.4907,-6.4907,-6.4907,-6.4907,-6.4907,-6.4907,-6.4907,-6.4907,-6.4991,-6.5087,-6.5198,-6.5422,-6.5592,-6.575,-6.5851,-6.562,-6.5058,-6.4972,-6.4365,-6.3307,-6.2763,-6.2007,-6.1079,-6.0643,-6.0245,-5.9902,-5.9902,-5.9447,-5.8631,-5.7744,-5.691,-5.6095,-5.5223,-5.4901,-5.4901,-5.4901,-5.4901,-5.4901,-5.4901,-5.4901,-5.4901,-5.4901,-5.4901,-5.4901,-5.4901,-5.5204,-5.5792,-5.7062,-5.7706,-5.8331,-5.9598,-5.9963,-6.0068,-6.0184,-6.0349,-6.0649,-6.1171,-6.1431,-6.2121,-6.399,-6.4706,-6.5257,-6.6069,-6.5876,-6.576,-6.6147,-6.6205,-6.6205,-6.6205,-6.6205,-6.6205,-6.6205,-6.6205,-6.6205,-6.6205,-6.6205,-6.6031,-6.5644,-6.5218,-6.4406,-6.311,-6.2201,-6.0925,-5.9242,-5.8352,-5.7501,-5.6622,-5.6197,-5.6012,-5.6012,-5.6012,-5.6012,-5.6012,-5.6012,-5.6012,-5.6012,-5.6012,-5.6012,-5.6012,-5.6012,-5.6012,-5.6012,-5.6012,-5.6012,-5.6012,-6.4907,-6.4907,-6.4907,-6.4907,-6.4907,-6.4907,-6.4907,-6.4907,-6.4907,-6.4907,-6.4907,-6.4907,-6.4907,-6.4907,-6.4907,-6.4907,-6.4907,-6.4907,-6.4907,-6.4907,-6.4957,-6.5136,-6.5182,-6.5307,-6.5518,-6.5383,-6.4961,-6.4249,-6.3889,-6.3173,-6.2083,-6.1422,-6.1003,-6.0814,-6.017,-5.9902,-5.9902,-5.9902,-5.9447,-5.8631,-5.7744,-5.691,-5.6095,-5.5223,-5.4901,-5.4901,-5.4901,-5.4901,-5.4901,-5.4901,-5.4901,-5.4901,-5.4901,-5.4901,-5.4901,-5.4901,-5.4901,-5.528,-5.6929,-5.7403,-5.7801,-5.9468,-5.9902,-5.995,-6.0114,-6.0169,-6.0237,-6.0403,-6.0786,-6.1533,-6.3079,-6.4251,-6.5199,-6.5837,-6.6089,-6.6205,-6.6205,-6.6205,-6.6205,-6.6205,-6.6205,-6.6205,-6.6205,-6.6205,-6.6205,-6.6205,-6.6205,-6.6205,-6.6205,-6.5605,-6.4783,-6.3739,-6.2182,-6.048,-5.8632,-5.7733,-5.6854,-5.6012,-5.6012,-5.6012,-5.6012,-5.6012,-5.6012,-5.6012,-5.6012,-5.6012,-5.6012,-5.6012,-5.6012,-5.6012,-5.6012,-5.6012,-5.6012,-5.6012,-5.6012,-5.6012,-6.4907,-6.4907,-6.4907,-6.4907,-6.4907,-6.4907,-6.4907,-6.4907,-6.4907,-6.4907,-6.4907,-6.4907,-6.4907,-6.4907,-6.4907,-6.4907,-6.4907,-6.4907,-6.4907,-6.4907,-6.4907,-6.4924,-6.5104,-6.5213,-6.5245,-6.4705,-6.4298,-6.4024,-6.3223,-6.1919,-6.018,-6.0811,-6.0717,-5.9999,-5.9923,-5.9902,-5.9902,-5.9902,-5.9447,-5.8631,-5.7744,-5.691,-5.6095,-5.5223,-5.4901,-5.4901,-5.4901,-5.4901,-5.4901,-5.4901,-5.4901,-5.4901,-5.4901,-5.4901,-5.4901,-5.4901,-5.4901,-5.528,-5.6929,-5.7403,-5.7801,-5.9468,-5.9902,-5.9902,-5.9918,-6.0068,-6.0213,-6.0208,-6.116,-6.2028,-6.2224,-6.3754,-6.5006,-6.5102,-6.5721,-6.6205,-6.6205,-6.6205,-6.6205,-6.6205,-6.6205,-6.6205,-6.6205,-6.6205,-6.6205,-6.6205,-6.6205,-6.6205,-6.6205,-6.6127,-6.5354,-6.3758,-6.2781,-6.1099,-5.8632,-5.7733,-5.6854,-5.6012,-5.6012,-5.6012,-5.6012,-5.6012,-5.6012,-5.6012,-5.6012,-5.6012,-5.6012,-5.6012,-5.6012,-5.6012,-5.6012,-5.6012,-5.6012,-5.6012,-5.6012,-5.6012,-6.341,-6.341,-6.341,-6.341,-6.341,-6.341,-6.341,-6.341,-6.341,-6.341,-6.4282,-6.4907,-6.4907,-6.4907,-6.4907,-6.4907,-6.4907,-6.4907,-6.4907,-6.4907,-6.4907,-6.4907,-6.448,-6.4246,-6.4246,-6.3524,-6.2858,-6.2268,-6.1907,-6.1099,-5.9921,-6.0243,-6.0207,-5.9902,-5.9902,-5.9902,-5.9902,-5.9902,-5.9712,-5.9352,-5.8502,-5.7668,-5.6834,-5.6,-5.5356,-5.4901,-5.4901,-5.4901,-5.4901,-5.4901,-5.4901,-5.4901,-5.4901,-5.4901,-5.4901,-5.4901,-5.4901,-5.528,-5.6929,-5.7403,-5.7801,-5.9468,-5.9902,-5.9902,-5.9902,-5.9947,-6.0026,-6.0026,-6.0523,-6.1186,-6.1963,-6.2739,-6.3636,-6.4802,-6.5257,-6.5644,-6.6127,-6.6205,-6.6205,-6.6205,-6.576,-6.547,-6.547,-6.5006,-6.4696,-6.4696,-6.518,-6.547,-6.547,-6.4967,-6.4155,-6.2955,-6.1601,-6.0151,-5.8632,-5.723,-5.6332,-5.6012,-5.6012,-5.6012,-5.6012,-5.6012,-5.6012,-5.6012,-5.6012,-5.6012,-5.6012,-5.6012,-5.6012,-5.6012,-5.6012,-5.6012,-5.6012,-5.6012,-5.6012,-5.6012,-6.2389,-6.2389,-6.2389,-6.2389,-6.2389,-6.2389,-6.2389,-6.2389,-6.2389,-6.2389,-6.3429,-6.4168,-6.4168,-6.4168,-6.4263,-6.4509,-6.4528,-6.4528,-6.4528,-6.4528,-6.4415,-6.4187,-6.3563,-6.3241,-6.3241,-6.2444,-6.1724,-6.1098,-6.0852,-6.034,-5.956,-5.956,-5.9674,-5.9902,-5.9902,-5.9902,-5.9902,-5.9902,-5.9902,-5.9845,-5.903,-5.8331,-5.7668,-5.6588,-5.5811,-5.5242,-5.4996,-5.4901,-5.4901,-5.4901,-5.4901,-5.4901,-5.4901,-5.4901,-5.4901,-5.4901,-5.5091,-5.5583,-5.7005,-5.7592,-5.8123,-5.956,-5.9902,-5.9902,-5.9902,-5.9902,-5.9902,-5.9902,-6.0053,-6.0499,-6.1445,-6.1897,-6.2566,-6.3999,-6.4445,-6.4812,-6.5373,-6.545,-6.545,-6.545,-6.4948,-6.4629,-6.4629,-6.4068,-6.37,-6.37,-6.4019,-6.4348,-6.4609,-6.4029,-6.3304,-6.2433,-6.077,-5.9474,-5.8613,-5.6863,-5.6012,-5.6012,-5.6012,-5.6012,-5.6012,-5.6012,-5.6012,-5.6012,-5.6012,-5.6012,-5.6012,-5.6012,-5.6012,-5.6012,-5.6012,-5.6012,-5.6012,-5.6012,-5.6012,-5.6012,-6.2389,-6.2389,-6.2389,-6.2389,-6.2389,-6.2389,-6.2389,-6.2389,-6.2389,-6.2389,-6.2408,-6.2427,-6.2427,-6.2427,-6.2749,-6.3544,-6.362,-6.362,-6.362,-6.362,-6.326,-6.2446,-6.2408,-6.2408,-6.2408,-6.1553,-6.1115,-6.1098,-6.0283,-5.9503,-5.8726,-5.8726,-5.9143,-5.9902,-5.9902,-5.9902,-5.9902,-5.9902,-5.9902,-5.9845,-5.903,-5.8691,-5.8499,-5.6834,-5.619,-5.6076,-5.5204,-5.4901,-5.4901,-5.4901,-5.4901,-5.4901,-5.4901,-5.4901,-5.4901,-5.4901,-5.5508,-5.636,-5.7175,-5.8028,-5.8881,-5.9712,-5.9902,-5.9902,-5.9902,-5.9902,-5.9902,-5.9902,-6.0053,-6.027,-6.0488,-6.138,-6.2161,-6.2404,-6.3149,-6.3719,-6.3739,-6.3739,-6.3739,-6.3739,-6.3719,-6.3719,-6.3719,-6.3719,-6.37,-6.37,-6.2917,-6.282,-6.3681,-6.3719,-6.3304,-6.2433,-6.077,-5.9474,-5.8613,-5.6863,-5.6012,-5.6012,-5.6012,-5.6012,-5.6012,-5.6012,-5.6012,-5.6012,-5.6012,-5.6012,-5.6012,-5.6012,-5.6012,-5.6012,-5.6012,-5.6012,-5.6012,-5.6012,-5.6012,-5.6012,-6.07,-6.07,-6.07,-6.07,-6.07,-6.07,-6.07,-6.07,-6.0492,-5.9942,-5.9885,-5.9658,-5.907,-6.0492,-6.1401,-6.1098,-6.1572,-6.1894,-6.1894,-6.2463,-6.2654,-6.2408,-6.1837,-6.1515,-6.1515,-6.07,-6.0264,-6.0264,-6.0034,-5.9772,-5.9522,-5.9522,-5.9639,-5.9902,-5.9902,-5.9902,-5.9902,-5.9902,-5.9902,-5.9883,-5.9636,-5.92,-5.8635,-5.8104,-5.7535,-5.6986,-5.6702,-5.6607,-5.6607,-5.6607,-5.6607,-5.6607,-5.6607,-5.6228,-5.5792,-5.5792,-5.636,-5.7194,-5.8047,-5.8483,-5.8881,-5.9712,-5.9902,-5.9902,-5.9902,-5.9902,-5.9902,-5.9902,-5.9966,-6.0053,-6.027,-6.0559,-6.1115,-6.2042,-6.2425,-6.2853,-6.3603,-6.37,-6.37,-6.37,-6.3168,-6.282,-6.282,-6.2278,-6.193,-6.193,-6.1679,-6.1892,-6.2762,-6.224,-6.1795,-6.1524,-5.988,-5.8874,-5.8613,-5.6863,-5.6012,-5.6012,-5.6012,-5.6012,-5.6012,-5.6012,-5.6012,-5.6012,-5.6012,-5.6012,-5.6012,-5.6012,-5.6012,-5.6012,-5.6012,-5.6012,-5.6012,-5.6012,-5.6012,-5.6012,-5.9902,-5.9902,-5.9902,-5.9902,-5.9902,-5.9902,-5.9902,-5.9639,-5.9276,-5.8767,-5.8407,-5.7876,-5.7043,-5.8331,-5.9298,-5.943,-5.9921,-6.0321,-6.0641,-6.1155,-6.1458,-6.1458,-6.0928,-6.0643,-6.0643,-6.0167,-5.9902,-5.9902,-5.9902,-5.9902,-5.9902,-5.9902,-5.9902,-5.9902,-5.9902,-5.9902,-5.9902,-5.9902,-5.9902,-5.9902,-5.9902,-5.9598,-5.9124,-5.8821,-5.835,-5.7839,-5.7516,-5.7403,-5.7403,-5.7403,-5.7403,-5.7403,-5.7403,-5.727,-5.7062,-5.6739,-5.7232,-5.8009,-5.854,-5.8919,-5.9276,-5.9772,-5.9902,-5.9902,-5.9902,-5.9902,-5.9902,-5.9902,-5.9902,-5.9947,-6.0169,-6.0213,-6.0479,-6.1356,-6.15,-6.1763,-6.2516,-6.2605,-6.2645,-6.2704,-6.224,-6.1911,-6.1911,-6.1427,-6.1099,-6.1099,-6.1099,-6.135,-6.1892,-6.1408,-6.1099,-6.1099,-5.9783,-5.8932,-5.8613,-5.7211,-5.6313,-5.6012,-5.6012,-5.6012,-5.6012,-5.6012,-5.6012,-5.6012,-5.6012,-5.6012,-5.6012,-5.6012,-5.6012,-5.6012,-5.6012,-5.6012,-5.6012,-5.6012,-5.6012,-5.6012,-5.9902,-5.9902,-5.9902,-5.9902,-5.9902,-5.9902,-5.9902,-5.9219,-5.8688,-5.8631,-5.7839,-5.7005,-5.619,-5.6114,-5.6739,-5.8309,-5.8483,-5.8878,-5.9658,-5.9788,-5.9828,-5.9902,-5.9902,-5.9902,-5.9902,-5.9902,-5.9902,-5.9902,-5.9902,-5.9902,-5.9902,-5.9902,-5.9902,-5.9902,-5.9902,-5.9902,-5.9902,-5.9902,-5.9902,-5.9902,-5.9902,-5.9902,-5.9826,-5.9086,-5.8783,-5.8672,-5.7858,-5.7573,-5.7573,-5.7573,-5.7573,-5.7573,-5.7573,-5.8123,-5.8597,-5.7744,-5.8085,-5.8783,-5.8783,-5.9317,-5.9902,-5.9902,-5.9902,-5.9902,-5.9902,-5.9902,-5.9902,-5.9902,-5.9902,-5.9966,-6.014,-6.0184,-6.0256,-6.0443,-6.0482,-6.0559,-6.0762,-6.0795,-6.088,-6.108,-6.1099,-6.1099,-6.1099,-6.1099,-6.1099,-6.1099,-6.1099,-6.1099,-6.1099,-6.1099,-6.1099,-6.1099,-6.0325,-5.9474,-5.8613,-5.7733,-5.6854,-5.6012,-5.6012,-5.6012,-5.6012,-5.6012,-5.6012,-5.6012,-5.6012,-5.6012,-5.6012,-5.6012,-5.6012,-5.6012,-5.6012,-5.6012,-5.6012,-5.6012,-5.6012,-5.6012,-5.9902,-5.9902,-5.9902,-5.9902,-5.9902,-5.9902,-5.9902,-5.9219,-5.8461,-5.7782,-5.6986,-5.6152,-5.5299,-5.5204,-5.5375,-5.5754,-5.6398,-5.7118,-5.7933,-5.8597,-5.9276,-5.9883,-5.9902,-5.9902,-5.9902,-5.9902,-5.9902,-5.9902,-5.9902,-5.9902,-5.9902,-5.9902,-5.9902,-5.9902,-5.9902,-5.9902,-5.9902,-5.9902,-5.9902,-5.9902,-5.9902,-5.9902,-5.9883,-5.9677,-5.9636,-5.9598,-5.9374,-5.9298,-5.9298,-5.9298,-5.9298,-5.9298,-5.9298,-5.9449,-5.9449,-5.8616,-5.8957,-5.9636,-5.9636,-5.975,-5.9902,-5.9902,-5.9902,-5.9902,-5.9902,-5.9902,-5.9902,-5.9902,-5.9902,-5.9918,-5.9947,-5.9963,-6.0041,-6.0242,-6.0265,-6.0384,-6.075,-6.0795,-6.088,-6.108,-6.1099,-6.1099,-6.1099,-6.1099,-6.1099,-6.1099,-6.1099,-6.1099,-6.1099,-6.1099,-6.1099,-6.1099,-6.0325,-5.9474,-5.8613,-5.7733,-5.6854,-5.6012,-5.6012,-5.6012,-5.6012,-5.6012,-5.6012,-5.6012,-5.6012,-5.6012,-5.6012,-5.6012,-5.6012,-5.6012,-5.6012,-5.6012,-5.6012,-5.6012,-5.6012,-5.6012,-5.9902,-5.9902,-5.9902,-5.9902,-5.9902,-5.9902,-5.9902,-5.8881,-5.7933,-5.746,-5.6341,-5.5432,-5.4958,-5.4901,-5.4901,-5.4901,-5.5337,-5.6114,-5.7308,-5.7839,-5.8635,-5.9847,-5.9902,-5.9902,-5.9902,-5.9902,-5.9902,-5.9902,-5.9902,-5.9902,-5.9902,-5.9902,-5.9902,-5.9902,-5.9902,-5.9902,-5.9902,-5.9902,-5.9902,-5.9902,-5.9902,-5.9902,-5.9902,-5.9902,-5.9902,-5.9902,-5.9902,-5.9902,-5.9902,-5.9902,-5.9902,-5.9902,-5.9902,-5.9902,-5.9809,-5.939,-5.956,-5.9902,-5.9902,-5.9902,-5.9902,-5.9902,-5.9902,-5.9902,-5.9902,-5.9902,-5.9902,-5.9902,-5.9902,-5.9902,-5.9902,-5.9902,-5.9934,-6.0057,-6.0068,-6.0213,-6.0608,-6.0669,-6.0762,-6.107,-6.1099,-6.1099,-6.1099,-6.1099,-6.1099,-6.1099,-6.1099,-6.1099,-6.1099,-6.1099,-6.1099,-6.1099,-6.0673,-6.0035,-5.9203,-5.7927,-5.6854,-5.6012,-5.6012,-5.6012,-5.6012,-5.6012,-5.6012,-5.6012,-5.6012,-5.6012,-5.6012,-5.6012,-5.6012,-5.6012,-5.6012,-5.6012,-5.6012,-5.6012,-5.6012,-5.6012,-5.9902,-5.9902,-5.9902,-5.9902,-5.9902,-5.9902,-5.9902,-5.8578,-5.7554,-5.7422,-5.6057,-5.5053,-5.492,-5.4901,-5.4958,-5.5091,-5.511,-5.5754,-5.7289,-5.7516,-5.8293,-5.9845,-5.9902,-5.9902,-5.9902,-5.9902,-5.9902,-5.9902,-5.9902,-5.9902,-5.9902,-5.9902,-5.9902,-5.9902,-5.9902,-5.9902,-5.9902,-5.9902,-5.9902,-5.9902,-5.9902,-5.9902,-5.9902,-5.9902,-5.9902,-5.9902,-5.9902,-5.9902,-5.9902,-5.9902,-5.9902,-5.9902,-5.9902,-5.9902,-5.9902,-5.9902,-5.9902,-5.9902,-5.9902,-5.9902,-5.9902,-5.9902,-5.9902,-5.9902,-5.9902,-5.9902,-5.9902,-5.9902,-5.9902,-5.9902,-5.9902,-5.9902,-5.9902,-5.9902,-5.9902,-6.0057,-6.0443,-6.0495,-6.0657,-6.1041,-6.1099,-6.1099,-6.1099,-6.1099,-6.1099,-6.1099,-6.1099,-6.1099,-6.1099,-6.1099,-6.1099,-6.1099,-6.1099,-6.0712,-5.9899,-5.8178,-5.6932,-5.6177,-5.6061,-5.6012,-5.6012,-5.6012,-5.6012,-5.6012,-5.6012,-5.6012,-5.6012,-5.6012,-5.6012,-5.6012,-5.6012,-5.6012,-5.6012,-5.6012,-5.6012,-5.6012,-5.9902,-5.9902,-5.9902,-5.9902,-5.9902,-5.9902,-5.9902,-5.9105,-5.8218,-5.7497,-5.6569,-5.5716,-5.4977,-5.4901,-5.5204,-5.5925,-5.6,-5.6398,-5.7327,-5.8085,-5.8919,-5.9864,-5.9902,-5.9902,-5.9902,-5.9902,-5.9902,-5.9902,-5.9902,-5.9902,-5.9902,-5.9902,-5.9902,-5.9902,-5.9902,-5.9902,-5.9902,-5.9902,-5.9902,-5.9902,-5.9902,-5.9902,-5.9902,-5.9902,-5.9902,-5.9902,-5.9902,-5.9902,-5.9902,-5.9902,-5.9902,-5.9902,-5.9902,-5.9902,-5.9902,-5.9902,-5.9902,-5.9902,-5.9902,-5.9902,-5.9902,-5.9902,-5.9902,-5.9902,-5.9902,-5.9902,-5.9902,-5.9902,-5.9902,-5.9902,-5.9902,-5.9902,-5.9902,-5.9902,-5.9902,-6.0057,-6.0443,-6.0495,-6.0657,-6.1041,-6.1099,-6.1099,-6.1099,-6.1099,-6.1099,-6.1099,-6.1099,-6.1099,-6.1099,-6.1099,-6.1099,-6.1099,-6.1099,-6.0712,-5.9899,-5.8178,-5.7222,-5.7086,-5.6351,-5.6012,-5.6012,-5.6012,-5.6012,-5.6012,-5.6012,-5.6012,-5.6012,-5.6012,-5.6012,-5.6012,-5.6012,-5.6012,-5.6012,-5.6012,-5.6012,-5.6012,-5.9902,-5.9902,-5.9902,-5.9902,-5.9902,-5.9902,-5.9902,-5.9219,-5.8388,-5.7516,-5.6702,-5.5868,-5.4996,-5.5318,-5.5754,-5.6152,-5.7024,-5.7687,-5.8066,-5.8464,-5.9067,-5.9864,-5.9902,-5.9902,-5.9902,-5.9902,-5.9902,-5.9902,-5.9902,-5.9902,-5.9902,-5.9902,-5.9902,-5.9902,-5.9902,-5.9902,-5.9902,-5.9902,-5.9902,-5.9902,-5.9902,-5.9902,-5.9902,-5.9902,-5.9902,-5.9902,-5.9902,-5.9902,-5.9902,-5.9902,-5.9902,-5.9902,-5.9902,-5.9902,-5.9902,-5.9902,-5.9902,-5.9902,-5.9902,-5.9902,-5.9902,-5.9902,-5.9902,-5.9902,-5.9902,-5.9902,-5.9902,-5.9902,-5.9902,-5.9902,-5.9902,-5.9902,-5.9902,-5.9902,-5.9902,-6.0057,-6.0443,-6.0495,-6.0657,-6.1041,-6.1099,-6.1099,-6.1099,-6.1099,-6.1099,-6.1099,-6.1099,-6.1099,-6.1099,-6.1099,-6.1099,-6.1099,-6.1099,-6.0712,-5.9899,-5.9106,-5.8236,-5.7299,-5.6893,-5.6448,-5.6012,-5.6012,-5.6012,-5.6012,-5.6012,-5.6012,-5.6012,-5.6012,-5.6012,-5.6012,-5.6012,-5.6012,-5.6012,-5.6012,-5.6012,-5.6012,-5.9902,-5.9902,-5.9902,-5.9902,-5.9902,-5.9902,-5.9902,-5.939,-5.8672,-5.7801,-5.7156,-5.6455,-5.5583,-5.6076,-5.655,-5.6758,-5.7952,-5.8783,-5.8957,-5.8992,-5.9241,-5.9883,-5.9902,-5.9902,-5.9902,-5.9902,-5.9918,-5.9963,-5.9963,-5.9994,-6.0041,-6.0041,-6.0041,-6.0041,-6.0041,-6.0041,-6.0041,-6.0041,-6.0041,-6.0041,-6.0041,-6.001,-5.9963,-5.9963,-5.995,-5.9902,-5.9902,-5.9902,-5.9902,-5.9902,-5.9902,-5.9902,-5.9902,-5.9902,-5.9902,-5.9902,-5.9902,-5.9902,-5.9902,-5.9902,-5.9902,-5.9902,-5.9902,-5.9902,-5.9902,-5.9902,-5.9902,-5.9902,-5.9902,-5.9902,-5.9902,-5.9902,-5.9902,-5.9902,-5.9902,-6.0057,-6.0443,-6.0495,-6.0657,-6.1041,-6.1099,-6.1099,-6.1099,-6.1099,-6.1099,-6.1099,-6.1099,-6.1099,-6.1099,-6.1099,-6.1099,-6.1099,-6.1099,-6.0809,-6.017,-5.9996,-5.9223,-5.7907,-5.7492,-5.6951,-5.6293,-5.6089,-5.6012,-5.6012,-5.6012,-5.6012,-5.6012,-5.6012,-5.6012,-5.6012,-5.6012,-5.6012,-5.6012,-5.6012,-5.6012,-5.6012,-5.9902,-5.9902,-5.9902,-5.9902,-5.9902,-5.9902,-5.9902,-5.9847,-5.9506,-5.8726,-5.8556,-5.818,-5.7308,-5.727,-5.763,-5.8445,-5.8631,-5.903,-5.9753,-5.9809,-5.9845,-5.9902,-5.9902,-5.9902,-5.9902,-5.9902,-5.9994,-6.0184,-6.0184,-6.0265,-6.0456,-6.0456,-6.0456,-6.0456,-6.0456,-6.0456,-6.0456,-6.0456,-6.0456,-6.0456,-6.0456,-6.0335,-6.0184,-6.0184,-6.0068,-5.9902,-5.9902,-5.9902,-5.9902,-5.9902,-5.9902,-5.9902,-5.9902,-5.9902,-5.9902,-5.9902,-5.9902,-5.9902,-5.9902,-5.9902,-5.9902,-5.9902,-5.9902,-5.9902,-5.9902,-5.9902,-5.9902,-5.9902,-5.9902,-5.9902,-5.9902,-5.9902,-5.9902,-5.9902,-5.9902,-6.0057,-6.0443,-6.0495,-6.0657,-6.1041,-6.1099,-6.1099,-6.1099,-6.1099,-6.1099,-6.1099,-6.1099,-6.1099,-6.1099,-6.1099,-6.1099,-6.1099,-6.1099,-6.1079,-6.1002,-6.0267,-5.9841,-5.9687,-5.8081,-5.726,-5.7183,-5.6371,-5.6012,-5.6012,-5.6012,-5.6012,-5.6012,-5.6012,-5.6012,-5.6012,-5.6012,-5.6012,-5.6012,-5.6012,-5.6012,-5.6012,-5.9902,-5.9902,-5.9902,-5.9902,-5.9902,-5.9902,-5.9902,-5.9902,-5.9601,-5.8805,-5.9127,-5.9127,-5.8293,-5.9089,-5.962,-5.9466,-5.9902,-6.011,-5.9921,-5.9902,-5.9902,-5.9902,-5.9902,-5.9902,-5.9902,-6.0007,-6.011,-6.0213,-6.0321,-6.043,-6.0495,-6.0495,-6.0495,-6.0495,-6.0495,-6.0495,-6.0495,-6.0495,-6.0495,-6.0495,-6.0495,-6.0456,-6.0376,-6.0237,-6.0154,-6.0068,-5.9931,-5.9902,-5.9902,-5.9902,-5.9902,-5.9902,-5.9902,-5.9902,-5.9902,-5.9902,-5.9902,-5.9902,-5.9902,-5.9902,-5.9902,-5.9902,-5.9902,-5.9902,-5.9902,-5.9902,-5.9902,-5.9902,-5.9902,-5.9902,-5.9902,-5.9902,-5.9902,-5.9902,-6.001,-6.0184,-6.0456,-6.0608,-6.0784,-6.107,-6.1099,-6.1099,-6.1099,-6.1099,-6.1099,-6.1099,-6.1099,-6.1099,-6.1099,-6.1099,-6.1099,-6.1099,-6.1099,-6.1099,-6.1099,-6.0809,-6.0383,-5.988,-5.9223,-5.8623,-5.8081,-5.7211,-5.6815,-5.6777,-5.6235,-5.6012,-5.6012,-5.6012,-5.6012,-5.6012,-5.6012,-5.6012,-5.6012,-5.6012,-5.6012,-5.6012,-5.9902,-5.9902,-5.9902,-5.9902,-5.9902,-5.9902,-5.9902,-6.011,-6.0091,-5.9525,-6.017,-6.0473,-5.9923,-6.0852,-6.1288,-6.0719,-6.1193,-6.1269,-6.0719,-6.0416,-6.0151,-5.9921,-5.9947,-5.9994,-5.9994,-6.0198,-6.0321,-6.039,-6.0533,-6.0633,-6.0692,-6.0692,-6.0692,-6.0692,-6.0692,-6.0692,-6.0692,-6.0692,-6.0692,-6.0692,-6.0692,-6.0657,-6.0584,-6.0443,-6.0349,-6.0284,-6.0144,-6.0057,-5.9994,-5.9994,-5.9947,-5.9902,-5.9902,-5.9902,-5.9902,-5.9902,-5.9902,-5.9902,-5.9902,-5.9902,-5.9902,-5.9902,-5.9902,-5.9902,-5.9902,-5.9902,-5.9902,-5.9902,-5.9902,-5.9902,-5.9902,-5.9902,-5.9918,-5.9979,-6.0095,-6.0293,-6.0559,-6.0716,-6.088,-6.108,-6.1099,-6.1099,-6.1099,-6.1099,-6.1099,-6.1099,-6.1099,-6.1099,-6.1099,-6.1099,-6.1099,-6.1099,-6.1099,-6.1099,-6.1099,-6.1099,-6.0828,-6.0267,-6.0016,-5.959,-5.8971,-5.812,-5.7714,-5.7656,-5.6786,-5.6409,-5.639,-5.61,-5.6012,-5.6012,-5.6012,-5.6012,-5.6012,-5.6012,-5.6012,-5.6012,-5.9902,-5.9902,-5.9902,-5.9902,-5.9921,-5.9921,-5.9921,-6.0603,-6.1115,-6.1115,-6.1875,-6.2408,-6.2408,-6.2408,-6.2408,-6.2408,-6.2408,-6.2408,-6.2406,-6.1591,-6.0774,-5.9958,-6.0099,-6.0213,-6.0194,-6.0403,-6.0596,-6.0795,-6.0795,-6.0901,-6.1099,-6.1099,-6.1099,-6.1099,-6.1099,-6.1099,-6.1099,-6.1099,-6.1099,-6.1099,-6.1099,-6.0982,-6.0795,-6.0795,-6.0681,-6.0508,-6.0495,-6.0376,-6.0194,-6.0213,-6.0068,-5.9902,-5.9902,-5.9902,-5.9902,-5.9902,-5.9902,-5.9902,-5.9902,-5.9902,-5.9902,-5.9902,-5.9902,-5.9902,-5.9902,-5.9902,-5.9902,-5.9902,-5.9902,-5.9902,-5.9902,-5.9902,-5.9982,-6.0169,-6.0194,-6.0349,-6.0739,-6.0795,-6.088,-6.108,-6.1099,-6.1099,-6.1099,-6.1099,-6.1099,-6.1099,-6.1099,-6.1099,-6.1099,-6.1099,-6.1099,-6.1099,-6.1099,-6.1099,-6.1099,-6.1099,-6.1099,-6.1099,-6.0286,-5.9899,-5.988,-5.901,-5.8613,-5.8565,-5.7695,-5.7299,-5.7222,-5.6371,-5.6012,-5.6012,-5.6012,-5.6012,-5.6012,-5.6012,-5.6012,-5.6012,-5.9902,-5.9902,-5.9902,-5.9902,-6.0359,-6.0738,-6.0738,-6.1458,-6.2008,-6.2008,-6.2728,-6.3241,-6.3241,-6.3789,-6.3922,-6.3298,-6.3241,-6.3059,-6.2646,-6.2376,-6.2186,-6.2151,-6.09,-6.0265,-6.0403,-6.0608,-6.0739,-6.0795,-6.0932,-6.1032,-6.1099,-6.1099,-6.1099,-6.1099,-6.1099,-6.1099,-6.1099,-6.1099,-6.1099,-6.1099,-6.1099,-6.107,-6.0992,-6.0858,-6.0762,-6.0692,-6.0559,-6.0469,-6.039,-6.0237,-6.0154,-6.0084,-5.9931,-5.9902,-5.9902,-5.9902,-5.9902,-5.9902,-5.9902,-5.9902,-5.9902,-5.9902,-5.9902,-5.9902,-5.9902,-5.9902,-5.9902,-5.9902,-5.9902,-5.995,-6.0084,-5.9994,-6.001,-6.0349,-6.0416,-6.0508,-6.0762,-6.0911,-6.1022,-6.1089,-6.1099,-6.1099,-6.1099,-6.1099,-6.1099,-6.1099,-6.1099,-6.1099,-6.1099,-6.1099,-6.1099,-6.1099,-6.1099,-6.1099,-6.1099,-6.1099,-6.1099,-6.1099,-6.0867,-6.0731,-6.0712,-5.988,-5.9513,-5.9455,-5.8584,-5.7869,-5.728,-5.7009,-5.6545,-5.6012,-5.6012,-5.6012,-5.6012,-5.6012,-5.6012,-5.6012,-5.9902,-6.0167,-6.0359,-6.0359,-6.106,-6.161,-6.161,-6.233,-6.2862,-6.2862,-6.36,-6.4111,-6.4111,-6.4585,-6.4699,-6.4168,-6.4111,-6.3871,-6.3249,-6.3207,-6.3222,-6.3207,-6.2087,-6.1352,-6.1139,-6.1326,-6.1259,-6.0911,-6.1032,-6.1099,-6.1099,-6.1099,-6.1099,-6.1099,-6.1099,-6.1099,-6.1099,-6.1099,-6.1099,-6.1099,-6.1099,-6.1099,-6.1089,-6.0953,-6.0911,-6.0901,-6.0773,-6.0681,-6.0608,-6.0482,-6.0335,-6.0198,-6.014,-6.0026,-5.9918,-5.9994,-5.9947,-5.9902,-5.9902,-5.9902,-5.9902,-5.9902,-5.9902,-5.9902,-5.9902,-5.9902,-5.9918,-6.001,-6.0026,-6.0084,-6.0279,-6.0227,-6.0242,-6.0571,-6.0621,-6.0692,-6.089,-6.1022,-6.1099,-6.1099,-6.1099,-6.1099,-6.1099,-6.1099,-6.1099,-6.1099,-6.1099,-6.1099,-6.1099,-6.1099,-6.1099,-6.1099,-6.1099,-6.1099,-6.1099,-6.1099,-6.1099,-6.1099,-6.1099,-6.1099,-6.1079,-6.0596,-6.0364,-6.0325,-5.9474,-5.8816,-5.8275,-5.757,-5.699,-5.6467,-5.6119,-5.6012,-5.6012,-5.6012,-5.6012,-5.6012,-5.9999,-6.0643,-6.1212,-6.1212,-6.1932,-6.2502,-6.2502,-6.3185,-6.3715,-6.3715,-6.4415,-6.4907,-6.4907,-6.4907,-6.4907,-6.4907,-6.4925,-6.4702,-6.4176,-6.4169,-6.401,-6.3669,-6.3653,-6.3257,-6.2378,-6.2451,-6.2124,-6.1331,-6.1331,-6.1331,-6.1331,-6.1331,-6.1292,-6.1215,-6.1215,-6.1176,-6.1099,-6.1099,-6.1099,-6.1099,-6.1099,-6.1099,-6.1099,-6.1099,-6.1099,-6.1099,-6.1099,-6.0982,-6.0817,-6.0814,-6.054,-6.0251,-6.0443,-6.0256,-5.9994,-6.0169,-6.0099,-5.9969,-6.0029,-6.0048,-6.005,-6.011,-6.0145,-6.0105,-5.9972,-5.9934,-5.9979,-6.0184,-6.0242,-6.0279,-6.0495,-6.0508,-6.0571,-6.0784,-6.0806,-6.0869,-6.108,-6.1099,-6.1099,-6.1099,-6.1099,-6.1099,-6.1099,-6.1099,-6.1099,-6.1099,-6.1099,-6.1099,-6.1099,-6.1099,-6.1099,-6.1099,-6.1099,-6.1099,-6.1099,-6.1099,-6.1099,-6.1099,-6.1099,-6.1099,-6.1099,-6.1099,-6.1099,-6.106,-6.0325,-5.9977,-5.9783,-5.8197,-5.7434,-5.7222,-5.6429,-5.607,-5.6012,-5.6012,-5.6012,-5.6012,-6.0849,-6.1534,-6.2122,-6.2122,-6.2804,-6.3336,-6.3336,-6.4073,-6.4623,-6.4623,-6.4794,-6.4907,-6.4907,-6.4907,-6.4907,-6.4907,-6.504,-6.5172,-6.525,-6.5396,-6.5522,-6.5582,-6.5592,-6.5206,-6.4394,-6.3758,-6.3333,-6.3139,-6.3139,-6.3139,-6.3139,-6.3139,-6.2762,-6.2124,-6.2124,-6.1737,-6.1099,-6.1099,-6.1099,-6.1099,-6.1099,-6.1099,-6.1099,-6.1099,-6.1099,-6.1099,-6.1099,-6.108,-6.1012,-6.0858,-6.0645,-6.0443,-6.0482,-6.0443,-6.0376,-6.0416,-6.0403,-6.0474,-6.1008,-6.1138,-6.1263,-6.1736,-6.1983,-6.174,-6.0429,-6.0125,-6.0198,-6.039,-6.043,-6.0495,-6.0692,-6.0608,-6.0621,-6.0982,-6.0901,-6.0869,-6.108,-6.1099,-6.1099,-6.1099,-6.1099,-6.1099,-6.1099,-6.1099,-6.1099,-6.1099,-6.1099,-6.1099,-6.1099,-6.1099,-6.1099,-6.1099,-6.1099,-6.1099,-6.1099,-6.1099,-6.1099,-6.1099,-6.1099,-6.1099,-6.1099,-6.1099,-6.1099,-6.1099,-6.0925,-6.048,-5.9861,-5.9493,-5.8526,-5.728,-5.7086,-5.6603,-5.6012,-5.6012,-5.6012,-5.6012,-6.1724,-6.2406,-6.2957,-6.2957,-6.3658,-6.4225,-6.4225,-6.4623,-6.4907,-6.4907,-6.4907,-6.4907,-6.4907,-6.4907,-6.4941,-6.5023,-6.5153,-6.5348,-6.5705,-6.5851,-6.5982,-6.6194,-6.6205,-6.5992,-6.5586,-6.5122,-6.4513,-6.37,-6.37,-6.37,-6.37,-6.37,-6.3468,-6.3013,-6.3013,-6.2762,-6.2336,-6.2336,-6.2336,-6.2336,-6.2336,-6.2336,-6.2336,-6.2336,-6.2336,-6.2336,-6.2336,-6.2336,-6.2327,-6.2228,-6.2039,-6.1899,-6.1994,-6.1899,-6.1761,-6.1862,-6.1825,-6.1818,-6.2155,-6.2261,-6.2347,-6.2669,-6.2805,-6.2629,-6.1616,-6.1483,-6.1636,-6.1831,-6.1887,-6.1947,-6.2146,-6.1756,-6.1475,-6.1689,-6.1282,-6.0982,-6.1089,-6.1099,-6.1099,-6.1099,-6.1099,-6.1099,-6.1099,-6.1099,-6.1099,-6.1099,-6.1099,-6.1099,-6.1099,-6.1099,-6.1099,-6.1099,-6.1099,-6.1099,-6.1099,-6.1099,-6.1099,-6.1099,-6.1099,-6.1099,-6.1099,-6.1099,-6.1099,-6.1099,-6.1099,-6.0867,-6.0441,-6.0054,-5.9358,-5.8468,-5.7608,-5.7009,-5.6564,-5.6139,-5.6012,-5.6012,-6.2597,-6.326,-6.381,-6.381,-6.4434,-6.4907,-6.4907,-6.4907,-6.4907,-6.4907,-6.4907,-6.4907,-6.4907,-6.4924,-6.5025,-6.5182,-6.5272,-6.548,-6.5869,-6.5936,-6.6036,-6.6194,-6.6205,-6.6205,-6.6205,-6.6205,-6.5508,-6.4126,-6.4126,-6.4126,-6.4126,-6.4126,-6.4048,-6.3932,-6.3932,-6.3835,-6.37,-6.37,-6.37,-6.37,-6.37,-6.37,-6.37,-6.37,-6.37,-6.37,-6.37,-6.37,-6.37,-6.37,-6.359,-6.3486,-6.3661,-6.3475,-6.3245,-6.3399,-6.333,-6.3226,-6.3322,-6.3367,-6.3373,-6.3501,-6.3552,-6.352,-6.3308,-6.3195,-6.322,-6.3399,-6.3453,-6.3497,-6.3671,-6.311,-6.2627,-6.2627,-6.2027,-6.1543,-6.1543,-6.1543,-6.1543,-6.1543,-6.1543,-6.1543,-6.1543,-6.1543,-6.1485,-6.1331,-6.1331,-6.1253,-6.1118,-6.1099,-6.1099,-6.1099,-6.1099,-6.1099,-6.1099,-6.1099,-6.1099,-6.1099,-6.1099,-6.1099,-6.1099,-6.1099,-6.1099,-6.1099,-6.1099,-6.1099,-6.106,-6.0383,-6.0016,-5.9745,-5.8139,-5.7434,-5.7183,-5.6313,-5.6012,-5.6012,-6.3431,-6.413,-6.4718,-6.4718,-6.4832,-6.4907,-6.4907,-6.4907,-6.4907,-6.4907,-6.4907,-6.4907,-6.4907,-6.5057,-6.5166,-6.5198,-6.5564,-6.5832,-6.59,-6.605,-6.6165,-6.6205,-6.6205,-6.6205,-6.6205,-6.6205,-6.6089,-6.5857,-6.5857,-6.5857,-6.5857,-6.5857,-6.5489,-6.4822,-6.4822,-6.4416,-6.37,-6.37,-6.37,-6.37,-6.37,-6.37,-6.37,-6.37,-6.37,-6.37,-6.37,-6.37,-6.37,-6.37,-6.3681,-6.3651,-6.369,-6.3671,-6.3621,-6.3641,-6.3631,-6.3735,-6.4255,-6.44,-6.4537,-6.5106,-6.5391,-6.5517,-6.5473,-6.4369,-6.343,-6.3611,-6.3671,-6.3671,-6.369,-6.3603,-6.3526,-6.3526,-6.3429,-6.3352,-6.3352,-6.3352,-6.3352,-6.3352,-6.3352,-6.3352,-6.3352,-6.3352,-6.3033,-6.2278,-6.222,-6.1911,-6.1137,-6.1099,-6.1099,-6.1099,-6.1099,-6.1099,-6.1099,-6.1099,-6.1099,-6.1099,-6.1099,-6.1099,-6.1099,-6.1099,-6.1099,-6.1099,-6.1099,-6.1099,-6.1099,-6.0983,-6.0538,-5.9803,-5.8797,-5.7965,-5.7183,-5.6313,-5.6012,-5.6012,-6.3601,-6.3562,-6.3505,-6.3505,-6.3505,-6.3505,-6.3505,-6.3505,-6.3505,-6.3505,-6.3505,-6.3676,-6.413,-6.4785,-6.5322,-6.5564,-6.5782,-6.5947,-6.605,-6.6144,-6.6205,-6.6205,-6.6205,-6.6205,-6.6205,-6.6205,-6.6205,-6.6205,-6.6205,-6.6205,-6.6205,-6.6205,-6.6011,-6.5663,-6.5663,-6.545,-6.5102,-6.5102,-6.5102,-6.5102,-6.5102,-6.5102,-6.5102,-6.5102,-6.5102,-6.5102,-6.5102,-6.5102,-6.5102,-6.5102,-6.5102,-6.5102,-6.5102,-6.5102,-6.5102,-6.5102,-6.5102,-6.515,-6.5426,-6.5501,-6.5556,-6.5863,-6.5994,-6.608,-6.608,-6.5501,-6.4981,-6.5073,-6.5102,-6.5102,-6.5102,-6.4715,-6.4435,-6.4435,-6.4029,-6.37,-6.37,-6.37,-6.37,-6.37,-6.37,-6.37,-6.37,-6.37,-6.3545,-6.3149,-6.3129,-6.2955,-6.2569,-6.2549,-6.2549,-6.2549,-6.2549,-6.2549,-6.2549,-6.2066,-6.1834,-6.1814,-6.1331,-6.1099,-6.1099,-6.1099,-6.1099,-6.1099,-6.1099,-6.1099,-6.1099,-6.1099,-6.0886,-6.0499,-5.9648,-5.8507,-5.7183,-5.6313,-5.6012,-5.6012]},{"header":{"parameterUnit":"m.s-1","parameterCategory":1,"la1":30.6,"la2":28.766,"lo1":-90.7593,"lo2":-88.6598,"dy":0.0162,"dx":0.0183,"nx":116,"ny":114,"refTime":"2023-03-23T06:00:00:Z","depth":0,"parameterNumber":3,"parameterNumberName":"V-component_of_WINDS"},"data":[0.0,0.0,0.0,0.0,0.0,0.0,0.0,0.0,0.0,0.0,0.0,0.0,0.0,0.0,0.0,0.0,0.0,0.0,0.0,0.0,0.0,0.0,0.0,0.0,0.0,0.0,0.0,0.0,0.0,0.0,0.0,0.0,0.0,0.0,0.0,0.0,0.0,0.0,0.0,0.0,0.0,0.0,0.0,0.0,0.0,0.0,0.0,0.0,0.0,0.0,0.0,0.0,0.0,0.0,0.0,0.0,0.0,0.0,0.0,0.0,0.0,0.0,0.0,0.0,0.0,0.0,0.0,0.0,0.0,0.0,0.0,0.0,0.0,0.0,0.0,0.0,0.0,0.0,0.0,0.0,0.0,0.0,0.0,0.0,0.0,0.0,0.0,0.0,0.0,0.0,0.0,0.0,0.0,0.0,0.0,0.0,0.0,0.0,0.0,0.0,0.0,0.0,0.0,0.0,0.0,0.0,0.0,0.0,0.0,0.0,0.0,0.0,0.0,0.0,0.0,0.0,0.0,0.0,0.0,0.0,0.0,0.0,0.0,0.0,0.0,0.0,0.0,0.0,0.0,0.0,0.0,0.0,0.0,0.0,0.0,0.0,0.0,0.0,0.0,0.0,0.0,0.0,0.0,0.0,0.0,0.0,0.0,0.0,0.0,0.0,0.0,0.0,0.0,0.0,0.0,0.0,0.0,0.0,0.0,0.0,0.0,0.0,0.0,0.0,0.0,0.0,0.0,0.0,0.0,0.0,0.0,0.0,0.0,0.0,0.0,0.0,0.0,0.0,0.0,0.0,0.0,0.0,0.0,0.0,0.0,0.0,0.0,0.0,0.0,0.0,0.0,0.0,0.0,0.0,0.0,0.0,0.0,0.0,0.0,0.0,0.0,0.0,0.0,0.0,0.0,0.0,0.0,0.0,0.0,0.0,0.0,0.0,0.0,0.0,0.0,0.0,0.0,0.0,0.0,0.0,0.0,0.0,0.0,0.0,0.0,0.0,0.0,0.0,0.0,0.0,0.0,0.0,0.0,0.0,0.0,0.0,0.0,0.0,0.0,0.0,0.0,0.0,0.0,0.0,0.0,0.0,0.0,0.0,0.0,0.0,0.0,0.0,0.0,0.0,0.0,0.0,0.0,0.0,0.0,0.0,0.0,0.0,0.0,0.0,0.0,0.0,0.0,0.0,0.0,0.0,0.0,0.0,0.0,0.0,0.0,0.0,0.0,0.0,0.0,0.0,0.0,0.0,0.0,0.0,0.0,0.0,0.0,0.0,0.0,0.0,0.0,0.0,0.0,0.0,0.0,0.0,0.0,0.0,0.0,0.0,0.0,0.0,0.0,0.0,0.0,0.0,0.0,0.0,0.0,0.0,0.0,0.0,0.0,0.0,0.0,0.0,0.0,0.0,0.0,0.0,0.0,0.0,0.0,0.0,0.0,0.0,0.0,0.0,0.0,0.0,0.0,0.0,0.0,0.0,0.0,0.0,0.0,0.0,0.0,0.0,0.0,0.0,0.0,0.0,0.0,0.0,0.0,0.0,0.0,0.0,0.0,0.0,0.0,0.0,0.0,0.0,0.0,0.0,0.0,0.0,0.0,0.0,0.0,0.0,0.0,0.0,0.0,0.0,0.0,0.0,0.0,0.0,0.0,0.0,0.0,0.0,0.0,0.0,0.0,0.0,0.0,0.0,0.0,0.0,0.0,0.0,0.0,0.0,0.0,0.0,0.0,0.0,0.0,0.0,0.0,0.0,0.0,0.0,0.0,0.0,0.0,0.0,0.0,0.0,0.0,0.0,0.0,0.0,0.0,0.0,0.0,0.0,0.0,0.0,0.0,0.0,0.0,0.0,0.0,0.0,0.0,0.0,0.0,0.0,0.0,0.0,0.0,0.0,0.0,0.0,0.0,0.0,0.0,0.0,0.0,0.0,0.0,0.0,0.0,0.0,0.0,0.0,0.0,0.0,0.0,0.0,0.0,0.0,0.0,0.0,0.0,0.0,0.0,0.0,0.0,0.0,0.0,0.0,0.0,0.0,0.0,0.0,0.0,0.0,0.0,0.0,0.0,0.0,0.0,0.0,0.0,0.0,0.0,0.0,0.0,0.0,0.0,0.0,0.0,0.0,0.0,0.0,0.0,0.0,0.0,0.0,0.0,0.0,0.0,0.0,0.0,0.0,0.0,0.0,0.0,0.0,0.0,0.0,0.0,0.0,0.0,0.0,0.0,0.0,0.0,0.0,0.0,0.0,0.0,0.0,0.0,0.0,0.0,0.0,0.0,0.0,0.0,0.0,0.0,0.0,0.0,0.0,0.0,0.0,0.0,0.0,0.0,0.0,0.0,0.0,0.0,0.0,0.0,0.0,0.0,0.0,0.0,0.0,0.0,0.0,0.0,0.0,0.0,0.0,0.0,0.0,0.0,0.0,0.0,0.0,0.0,0.0,0.0,0.0,0.0,0.0,0.0,0.0,0.0,0.0,0.0,0.0,0.0,0.0,0.0,0.0,0.0,0.0,0.0,0.0,0.0,0.0,0.0,0.0,0.0,0.0,0.0,0.0,0.0,0.0,0.0,0.0,0.0,0.0,0.0,0.0,0.0,0.0,0.0,0.0,0.0,0.0,0.0,0.0,0.0,0.0,0.0,0.0,0.0,0.0,0.0,0.0,0.0,0.0,0.0,0.0,0.0,0.0,0.0,0.0,0.0,0.0,0.0,0.0,0.0,0.0,0.0,0.0,0.0,0.0,0.0,0.0,0.0,0.0,0.0,0.0,0.0,0.0,0.0,0.0,0.0,0.0,0.0,0.0,0.0,0.0,0.0,0.0,0.0,0.0,0.0,0.0,0.0,0.0,0.0,0.0,0.0,0.0,0.0,0.0,0.0,0.0,0.0,0.0,0.0,0.0,0.0,0.0,0.0,0.0,0.0,0.0,0.0,0.0,0.0,0.0,0.0,0.0,0.0,0.0,0.0,0.0,0.0,0.0,0.0,0.0,0.0,0.0,0.0,0.0,0.0,0.0,0.0,0.0,0.0,0.0,0.0,0.0,0.0,0.0,0.0,0.0,0.0,0.0,0.0,0.0,0.0,0.0,0.0,0.0,0.0,0.0,0.0,0.0,0.0,0.0,0.0,0.0,0.0,0.0,0.0,0.0,0.0,0.0,0.0,0.0,0.0,0.0,0.0,0.0,0.0,0.0,0.0,0.0,0.0,0.0,0.0,0.0,0.0,0.0,0.0,0.0,0.0,0.0,0.0,0.0,0.0,0.0,0.0,0.0,0.0,0.0,0.0,0.0,0.0,0.0,0.0,0.0,0.0,0.0,0.0,0.0,0.0,0.0,0.0,0.0,0.0,0.0,0.0,0.0,0.0,0.0,0.0,0.0,0.0,0.0,0.0,0.0,0.0,0.0,0.0,0.0,0.0,0.0,0.0,0.0,0.0,0.0,0.0,0.0,0.0,0.0,0.0,0.0,0.0,0.0,0.0,0.0,0.0,0.0,0.0,0.0,0.0,0.0,0.0,0.0,0.0,0.0,0.0,0.0,0.0,0.0,0.0,0.0,0.0,0.0,0.0,0.0,0.0,0.0,0.0,0.0,0.0,0.0,0.0,0.0,0.0,0.0,0.0,0.0,0.0,0.0,0.0,0.0,0.0,0.0,0.0,0.0,0.0,0.0,0.0,0.0,0.0,0.0,0.0,0.0,0.0,0.0,0.0,0.0,0.0,0.0,0.0,0.0,0.0,0.0,0.0,0.0,0.0,0.0,0.0,0.0,0.0,0.0,0.0,0.0,0.0,0.0,0.0,0.0,0.0,0.0,0.0,0.0,0.0,0.0,0.0,0.0,0.0,0.0,0.0,0.0,0.0,0.0,0.0,0.0,0.0,0.0,0.0,0.0,0.0,0.0,0.0,0.0,0.0,0.0,0.0,0.0,0.0,0.0,0.0,0.0,0.0,0.0,0.0,0.0,0.0,0.0,0.0,0.0,0.0,0.0,0.0,0.0,0.0,0.0,0.0,0.0,0.0,0.0,0.0,0.0,0.0,0.0,0.0,0.0,0.0,0.0,0.0,0.0,0.0,0.0,0.0,0.0,0.0,0.0,0.0,0.0,0.0,0.0,0.0,0.0,0.0,0.0,0.0,0.0,0.0,0.0,0.0,0.0,0.0,0.0,0.0,0.0,0.0,0.0,0.0,0.0,0.0,0.0,0.0,0.0,0.0,0.0,0.0,0.0,0.0,0.0,0.0,0.0,0.0,0.0,0.0,0.0,0.0,0.0,0.0,0.0,0.0,0.0,0.0,0.0,0.0,0.0,0.0,0.0,0.0,0.0,0.0,0.0,0.0,0.0,0.0,0.0,0.0,0.0,0.0,0.0,0.0,0.0,0.0,0.0,0.0,0.0,0.0,0.0,0.0,0.0,0.0,0.0,0.0,0.0,0.0,0.0,0.0,0.0,0.0,0.0,0.0,0.0,0.0,0.0,0.0,0.0,0.0,0.0,0.0,0.0,0.0,0.0,0.0,0.0,0.0,0.0,0.0,0.0,0.0,0.0,0.0,0.0,0.0,0.0,0.0,0.0,0.0,0.0,0.0,0.0,0.0,0.0,0.0,0.0,0.0,0.0,0.0,0.0,0.0,0.0,0.0,0.0,0.0,0.0,0.0,0.0,0.0,0.0,0.0,0.0,0.0,0.0,0.0,0.0,0.0,0.0,0.0,0.0,0.0,0.0,0.0,0.0,0.0,0.0,0.0,0.0,0.0,0.0,0.0,0.0,0.0,0.0,0.0,0.0,0.0,0.0,0.0,0.0,0.0,0.0,0.0,0.0,0.0,0.0,0.0,0.0,0.0,0.0,0.0,0.0,0.0,0.0,0.0,0.0,0.0,0.0,0.0,0.0,0.0,0.0,0.0,0.0,0.0,0.0,0.0,0.0,0.0,0.0,0.0,0.0,0.0,0.0,0.0,0.0,0.0,0.0,0.0,0.0,0.0,0.0,0.0,0.0,0.0,0.0,0.0,0.0,0.0,0.0,0.0,0.0,0.0,0.0,0.0,0.0,0.0,0.0,0.0,0.0,0.0,0.0,0.0,0.0,0.0,0.0,0.0,0.0,0.0,0.0,0.0,0.0,0.0,0.0,0.0,0.0,0.0,0.0,0.0,0.0,0.0,0.0,0.0,0.0,0.0,0.0,0.0,0.0,0.0,0.0,0.0,0.0,0.0,0.0,0.0,0.0,0.0,0.0,0.0,0.0,0.0,0.0,0.0,0.0,0.0,0.0,0.0,0.0,0.0,0.0,0.0,0.0,0.0,0.0,0.0,0.0,0.0,0.0,0.0,0.0,0.0,0.0,0.0,0.0,0.0,0.0,0.0,0.0,0.0,0.0,0.0,0.0,0.0,0.0,0.0,0.0,0.0,0.0,0.0,0.0,0.0,0.0,0.0,0.0,0.0,0.0,0.0,0.0,0.0,0.0,0.0,0.0,0.0,0.0,0.0,0.0,0.0,0.0,0.0,0.0,0.0,0.0,0.0,0.0,0.0,0.0,0.0,0.0,0.0,0.0,0.0,0.0,0.0,0.0,0.0,0.0,0.0,0.0,0.0,0.0,0.0,0.0,0.0,0.0,0.0,0.0,0.0,0.0,0.0,0.0,0.0,0.0,0.0,0.0,0.0,0.0,0.0,0.0,0.0,0.0,0.0,0.0,0.0,0.0,0.0,0.0,0.0,0.0,0.0,0.0,0.0,0.0,0.0,0.0,0.0,0.0,0.0,0.0,0.0,0.0,0.0,0.0,0.0,0.0,0.0,0.0,0.0,0.0,0.0,0.0,0.0,0.0,0.0,0.0,0.0,0.0,0.0,0.0,0.0,0.0,0.0,0.0,0.0,0.0,0.0,0.0,0.0,0.0,0.0,0.0,0.0,0.0,0.0,0.0,0.0,0.0,0.0,0.0,0.0,0.0,0.0,0.0,0.0,0.0,0.0,0.0,0.0,0.0,0.0,0.0,0.0,0.0,0.0,0.0,0.0,0.0,0.0,0.0,0.0,0.0,0.0,0.0,0.0,0.0,0.0,0.0,0.0,0.0,0.0,0.0,0.0,0.0,0.0,0.0,0.9518,0.8369,0.0,0.0,0.0,0.0,0.0,0.0,0.0,0.0,0.0,0.0,0.0,0.0,0.0,0.0,0.0,0.0,0.0,0.0,0.0,0.0,0.0,0.0,0.0,0.0,0.0,0.0,0.0,0.0,0.0,0.0,0.0,0.0,0.0,0.0,0.0,0.0,0.0,0.0,0.0,1.7279,1.7279,1.7279,1.7037,1.652,0.0,0.0,0.0,0.0,0.0,0.0,0.0,0.0,0.0,0.0,0.0,0.0,0.0,0.0,0.0,0.0,0.0,0.0,0.0,0.0,0.0,0.0,0.0,0.0,0.0,0.0,0.0,0.0,0.0,0.0,0.0,0.0,0.0,0.0,0.0,0.0,0.0,0.0,0.0,0.0,0.0,0.0,0.0,0.0,0.0,0.0,0.0,0.0,0.0,0.0,0.0,0.0,0.0,0.0,0.0,0.0,0.0,0.0,0.0,0.0,0.0,0.0,0.0,0.0,0.0,0.0,0.0,0.0,0.0,0.0,1.1499,1.0176,0.0,0.0,0.0,0.0,0.0,0.0,0.0,0.0,0.0,0.0,0.0,0.0,0.0,0.0,0.0,0.0,0.0,0.0,0.0,0.0,0.0,0.0,0.0,0.0,0.0,0.0,0.0,0.0,0.0,0.0,0.0,0.0,0.0,0.0,0.0,0.0,0.0,0.0,0.0,0.0,1.7279,1.7279,1.7279,1.7293,1.7669,0.0,0.0,0.0,0.0,0.0,0.0,0.0,0.0,0.0,0.0,0.0,0.0,0.0,0.0,0.0,0.0,0.0,0.0,0.0,0.0,0.0,0.0,0.0,0.0,0.0,0.0,0.0,0.0,0.0,0.0,0.0,0.0,0.0,0.0,0.0,0.0,0.0,0.0,0.0,0.0,0.0,0.0,0.0,0.0,0.0,0.0,0.0,0.0,0.0,0.0,0.0,0.0,0.0,0.0,0.0,0.0,0.0,0.0,0.0,0.0,0.0,0.0,0.0,1.4108,1.4381,1.4381,1.4381,1.4381,1.4321,1.4078,1.2633,1.0468,1.0347,0.0,0.0,0.0,0.0,0.0,0.0,0.0,0.0,0.0,0.0,0.0,0.0,0.0,0.0,0.0,0.0,0.0,0.0,0.0,0.0,0.0,0.0,0.0,0.0,0.0,0.0,0.0,0.0,0.0,0.0,0.0,0.0,0.0,0.0,0.0,0.0,0.0,1.7279,1.7279,1.7279,1.7279,1.7293,1.7669,1.7969,1.8262,0.0,0.0,0.0,0.0,0.0,0.0,0.0,0.0,0.0,0.0,0.0,0.0,0.0,0.0,0.0,0.0,0.0,0.0,0.0,0.0,0.0,0.0,0.0,0.0,0.0,0.0,0.0,0.0,0.0,0.0,0.0,0.0,0.0,0.0,0.0,0.0,0.0,0.0,0.0,0.0,0.0,1.2419,1.2387,0.0,0.0,0.0,0.0,0.0,0.0,0.0,0.0,0.0,0.0,0.0,0.0,0.0,1.4761,1.5399,1.592,1.6183,1.6245,1.6762,1.7003,1.7003,1.7003,1.7003,1.7003,1.6944,0.0,1.1133,1.0528,0.0,0.0,0.0,0.0,0.0,0.0,0.0,0.0,0.0,0.0,0.0,0.0,0.0,0.0,0.0,0.0,0.0,0.0,0.0,0.0,0.0,0.0,0.0,0.0,0.0,0.0,0.0,0.0,0.0,0.0,0.0,0.0,0.0,0.0,0.0,0.0,1.7878,1.7831,1.7326,1.7878,1.7929,1.7618,1.7947,1.8167,1.8321,1.865,0.0,0.0,0.0,0.0,0.0,0.0,0.0,0.0,0.0,0.0,0.0,0.0,0.0,0.0,0.0,0.0,0.0,0.0,0.0,0.0,0.0,0.0,0.0,0.0,0.0,0.0,0.0,0.0,0.0,0.0,0.0,0.0,0.0,0.0,0.0,0.0,0.0,0.0,0.0,1.4029,1.3843,1.2931,1.3291,1.3332,0.0,0.0,0.0,0.0,0.0,0.0,0.0,0.0,0.0,1.4654,1.4874,1.5303,1.5891,1.6429,1.67,1.6706,1.7231,1.7485,1.7485,1.7485,1.7485,1.7485,1.7485,1.6042,1.3651,1.3228,1.1607,0.9451,0.0,0.0,0.0,0.0,0.8183,0.8241,0.0,0.0,0.0,0.0,0.0,0.0,0.0,0.0,0.0,0.0,0.0,0.0,0.0,0.0,0.0,1.6411,0.0,0.0,0.0,0.0,0.0,0.0,0.0,0.0,0.0,0.0,0.0,1.8056,1.8557,1.8604,1.8232,1.8699,1.8738,1.8327,1.8287,1.835,1.8445,1.8774,1.9199,0.0,0.0,0.0,0.0,0.0,0.0,0.0,0.0,0.0,0.0,0.0,0.0,0.0,0.0,0.0,0.0,0.0,0.0,0.0,0.0,0.0,0.0,0.0,0.0,0.0,0.0,0.0,0.0,0.0,0.0,0.0,0.0,0.0,0.0,0.0,0.0,0.0,0.0,1.4941,1.504,1.3675,1.4489,1.4647,0.0,0.0,0.0,0.0,0.0,0.0,1.4164,1.4541,1.4917,1.5298,1.525,1.5493,1.5988,1.6465,1.673,1.6803,1.7267,1.7485,1.7485,1.7485,1.7485,1.7485,1.7485,1.6944,1.6048,1.5386,1.3526,1.1012,1.0948,0.9983,0.8659,0.8909,0.879,0.8552,0.0,0.0,0.0,0.0,0.0,0.0,0.0,0.0,0.0,0.0,0.0,0.0,0.0,0.0,1.7632,1.65,1.8086,1.8768,0.0,0.0,0.0,0.0,0.0,0.0,0.0,0.0,0.0,2.0051,1.9193,1.9464,2.0678,1.9704,1.9479,1.9756,1.8769,1.8474,1.8789,1.9111,1.9272,1.933,0.0,0.0,0.0,0.0,0.0,0.0,0.0,0.0,0.0,0.0,0.0,0.0,0.0,0.0,0.0,0.0,0.0,0.0,0.0,0.0,0.0,0.0,0.0,0.0,0.0,0.0,0.0,0.0,0.0,0.0,0.0,0.0,0.0,0.0,0.0,0.0,0.0,0.0,0.0,1.4737,1.5862,0.0,0.0,0.0,0.0,1.6127,1.638,1.6539,1.6539,1.634,1.6187,1.6246,1.5992,1.6012,1.626,1.6549,1.6827,1.7074,1.7352,1.7485,1.7485,1.7485,1.7485,1.7485,1.7485,1.7479,1.7303,1.5747,1.4312,1.2997,1.2684,1.1784,1.0649,1.0649,0.9933,0.8915,0.0,0.0,0.0,0.0,0.0,0.0,0.0,0.0,0.0,0.0,0.0,0.0,0.0,1.8726,1.9312,1.8901,1.9482,1.9474,1.8505,0.0,0.0,0.0,0.0,0.0,0.0,0.0,1.9687,2.0187,2.0754,2.0668,1.9878,2.04,2.0127,1.92,1.9491,1.9439,1.9096,1.9001,1.9206,1.9654,1.9764,1.9749,0.0,0.0,0.0,0.0,0.0,0.0,0.0,0.0,0.0,0.0,0.0,0.0,0.0,0.0,0.0,0.0,0.0,0.0,0.0,0.0,0.0,0.0,0.0,0.0,0.0,0.0,0.0,0.0,0.0,0.0,0.0,0.0,0.0,0.0,0.0,0.0,0.0,1.6832,1.7846,0.0,1.6588,1.6888,1.699,1.6661,1.724,1.7483,1.7233,1.7509,1.7411,1.6882,1.6968,1.679,1.6278,1.673,1.7002,1.7092,1.7358,1.7485,1.7485,1.7485,1.7485,1.7485,1.7485,1.7485,1.7479,1.6879,1.5747,1.4431,1.4307,1.3343,1.2024,1.2273,1.1555,1.0475,0.0,0.0,0.0,0.0,0.0,0.0,0.0,0.0,0.0,0.0,0.0,1.9024,1.8926,2.0086,2.0692,2.0232,2.0818,2.0782,1.9832,0.0,0.0,0.0,2.0557,0.0,0.0,2.0542,2.093,2.1428,2.2153,2.2092,2.1285,2.1831,2.1561,2.0586,2.0929,2.062,1.982,1.9594,1.9553,1.9661,1.9771,1.9749,1.9735,0.0,0.0,0.0,0.0,0.0,0.0,0.0,0.0,0.0,0.0,0.0,0.0,0.0,0.0,0.0,0.0,0.0,0.0,0.0,0.0,0.0,0.0,0.0,0.0,0.0,0.0,0.0,0.0,0.0,0.0,0.0,0.0,0.0,0.0,1.9122,1.9087,1.8692,1.9587,1.9706,1.8252,1.841,1.8506,1.8258,1.8895,1.9188,1.9021,1.9134,1.8936,1.8397,1.8279,1.7998,1.7533,1.7854,1.8097,1.8199,1.8035,1.7948,1.7948,1.7655,1.7485,1.7485,1.7485,1.7485,1.7485,1.7485,1.6885,1.5924,1.5924,1.502,1.3701,1.3954,1.3177,1.2101,0.0,0.0,0.0,0.0,0.0,0.0,0.0,0.0,0.0,0.0,2.0484,2.0538,2.0286,2.1373,2.1641,2.0421,2.1996,2.2687,2.1739,2.2599,0.0,0.0,0.0,0.0,2.3086,2.1735,2.1933,2.3809,2.3335,2.3739,2.5021,2.4,2.3721,2.3989,2.2985,2.1937,2.0885,2.0936,2.0328,1.9301,1.9676,1.961,1.9381,0.0,0.0,0.0,0.0,0.0,0.0,0.0,0.0,0.0,0.0,0.0,0.0,0.0,0.0,0.0,0.0,0.0,0.0,0.0,0.0,0.0,0.0,0.0,0.0,0.0,0.0,0.0,0.0,0.0,0.0,0.0,0.0,0.0,1.91,2.0008,2.0535,2.0234,2.1106,2.1459,2.0815,2.0959,2.1143,2.1139,2.1372,2.1642,2.1957,2.1186,2.0745,2.0691,1.9942,1.9652,1.9893,1.9907,2.0012,2.027,1.9345,1.8874,1.8874,1.7948,1.7485,1.7485,1.7485,1.7485,1.7485,1.7485,1.7485,1.7485,1.7485,1.6767,1.5628,1.5628,1.4857,1.3545,0.0,0.0,0.0,0.0,0.0,0.0,0.0,0.0,0.0,0.0,2.1338,2.1382,2.1284,2.2192,2.2687,2.2325,2.2775,2.2687,2.1739,0.0,0.0,0.0,0.0,0.0,2.3027,2.3472,2.3907,2.4248,2.4435,2.4317,2.3943,2.3941,2.3583,2.2935,2.3434,2.2634,2.0936,2.1735,2.0979,1.9286,1.9426,1.936,1.933,0.0,0.0,0.0,0.0,0.0,0.0,0.0,0.0,0.0,0.0,0.0,0.0,0.0,0.0,0.0,0.0,0.0,0.0,0.0,0.0,0.0,0.0,0.0,0.0,0.0,0.0,0.0,0.0,0.0,0.0,0.0,2.2018,2.1957,2.1957,2.1386,2.1223,2.185,2.1987,2.1884,2.1467,2.1497,2.1496,2.149,2.1735,2.19,2.2027,2.1796,2.1349,2.0745,2.0663,2.0444,1.99,2.0075,2.0244,2.027,1.9345,1.8874,1.8874,1.7948,1.7485,1.7485,1.7485,1.7485,1.7485,1.7485,1.7485,1.7485,1.7485,1.7303,1.7003,1.7003,1.6166,1.4917,0.0,0.0,0.0,0.0,0.0,0.0,0.0,0.0,0.0,0.0,2.228,2.228,2.228,2.2775,2.3091,2.3091,2.3091,2.2872,2.2325,0.0,0.0,0.0,0.0,2.4013,2.3597,2.445,2.4837,2.4687,2.5137,2.5044,2.4417,2.4653,2.4461,2.3859,2.451,2.385,2.2291,2.2894,2.1937,1.999,2.0135,1.9859,1.9323,1.9784,1.9959,2.0091,2.1064,2.1415,2.1496,2.2008,0.0,0.0,0.0,0.0,0.0,0.0,0.0,0.0,0.0,0.0,0.0,0.0,0.0,0.0,0.0,0.0,0.0,0.0,0.0,0.0,0.0,0.0,0.0,0.0,2.2981,2.3106,2.3106,2.2411,2.2152,2.2726,2.2447,2.2111,2.192,2.1655,2.1529,2.1609,2.1818,2.2006,2.2245,2.2237,2.2065,2.1671,2.1815,2.1691,2.117,2.1371,2.1417,2.1417,2.009,1.9519,1.9461,1.8123,1.7485,1.7485,1.7485,1.7485,1.7485,1.7485,1.7485,1.7485,0.0,0.0,0.0,0.0,1.7003,1.6231,0.0,0.0,0.0,0.0,0.0,0.0,0.0,0.0,0.0,0.0,0.0,2.2959,2.3237,2.3017,2.2963,2.3237,2.3149,2.3105,0.0,0.0,0.0,2.4473,2.4492,2.4512,2.457,2.4941,2.5194,2.5194,2.5547,2.5693,2.5693,2.5693,2.5693,2.5693,2.5693,2.5147,2.4161,2.4012,2.283,2.1028,2.1189,2.049,1.9396,2.0003,2.0183,2.0307,2.1306,2.1664,2.1752,2.2111,0.0,0.0,0.0,0.0,0.0,0.0,0.0,0.0,0.0,0.0,0.0,0.0,0.0,0.0,0.0,0.0,0.0,0.0,0.0,0.0,0.0,0.0,0.0,0.0,2.3106,2.3106,2.3106,2.3106,2.3106,2.3106,2.2586,2.222,2.2184,2.1628,2.1362,2.1675,2.1725,2.1953,2.257,2.257,0.0,0.0,0.0,2.3014,2.2958,2.2958,2.3014,2.2958,2.1238,2.0385,2.0213,1.8473,1.7596,1.7485,1.7485,1.7485,1.7479,1.742,1.7361,1.7361,1.7485,1.7485,1.7485,1.7485,1.7485,1.7361,0.0,0.0,0.0,0.0,0.0,0.0,0.0,0.0,0.0,2.2171,2.1706,2.1924,2.3948,2.2611,2.2238,2.3987,2.3371,2.3232,0.0,0.0,2.4492,2.4922,2.4941,2.5107,2.5421,2.5566,2.5557,2.5557,2.5645,2.5693,2.5693,2.5693,2.5693,2.5693,2.5693,2.5319,2.4611,2.362,2.2659,2.1727,2.0802,2.016,1.9764,2.0091,2.0183,2.0278,2.105,2.1474,2.1781,2.2352,2.2747,2.3018,2.3018,2.3054,0.0,0.0,0.0,0.0,0.0,0.0,0.0,0.0,0.0,0.0,0.0,0.0,0.0,0.0,0.0,0.0,0.0,0.0,0.0,2.3062,2.3106,2.3106,2.3106,2.3106,2.3106,2.3106,2.2769,2.244,2.2206,2.1832,2.1612,2.169,2.1725,2.1953,2.257,2.257,2.2626,2.2683,2.2909,2.2901,2.2683,2.2901,2.3014,2.3014,2.1858,0.0,2.027,1.9165,1.824,1.7485,1.7485,1.7485,1.7479,1.6891,1.6714,1.6773,1.7303,1.7485,1.7485,1.7485,1.7485,1.7479,0.0,0.0,0.0,0.0,0.0,0.0,0.0,0.0,0.0,0.0,2.1418,2.1675,2.4108,2.251,2.2085,2.422,2.342,0.0,0.0,2.3436,2.3573,2.4572,2.4591,2.4947,2.5684,2.5693,2.5693,2.5693,2.5693,2.5693,2.5693,2.5693,2.581,2.6064,2.6064,2.599,2.5818,2.4584,2.3591,2.2728,2.169,2.0863,2.0259,2.042,2.0424,2.0567,2.1218,2.1562,2.1796,2.241,2.2732,2.2893,2.3054,2.3106,2.3106,0.0,0.0,0.0,0.0,0.0,0.0,0.0,0.0,0.0,0.0,0.0,0.0,0.0,0.0,2.2271,2.2564,0.0,2.2725,2.3054,2.3106,2.3106,2.3106,2.3106,2.3106,2.3106,2.282,2.2506,2.2213,2.1891,2.162,2.1462,2.1439,2.1668,2.2116,2.218,2.223,2.2343,2.2626,2.274,2.257,2.2853,2.3014,2.3014,2.2029,2.111,2.027,1.9345,1.8415,1.7485,1.7485,1.7309,1.695,1.6301,1.607,1.6129,1.6773,1.7185,1.7485,1.7485,1.7485,1.7485,0.0,0.0,0.0,0.0,0.0,0.0,0.0,0.0,0.0,0.0,2.0943,2.1162,2.3589,2.1961,2.1479,0.0,0.0,0.0,0.0,2.249,2.2571,2.3723,2.3791,2.4304,2.5382,2.5382,2.5479,2.5693,2.5693,2.5732,2.5859,2.5859,2.6094,2.6514,2.6294,2.6374,2.6718,2.5261,2.4184,2.3372,2.2434,2.1577,2.0815,2.0815,2.0815,2.0889,2.1415,2.1642,2.1781,2.2345,2.2571,2.2681,2.3003,2.3106,2.3106,2.3106,2.3106,0.0,0.0,0.0,0.0,0.0,0.0,0.0,0.0,2.2857,2.2608,2.255,2.2345,2.2257,2.2491,2.2579,2.2725,2.3054,2.3106,2.3106,2.3106,2.3106,2.3106,2.3106,2.2879,2.2601,2.2301,2.1979,2.1657,2.1328,2.1247,2.1325,2.1668,2.1725,2.1782,2.2002,2.2343,2.2513,2.2513,2.2796,2.2845,2.2724,2.1964,2.1052,1.9982,1.9229,1.8415,1.7479,1.7361,1.6832,1.6118,1.5591,1.5418,1.5477,1.6065,1.6714,1.7303,1.742,1.7485,1.7485,0.0,0.0,0.0,0.0,0.0,0.0,0.0,0.0,0.0,0.0,0.0,0.0,0.0,0.0,0.0,0.0,0.0,0.0,2.2574,2.2524,2.25,2.2685,2.2685,2.3185,2.4245,2.4295,2.4756,2.5693,2.5693,2.5888,2.6318,2.6318,2.6543,2.6892,2.5811,2.5568,2.5867,2.3586,2.279,2.2975,2.1805,2.1266,2.1159,2.1159,2.1159,2.1167,2.124,2.1452,2.1752,2.2111,2.2403,2.2681,2.3003,2.3106,2.3106,2.3106,2.3106,2.3106,2.3106,2.3106,2.3106,2.3106,2.3106,2.3106,0.0,2.2857,2.255,2.2286,2.2206,2.2198,2.2228,2.2447,2.2725,2.3054,2.3106,2.3106,2.3106,2.3106,2.3106,2.3106,2.3076,2.293,2.2601,2.2301,2.1993,2.1672,2.1372,2.1325,2.1668,2.1725,2.1725,2.1725,2.2002,2.2173,2.2173,2.2456,2.2328,2.1737,2.1672,2.0709,1.9055,1.8933,1.8415,1.7485,1.6891,1.5941,1.4808,1.4748,1.4689,1.4808,1.5413,1.6065,1.6655,1.7309,1.7485,1.7485,0.0,0.0,0.0,0.0,0.0,0.0,0.0,0.0,0.0,0.0,0.0,0.0,0.0,0.0,0.0,0.0,0.0,0.0,2.154,2.0987,2.0936,2.154,2.1591,2.2089,2.3144,2.3364,2.369,2.4103,2.4338,2.4546,2.4708,2.4708,2.4916,2.5287,2.4792,2.4799,2.5105,2.3419,2.2847,2.2869,2.171,2.1211,2.1211,2.1211,2.1211,2.1211,2.1211,2.1298,0.0,2.1789,2.2111,2.2418,2.2732,2.2952,2.3106,2.3106,2.3106,2.3106,2.3106,2.3106,2.3106,2.3106,2.3106,2.3106,2.3106,2.2857,2.2586,2.2462,2.2301,2.2235,2.2403,2.2535,2.2725,2.3054,2.3106,2.3106,2.3106,2.3106,2.3106,2.3106,2.3106,2.2981,2.2652,2.2513,2.2308,2.2001,2.1679,2.1547,2.167,2.1543,2.1382,2.1382,2.1725,2.1922,2.2118,2.2215,2.2265,2.216,2.1247,2.0113,1.8797,1.8092,1.7285,1.6366,1.5704,1.5105,1.457,1.4217,1.4097,1.4162,1.4753,1.5413,1.6129,1.7132,1.7485,1.7485,0.0,0.0,0.0,0.0,0.0,0.0,0.0,0.0,0.0,0.0,0.0,0.0,0.0,0.0,0.0,0.0,0.0,0.0,0.0,1.9814,1.9807,2.0659,2.0711,2.1223,2.2289,2.2453,2.2691,2.3003,2.317,2.3294,2.3395,2.3395,2.3651,2.3997,2.3316,2.3171,2.3351,2.1847,2.1229,2.1123,2.0235,1.9903,1.9903,2.0026,2.0319,2.0736,2.1068,2.1269,0.0,2.1723,2.2045,2.2359,2.2659,2.2915,2.3106,2.3106,2.3106,2.3106,2.3106,2.3106,2.3106,2.3106,2.3106,2.3106,2.3106,2.2923,2.2732,2.2645,2.252,2.2476,2.2601,2.2696,2.2835,2.3069,2.3106,2.3106,2.3106,2.3032,2.2974,2.2974,2.2901,2.2762,2.252,2.2506,2.2374,2.2074,2.1745,2.1562,2.1562,2.1342,2.1211,2.1211,2.1439,2.1723,2.2012,2.2009,2.2009,2.2062,2.0612,1.9426,1.8498,1.7333,1.6307,1.5489,1.4997,1.4696,1.4449,1.3978,1.3778,1.3829,1.4416,1.4873,1.5477,1.6596,1.7191,1.7485,0.0,0.0,0.0,0.0,0.0,0.0,0.0,0.0,0.0,0.0,0.0,0.0,0.0,0.0,0.0,0.0,0.0,0.0,0.0,1.9641,1.994,2.0194,2.0201,2.073,2.1786,2.1587,2.1963,2.3014,2.2695,2.2769,2.3223,2.3223,2.3412,2.3694,2.1348,2.0323,2.0158,1.775,1.6715,1.6715,1.6656,1.6656,1.6656,1.702,1.8065,1.9522,2.078,0.0,0.0,2.2059,2.2367,2.2667,2.2988,2.3098,2.3106,2.3106,2.3106,2.3106,2.3106,2.3106,2.3106,2.3106,2.3106,2.3106,2.3106,2.3098,2.3003,2.2689,2.2864,2.2988,2.2681,2.2879,2.3098,2.3106,2.3106,2.3106,2.3106,2.2835,2.2637,2.2637,2.2389,2.2206,2.2198,2.2198,2.2059,2.1737,2.1408,2.1225,2.1225,2.1218,2.1211,2.1211,2.1211,2.139,2.1683,2.1732,2.1375,2.0737,1.9737,1.8743,1.7799,1.6725,1.5908,1.5281,1.5281,1.4908,1.4279,1.4081,1.4,1.4043,1.442,1.4629,1.4689,1.5413,1.6419,1.7485,0.0,0.0,0.0,0.0,0.0,0.0,0.0,0.0,0.0,0.0,0.0,0.0,0.0,0.0,0.0,0.0,1.6313,1.6905,0.0,1.7336,1.7767,1.9504,1.8775,1.8933,2.0092,2.0255,2.0523,2.0903,2.0145,1.9835,1.9996,1.9162,1.88,1.8892,1.8093,1.775,1.7692,1.6827,1.648,1.6497,1.6603,1.6612,1.6689,1.7161,1.7647,1.8198,0.0,0.0,0.0,2.2147,2.2381,2.2645,2.2754,2.2937,2.3106,2.3106,2.3106,2.3106,2.3106,2.3106,2.3106,2.3106,2.3106,2.3106,2.3106,2.3106,2.3076,2.2967,2.3032,2.3076,2.2967,2.3032,2.3106,2.3106,2.3106,2.3032,2.282,2.2689,2.255,2.2352,2.2242,2.2096,2.1884,2.2059,2.214,2.203,2.1715,2.1533,2.1533,2.1328,2.1211,2.1211,2.1211,2.1371,2.1707,2.1493,2.096,2.0089,1.786,1.6253,1.5278,1.4875,1.4676,1.462,1.462,1.4495,1.4307,1.4237,1.4213,1.4203,1.4375,1.4561,1.4862,1.5109,1.5611,1.6307,0.0,0.0,0.0,0.0,0.0,0.0,0.0,0.0,0.0,0.0,0.0,0.0,0.0,0.0,0.0,0.0,0.0,1.5772,1.6722,0.0,1.647,1.8231,1.7497,1.744,1.8294,1.842,1.846,1.846,1.7713,1.739,1.739,1.6556,1.6197,1.6138,1.5725,1.5531,1.5493,1.4575,1.4151,1.4235,1.4334,1.4372,1.4451,1.5607,1.6369,0.0,0.0,0.0,2.1074,2.0896,2.1428,2.2044,2.2044,2.2558,2.3106,2.3106,2.3106,2.3106,2.3106,2.3106,2.3106,2.3106,2.3106,2.3106,2.3106,2.3106,2.3106,2.3106,2.3106,2.3106,2.3106,2.3106,2.3106,2.3106,2.3106,2.3032,2.2828,2.2601,2.2396,2.2206,2.1979,2.1752,2.154,2.1715,2.1832,2.1832,2.1642,2.1525,2.1525,2.132,2.1211,2.1211,2.1211,2.1313,2.1525,2.1313,2.0482,1.9041,1.678,1.5169,1.4123,1.4199,1.4303,1.443,1.4501,1.4534,1.4529,1.4454,1.4426,1.4416,1.434,1.4481,1.473,1.473,1.5019,1.5475,0.0,0.0,0.0,0.0,0.0,0.0,0.0,0.0,0.0,0.0,0.0,0.0,0.0,0.0,0.0,0.0,0.0,0.0,0.0,0.0,0.0,1.6416,1.6362,1.6362,1.6421,1.6138,1.5967,1.5967,1.5564,1.5391,1.5391,1.5268,1.5219,1.5165,1.3913,1.3495,1.3439,1.0907,0.9856,0.9997,1.0082,1.0059,1.026,1.2369,0.0,0.0,0.0,0.0,1.8738,1.8614,1.9644,2.1012,2.1012,2.1839,2.2918,2.2981,2.2981,2.2981,2.3113,2.3106,2.3106,2.3106,2.3106,2.3106,2.3106,2.3106,2.3106,2.3106,2.3106,2.3106,2.3106,2.3106,2.3106,2.3106,2.3106,2.3106,2.3084,2.2579,2.2198,2.2162,2.1613,2.1233,2.1211,2.1211,2.1211,2.1211,2.1211,2.1211,2.1211,2.1211,2.1211,2.1211,2.1211,2.1211,2.1211,2.1089,1.9939,1.7751,1.6436,1.5238,1.4303,1.4506,1.4551,1.4579,1.4772,1.4856,1.4917,1.4663,1.4648,1.4629,1.4421,1.4336,1.4326,1.4326,1.4566,1.5024,0.0,0.0,0.0,0.0,0.0,0.0,0.0,0.0,0.0,0.0,0.0,0.0,0.0,0.0,0.0,0.0,0.0,0.0,1.4114,0.0,0.0,0.0,0.0,0.0,0.0,0.0,0.0,1.5688,1.3696,1.2675,1.2675,1.0752,0.9846,0.9828,0.9526,0.9424,0.9431,0.8802,0.8488,0.8563,0.0,0.9104,0.9671,0.0,0.0,0.0,0.0,1.493,1.6273,1.8192,1.9173,1.9546,1.9546,1.9801,2.0246,2.1328,2.1587,2.1839,2.2856,2.3106,2.3106,2.3106,2.3106,2.3106,2.3106,2.3106,2.3106,2.3106,2.3106,2.3106,2.3106,2.3106,2.3106,2.3106,2.3106,2.3025,2.2776,2.2608,2.2337,2.1876,2.1672,2.1474,2.1233,2.1211,2.1211,2.1211,2.1211,2.1211,2.1211,2.1211,2.1211,2.1211,2.1211,2.1211,2.1211,1.9325,1.8064,1.7486,1.5303,1.4176,1.409,1.4147,1.434,1.4574,1.4626,1.4729,1.4926,1.4814,1.479,1.4851,1.4794,1.4685,1.4553,1.4553,1.4479,1.4409,0.0,0.0,0.0,0.0,0.0,0.0,0.0,0.0,0.0,0.0,0.0,0.0,0.0,0.0,0.0,0.0,0.0,0.0,0.0,0.0,0.0,0.0,0.0,0.0,0.0,0.0,0.0,0.0,0.0,0.0,1.0009,0.8603,0.79,0.791,0.791,0.7977,0.802,0.7449,0.0,0.0,0.0,0.0,0.0,0.0,0.0,0.0,1.2487,1.328,1.453,1.6532,1.7625,1.8197,1.878,1.8972,1.9164,1.9928,2.0182,2.0309,2.1076,2.1321,2.1321,2.1321,2.1321,2.1454,2.209,2.1713,2.1643,2.2849,2.2153,2.1643,2.2856,2.2598,2.2411,2.2981,2.3106,2.3047,2.2864,2.271,2.2447,2.1964,2.1781,2.1569,2.124,2.1211,2.1211,2.1211,2.1211,2.1211,2.1211,2.1211,2.1211,2.1211,2.1211,2.1211,2.1211,1.868,1.7384,1.7384,1.4867,1.3755,1.3873,1.3967,1.4137,1.4369,1.4489,1.4635,1.4808,1.4828,1.4866,1.4866,1.4866,1.48,1.4701,1.4701,1.4633,1.4327,0.0,0.0,0.0,0.0,0.0,0.0,0.0,0.0,0.0,0.0,0.0,0.0,0.0,0.0,0.0,0.0,0.0,0.0,0.0,0.0,0.0,0.0,0.0,0.0,0.0,0.0,0.0,0.7934,0.777,0.0,0.0,0.0,0.0,0.0,0.0,0.0,0.0,0.0,0.0,0.0,0.0,0.0,0.0,0.0,0.0,0.0,1.163,1.2355,1.328,1.4338,1.5569,1.6915,1.8075,1.846,1.846,1.8652,1.8716,1.878,1.8972,1.8972,1.8972,1.8972,1.8972,1.9291,2.0569,1.9865,1.9674,2.209,2.069,1.9801,2.2341,2.1902,2.1524,2.2856,2.3106,2.3106,2.3106,2.2864,2.2571,2.2279,2.1957,2.1635,2.1306,2.1233,2.1211,2.1211,2.1211,2.1211,2.1211,2.1211,2.1211,2.1211,2.1211,2.1211,2.1211,1.868,1.7384,1.7384,1.4867,1.3688,1.3698,1.3882,1.3986,1.4033,1.4392,1.4581,1.4583,1.4822,1.4907,1.4866,1.4866,1.4866,1.4866,1.4866,1.4758,1.4607,0.0,0.0,0.0,0.0,0.0,0.0,0.0,0.0,0.0,0.0,0.5743,0.6821,0.0,0.0,0.0,0.0,0.0,0.0,0.0,0.0,0.0,0.0,0.0,0.0,0.8026,0.8026,0.8015,0.7994,0.6913,0.6372,0.0,0.0,0.0,0.0,0.0,0.0,0.0,0.0,0.0,0.0,0.0,0.0,0.0,0.0,0.0,0.0,1.1431,1.1894,1.2223,1.3214,1.4329,1.5318,1.5508,1.5639,1.5829,1.698,1.7367,1.7619,1.8716,1.8972,1.8972,1.8972,1.8972,1.9036,1.9291,1.9164,1.9164,1.961,1.9355,1.9483,2.1139,2.1272,2.1524,2.2856,2.3106,2.3106,2.3106,2.3062,2.2908,2.2586,2.2279,2.1972,2.1642,2.1364,2.1211,2.1211,2.1211,2.1211,2.1211,2.1211,2.1211,2.1211,2.1211,2.1211,2.1211,1.868,1.7384,1.7384,1.4867,1.3688,1.3693,1.3731,1.3844,1.4014,1.409,1.4317,1.4574,1.4671,1.472,1.4866,1.4866,1.4866,1.4866,1.4866,1.4912,1.4749,0.0,0.0,0.0,0.0,0.0,0.0,0.0,0.3361,0.3559,0.4154,0.4743,0.5367,0.5927,0.5981,0.5981,0.0,0.0,0.0,0.0,0.0,0.0,0.0,0.0,0.0,0.6052,0.6052,0.6031,0.6051,0.0,0.4805,0.4188,0.3638,0.2738,0.1695,0.1773,0.152,0.1065,0.1597,0.0,0.2218,0.3493,0.4298,0.0,0.0,0.0,0.0,0.0,1.0969,1.1101,1.2157,1.3214,1.4137,1.4735,1.4866,1.5062,1.5699,1.5889,1.6019,1.6667,1.6861,1.6861,1.6861,1.6861,1.705,1.7818,1.7367,1.7243,1.8716,1.7882,1.7496,1.961,1.9992,2.0436,2.1839,2.2661,2.3106,2.3106,2.3106,2.2988,2.2659,2.2359,2.2052,2.173,2.1401,2.1211,2.1211,2.1364,2.1386,2.1218,2.1372,2.154,2.1715,2.1715,2.1349,2.0621,1.875,1.7422,1.6578,1.4746,1.3797,1.3688,1.3688,1.3745,1.3849,1.3962,1.4185,1.4473,1.4586,1.4752,1.4866,1.4866,1.4866,1.4866,1.4866,1.4866,1.4735,0.0,0.0,0.0,0.0,0.0,0.0,0.0,0.2353,0.2757,0.3835,0.3969,0.4003,0.4109,0.4165,0.4165,0.0,0.0,0.0,0.0,0.0,0.0,0.0,0.0,0.0,0.0,0.0,0.0,0.3904,0.3937,0.0,0.0,0.0,0.0,0.0,0.0661,0.053,0.0331,0.0662,0.0999,0.0,0.0,0.2954,0.0,0.0,0.0,0.0,0.0,0.9845,1.0041,1.1101,1.196,1.2816,1.3875,1.4534,1.4866,1.4866,1.4866,1.4866,1.4866,1.4866,1.4866,1.4866,1.4866,1.5187,1.6273,1.5699,1.5513,1.7689,1.6408,1.5639,1.8139,1.878,1.9483,2.0886,2.2223,2.3106,2.3106,2.3106,2.3018,2.2754,2.2403,2.2081,2.1825,2.1445,2.1211,2.1211,2.1511,2.1613,2.143,2.1657,2.192,2.2176,2.2184,2.1682,2.0563,1.8966,1.757,1.6354,1.4794,1.3962,1.3759,1.3759,1.3736,1.3703,1.3915,1.4128,1.4326,1.4544,1.4752,1.4866,1.4866,1.4866,1.4866,1.4866,1.4735,1.4469,0.0,0.0,0.0,0.0,0.0,0.0,0.0,0.1277,0.1613,0.269,0.2824,0.3225,0.4158,0.429,0.429,0.0,0.0,0.0,0.0,0.0,0.0,0.0,0.0,0.0,0.0,0.0,0.0,0.2819,0.2786,0.0,0.0,0.0,0.0,0.0,0.0,-0.094,-0.1814,-0.047,0.0,0.0,0.0,0.0,0.0,0.0,0.0,0.0,0.0,0.872,0.8917,0.9978,1.0439,1.0638,1.1762,1.3411,1.4866,1.4866,1.4866,1.4866,1.4866,1.4866,1.4866,1.4866,1.4866,1.4931,1.5062,1.4996,1.4996,1.5187,1.5062,1.5383,1.6915,1.8203,1.9483,2.0886,2.2223,2.3106,2.3106,2.3106,2.3098,2.3069,2.2542,2.2169,2.214,2.1576,2.1211,2.1211,2.1511,2.1818,2.2081,2.2125,2.2154,2.2184,2.2184,2.2124,2.1997,1.9459,1.8154,1.7941,1.5442,1.418,1.3981,1.3981,1.3873,1.3703,1.3915,1.4128,1.4326,1.4544,1.4752,1.4866,1.4866,1.4866,1.4866,1.4866,1.4272,1.3411,0.0,0.0,0.0,0.0,0.0,0.0,0.0,0.0135,0.0538,0.1613,0.1747,0.1882,0.2353,0.2959,0.3565,0.4239,0.0,0.0,0.0,0.0,0.0,0.0,0.0,0.0,0.0,0.0,0.4105,0.3632,0.3009,0.0,0.0,0.0,0.0,0.0,0.0,-0.1616,-0.1818,-0.1212,0.0,0.0,0.0,0.0,0.0,0.0,0.0,0.0,0.0,0.0,0.8653,0.9117,0.9646,1.0243,1.0704,1.1828,1.3149,1.3744,1.4403,1.4866,1.4866,1.4866,1.4866,1.4866,1.4866,1.4866,1.4866,1.4866,1.4866,1.4866,1.4866,1.5057,1.5639,1.7496,1.9164,1.9737,2.1643,2.3106,2.3106,2.3106,2.304,2.2842,2.244,2.2103,2.1906,2.1481,2.1372,2.1767,2.1913,2.2213,2.2718,2.2557,2.2535,2.2732,2.274,2.1925,2.0299,1.9218,1.7759,1.5998,1.5003,1.4397,1.4189,1.4189,1.4081,1.3896,1.4099,1.4237,1.4326,1.4544,1.4752,1.4866,1.4866,1.4534,1.394,1.394,1.328,1.2289,0.0,0.0,0.0,0.0,0.0,-0.1953,-0.1144,-0.101,-0.0606,0.0471,0.0605,0.0739,0.1075,0.2084,0.3026,0.3768,0.4105,0.0,0.0,0.0,0.0,0.0,0.0,0.0,0.0,0.0,0.3971,0.3363,0.2622,0.1479,0.0,0.0,-0.1414,-0.2222,0.0,0.0,0.0,0.0,0.0,0.0,0.0,0.0,0.0,0.0,0.0,0.0,0.0,0.0,0.0,0.0,0.0,0.9712,0.9712,1.0439,1.1563,1.2882,1.3809,1.4469,1.48,1.4866,1.4866,1.4866,1.4866,1.4866,1.4866,1.4866,1.4866,1.4866,1.4866,1.4866,1.4866,1.7179,1.8972,1.8972,2.1328,2.3106,2.3106,2.3106,2.2988,2.2659,2.2359,2.2052,2.173,2.1401,2.1481,2.2132,2.2184,2.2454,2.3076,2.2893,2.2871,2.3098,2.3106,2.1964,1.961,1.9228,1.7733,1.5287,1.4912,1.461,1.4407,1.4407,1.4331,1.4203,1.4345,1.444,1.4506,1.4657,1.4739,1.4866,1.4866,1.4268,1.328,1.328,1.2487,1.1233,0.0,0.0,0.0,0.0,0.0,0.0,-0.2155,-0.2155,-0.175,-0.0606,-0.0471,-0.0067,0.1008,0.2084,0.269,0.269,0.3701,0.0,0.0,0.0,0.0,0.0,0.0,0.0,0.0,0.0,0.3228,0.1142,0.1142,0.0,-0.2155,-0.2155,-0.2222,-0.2222,0.0,0.0,0.0,0.0,0.0,0.0,0.0,0.0,0.0,0.0,0.0,0.0,0.0,0.0,0.0,0.0,0.0,0.0,0.0,0.9383,1.0638,1.2684,1.328,1.3543,1.46,1.4866,1.4866,1.4866,1.4866,1.4866,1.4866,1.4866,1.4866,1.4866,1.4866,1.4866,1.4866,1.7179,1.8972,1.8972,2.1328,2.3106,2.3106,2.3106,2.2988,2.2659,2.2359,2.2052,2.173,2.1401,2.1481,2.2132,2.2184,2.2454,2.3076,2.3106,2.3106,2.3106,2.3106,2.2473,2.1076,1.9674,1.8326,1.6974,1.5569,1.4762,1.4633,1.4633,1.4629,1.456,1.4629,1.4678,1.4861,1.4926,1.4931,1.4866,1.4866,1.4268,1.328,1.328,1.2022,1.0243,0.0,0.0,0.0,0.0,0.0,0.0,0.0,-0.2222,-0.2087,-0.1683,-0.1683,-0.1548,-0.1211,-0.0135,0.0538,0.0538,0.2152,0.0,0.0,0.0,0.0,0.0,0.0,0.0,0.0,0.2084,0.1747,0.1075,0.0336,-0.0336,-0.1077,-0.1818,-0.2222,-0.2155,-0.1885,-0.1616,0.0,0.0,0.0,0.0,0.0,0.0,0.3758,0.0,0.0,0.0,0.0,0.0,0.0,0.0,0.0,0.0,0.0,0.0,0.0,1.077,1.2223,1.3346,1.3739,1.4338,1.4866,1.4866,1.4866,1.4866,1.4866,1.4866,1.4866,1.4866,1.4866,1.4866,1.4866,1.7179,1.8972,1.8972,2.1328,2.3106,2.3106,2.3106,2.2915,2.2381,2.1847,2.1474,2.1372,2.1269,2.1386,2.1818,2.2059,2.2352,2.2754,2.2988,2.3106,2.3106,2.3106,2.1964,1.9674,1.9228,1.7818,1.5574,1.5122,1.4903,1.4837,1.4837,1.4837,1.4781,1.4983,1.5002,1.4875,1.5082,1.4993,1.4866,1.4866,1.3809,1.2289,1.2289,1.0902,0.9117,0.0,0.0,0.0,0.0,0.0,0.0,0.0,-0.2222,-0.2222,-0.2222,-0.2222,-0.2222,-0.2222,-0.1212,-0.0471,-0.0471,0.074,0.0,0.0,0.0,0.0,0.0,0.0,0.0,0.1075,0.1075,0.0874,0.0471,-0.0202,-0.074,-0.1144,-0.1885,-0.2222,-0.2155,-0.175,-0.1414,0.0,0.0,0.0,0.0,0.0,0.0,0.5166,0.0,0.0,0.0,0.0,0.0,0.0,0.0,0.0,0.0,0.0,0.0,0.0,0.0,1.077,1.2285,1.3079,1.3809,1.4403,1.48,1.4866,1.4866,1.4866,1.4866,1.4866,1.4866,1.4866,1.4866,1.4866,1.7179,1.8972,1.8972,2.1328,2.3106,2.3106,2.3003,2.2696,2.2074,2.1533,2.1211,2.1211,2.1211,2.1342,2.1672,2.1884,2.2184,2.2601,2.282,2.2981,2.3106,2.3106,2.1769,1.9036,1.8972,1.763,1.4866,1.4866,1.4866,1.4866,1.4866,1.5021,1.5172,1.5215,1.5252,0.0,1.5243,1.5158,1.4974,1.4496,1.328,1.1762,1.1365,1.011,0.8587,0.0,0.0,0.0,0.0,0.0,0.0,0.0,-0.2222,-0.2222,-0.2222,-0.2222,-0.2222,-0.2222,-0.1279,-0.0606,-0.0606,0.0,0.0,0.0,0.0,0.0,0.0,0.0,0.0,0.0874,0.0874,0.0403,-0.0606,-0.0606,-0.1144,-0.2222,-0.2222,-0.2155,-0.2087,-0.1616,-0.1144,0.0,0.0,0.0,0.0,0.4427,0.53,0.0,0.0,0.0,0.0,0.0,0.0,0.0,0.0,0.0,0.0,0.0,0.0,0.0,0.0,0.0,0.0,0.0,1.321,1.3543,1.4604,1.4866,1.4866,1.4866,1.4866,0.0,1.4866,1.4866,1.4866,1.4866,1.705,1.8908,1.8972,2.1202,2.2981,2.3106,2.2806,2.2367,2.1767,2.1408,2.1211,2.1211,2.1211,2.1335,2.1642,2.1686,2.195,2.2528,2.2579,2.274,2.3062,2.2952,2.1685,1.9036,1.8908,1.7501,1.4866,1.4866,1.4866,1.4866,1.488,1.5177,1.5618,1.5356,1.5498,1.5898,1.5437,1.5267,1.51,1.3835,1.2704,1.171,1.0575,0.9513,0.8587,0.0,0.0,0.0,0.0,0.0,0.0,0.0,0.0,0.0,0.0,-0.2222,-0.2222,-0.2222,-0.1953,-0.1818,0.0,0.0,0.0,0.0,0.0,0.0,0.0,0.0,0.0,-0.1413,-0.1413,-0.1548,-0.1818,-0.1818,-0.1953,-0.2222,-0.2222,-0.175,-0.0875,0.0067,0.1411,0.0,0.0,0.0,0.0,0.5904,0.6775,0.0,0.0,0.0,0.0,0.8587,0.8587,0.0,0.0,0.0,0.0,0.0,0.0,0.0,0.0,0.8787,0.0,1.0571,0.0,1.3543,1.4604,1.4866,1.4866,0.0,1.4866,1.4866,1.4866,1.4866,1.4866,1.4866,1.6343,1.7812,1.8844,2.0436,2.1902,2.2981,2.263,2.214,2.1745,2.1408,2.1211,2.1211,2.1211,2.124,2.132,2.1554,2.1759,2.1906,2.2147,2.2425,2.2725,2.1733,2.0467,1.9036,1.8011,1.6597,1.4866,1.4866,1.4866,1.4936,1.5092,1.5309,1.5632,1.5668,1.5767,1.5922,1.5753,1.5621,1.5393,1.4111,1.2964,1.1873,1.0681,0.9513,0.8587,0.0,0.0,0.0,0.0,0.0,0.0,0.0,0.0,0.0,0.0,0.0,0.0,0.0,0.0,0.0,0.0,0.0,0.0,0.0,0.0,0.0,0.0,0.0,-0.2222,-0.2222,-0.2222,-0.2222,-0.2222,-0.2222,-0.2222,-0.2222,-0.1683,-0.1077,-0.0404,0.1142,0.3088,0.5233,0.5233,0.6105,0.7381,0.7381,0.0,0.0,0.0,0.0,0.0,0.8734,0.872,0.0,0.8671,0.8633,0.8587,0.0,0.0,0.0,0.0,0.8587,0.8853,0.9911,1.1362,1.2882,1.394,1.4534,1.4866,1.4866,1.4866,1.4866,1.4866,1.4866,1.4866,1.4866,1.6019,1.7426,1.878,1.961,2.0535,2.1582,2.1889,2.184,2.1511,2.132,2.1211,2.1211,2.1211,2.1211,2.1211,2.1372,2.154,2.1686,2.1862,2.1857,2.154,2.0315,1.9456,1.8972,1.7683,1.6278,1.4866,1.4866,1.4978,1.5007,1.5182,1.5404,1.577,1.5879,1.5919,1.5999,1.5969,1.5865,1.554,1.376,1.2692,1.1869,1.0171,0.9169,0.8587,0.0,0.0,0.0,0.0,0.0,0.0,0.0,0.0,0.0,0.0,0.0,0.0,0.0,0.0,0.0,0.0,0.0,0.0,0.0,0.0,0.0,0.0,-0.2173,-0.2169,-0.2169,-0.2169,-0.2234,-0.2229,-0.2229,-0.2092,-0.1953,-0.0942,-0.0202,0.0404,0.2351,0.4562,0.6711,0.6711,0.7448,0.8587,0.8587,0.0,0.0,0.0,0.0,0.0,0.0,0.0,0.0,0.8799,0.8728,0.8638,0.8622,0.0,0.0,0.0,0.0,0.0,0.9712,1.0836,1.2025,1.3079,1.4137,1.4866,1.4866,1.4866,1.4866,1.4866,1.4866,1.4866,1.4866,1.5889,1.7173,1.878,1.9133,1.9493,2.0024,2.0855,2.1336,2.1247,2.1211,2.1211,2.1211,2.1211,2.1211,2.1211,2.1211,2.1328,2.1606,2.162,2.1163,2.0254,1.9019,1.8456,1.8591,1.7328,1.6084,1.4866,1.4964,1.5068,1.5167,1.5295,1.5522,1.5931,1.5965,1.6013,1.6169,1.6055,1.5979,1.5677,1.3323,1.2259,1.1846,0.9659,0.8693,0.8587,0.0,0.0,0.0,0.0,0.0,0.0,0.0,0.0,0.0,0.0,0.0,0.0,0.0,0.0,0.0,0.0,0.0,0.0,0.0,0.0,0.0,-0.2306,-0.2258,-0.2232,-0.2232,-0.2232,-0.2219,-0.2193,-0.2193,-0.1703,-0.074,-0.0606,0.1075,0.4028,0.5305,0.6715,0.8251,0.8251,0.8387,0.8587,0.8587,0.0,0.0,0.0,0.0,0.0,0.0,0.0,0.0,0.8855,0.8841,0.8878,0.8774,0.0,0.0,0.0,0.0,0.0,0.8787,1.0306,1.2025,1.3079,1.4137,1.4866,1.4866,1.4866,1.4866,1.4866,1.4866,1.4866,1.4866,1.5062,1.6024,1.8588,1.9865,2.0409,2.0119,2.0126,2.0372,2.1132,2.1211,2.1211,2.1211,2.1211,2.1211,2.1211,2.1211,2.1233,2.1284,2.1284,2.0836,1.9886,1.8605,1.7535,1.6812,1.5767,1.5122,1.487,1.504,1.52,1.5176,1.5602,1.58,1.5941,1.6056,1.6155,1.6178,1.615,1.6131,1.5896,1.3512,1.25,1.2061,0.9689,0.8693,0.8587,0.0,0.0,0.0,0.0,0.0,0.0,0.0,0.0,0.0,0.0,0.0,0.0,0.0,0.0,0.0,0.0,0.0,0.0,0.0,0.0,-0.2382,-0.2382,-0.1693,-0.1599,-0.2221,-0.2221,-0.1928,-0.1206,-0.1329,-0.0692,0.0481,0.1422,0.3224,0.5709,0.6581,0.7584,0.8587,0.8587,0.8587,0.8587,0.0,0.0,0.0,0.0,0.0,0.0,0.0,0.0,0.0,0.0,0.8936,0.8874,0.8886,0.0,0.0,0.0,0.0,0.0,0.8685,1.0235,1.1894,1.2355,1.3678,1.4866,1.4866,1.4866,1.4866,1.4866,1.4866,1.4866,1.4866,1.4866,1.5284,1.6439,1.8158,1.925,1.8905,1.9233,1.9952,2.1053,2.1211,2.1211,2.1211,2.1211,2.1211,2.1211,2.1211,2.1211,2.1211,2.0565,1.9683,1.8515,1.7404,1.621,1.512,1.4876,1.4762,1.487,1.5073,1.5352,1.5578,1.5772,1.5993,1.6037,1.6141,1.6183,1.6183,1.6183,1.6183,1.5957,1.359,1.2603,1.2219,0.9725,0.8693,0.8587,0.0,0.0,0.0,0.0,0.0,0.0,0.0,0.0,0.0,0.0,0.0,0.0,0.0,0.0,0.0,0.0,0.0,0.0,0.0,-0.2138,-0.1986,-0.1986,-0.0764,-0.0755,-0.2281,-0.1765,-0.1101,-0.0439,-0.0215,0.0496,0.1759,0.3431,0.5011,0.6482,0.7217,0.794,0.8587,0.8587,0.8587,0.8587,0.0,0.0,0.0,0.0,0.0,0.0,0.0,0.0,0.0,0.0,0.0,0.0,0.0,0.0,0.0,0.889,0.8886,0.8875,0.9118,1.0443,1.1876,1.2099,1.3543,1.4866,1.4866,1.4866,1.4866,1.4866,1.4866,1.4866,1.4866,1.5187,1.531,1.5105,1.68,1.8197,1.8231,1.8855,1.9795,2.1031,2.0917,2.0737,2.0737,2.05,2.0443,2.0737,2.0737,2.0917,2.1153,1.9968,1.8732,1.7443,1.6393,1.5245,1.3934,1.435,1.4621,1.487,1.5186,1.5503,1.5931,1.5984,1.6027,1.6183,1.6183,1.6183,1.6183,1.6183,1.6183,1.5966,1.3607,1.2272,1.1503,0.9531,0.8693,0.8587,0.0,0.0,0.0,0.0,0.0,0.0,0.0,0.0,0.0,0.0,0.0,0.0,0.0,0.0,0.0,0.0,0.0,0.0,0.0,-0.1409,-0.0704,-0.0704,0.0469,0.0077,-0.2343,-0.0151,0.0525,-0.0519,0.0667,0.1827,0.2926,0.4639,0.5821,0.6502,0.7322,0.8015,0.8587,0.8587,0.8587,0.8587,0.8587,0.0,0.0,0.0,0.0,0.0,0.0,0.0,0.0,0.0,0.0,0.0,0.0,0.0,0.903,0.8917,0.8876,0.9121,1.002,1.1059,1.209,1.2988,1.4071,1.4866,1.4866,1.4866,1.4866,1.4866,1.4866,1.4866,1.4866,1.5954,1.6711,1.6408,1.7411,1.8502,1.9371,1.9382,1.9795,2.1031,2.0148,1.9441,1.9441,1.8383,1.815,1.9325,1.9441,1.9968,2.1153,1.9968,1.8732,1.7443,1.6231,1.5007,1.3712,1.4128,1.4534,1.4936,1.5347,1.5718,1.5936,1.607,1.6169,1.6183,1.6183,1.6183,1.6183,1.6183,1.6183,1.5966,1.3607,1.1214,0.9154,0.8886,0.8693,0.8587,0.0,0.0,0.0,0.0,0.0,0.0,0.0,0.0,0.0,0.0,0.0,0.0,0.0,0.0,0.0,0.0,0.0,0.0,0.0,-0.0157,0.0549,0.0549,0.1726,0.1641,-0.0077,0.0851,0.1467,0.1768,0.293,0.3884,0.4714,0.5775,0.6698,0.7426,0.8122,0.8539,0.8701,0.8701,0.8658,0.8587,0.8587,0.8633,0.0,0.0,0.0,0.0,0.0,0.0,0.0,0.0,0.9304,0.9296,0.9253,0.9239,0.9231,0.9185,0.912,0.9125,0.9494,1.0731,1.1993,1.2335,1.3699,1.4866,1.4866,1.4866,1.4866,1.4866,1.4866,1.4866,1.4866,1.5313,1.5584,1.5163,1.6147,1.723,1.8121,1.8862,1.9499,1.9968,1.9622,1.8971,1.8208,1.7677,1.7618,1.8085,1.815,1.8325,1.879,1.7683,1.6803,1.6273,1.5041,1.4226,1.3887,1.417,1.452,1.487,1.5219,1.5531,1.5931,1.6012,1.6056,1.6183,1.6183,1.6183,1.6183,1.6183,1.6183,1.5966,1.3607,1.1196,0.8979,0.8929,0.8807,0.869,0.0,0.0,0.0,0.0,0.0,0.0,0.0,0.0,0.0,0.0,0.0,0.0,0.0,0.0,0.0,0.0,0.0,0.0,0.0078,0.1177,0.1883,0.1883,0.306,0.3295,0.251,0.2431,0.2667,0.3139,0.4482,0.5405,0.5818,0.6713,0.742,0.7956,0.8658,0.8943,0.8829,0.8829,0.8758,0.8644,0.8644,0.8671,0.0,0.0,0.0,0.0,0.0,0.0,0.0,0.0,0.9275,0.9304,0.9304,0.9304,0.9304,0.9304,0.9247,0.9251,0.9493,1.0812,1.2138,1.2371,1.3731,1.5011,1.488,1.4866,1.4866,1.4866,1.4866,1.4866,1.4866,1.4879,1.4847,1.4861,1.5603,1.6387,1.7268,1.85,1.9325,1.9325,1.8913,1.8383,1.7501,1.668,1.6391,1.6803,1.6803,1.6973,1.7384,1.6273,1.5575,1.5575,1.4406,1.3863,1.401,1.4279,1.4558,1.4841,1.5044,1.5356,1.5836,1.5898,1.6012,1.6084,1.6155,1.6183,1.6183,1.6183,1.5753,1.4893,1.296,1.0944,0.912,0.8927,0.8875,0.8753,0.0,0.0,0.0,0.0,0.0,0.0,0.0,0.0,0.0,0.0,0.0,0.0,0.0,0.0,0.0,0.0,0.0,0.0,0.1334,0.2432,0.3139,0.3139,0.4315,0.5021,0.5021,0.5021,0.4394,0.3139,0.5055,0.5978,0.605,0.7435,0.8088,0.8066,0.8779,0.8998,0.8884,0.8884,0.8883,0.8772,0.8769,0.8698,0.8603,0.0,0.0,0.0,0.0,0.0,0.0,0.0,0.9207,0.9302,0.9302,0.9302,0.9302,0.9304,0.9304,0.9493,1.0426,1.1513,1.2557,1.3317,1.4366,1.5182,1.4978,1.4866,1.4866,1.4866,1.4866,1.4866,1.4866,1.477,1.494,1.6012,1.6014,1.6249,1.7244,1.85,1.9267,1.9267,1.815,1.7384,1.7384,1.5159,1.4217,1.5515,1.5575,1.6096,1.7325,1.6214,1.5575,1.5575,1.4559,1.401,1.4014,1.4426,1.4569,1.4638,1.4772,1.5153,1.5632,1.5832,1.5927,1.5941,1.6084,1.6178,1.6183,1.6183,1.4822,1.2606,1.1459,1.0233,0.912,0.8927,0.8875,0.8755,0.0,0.0,0.0,0.0,0.0,0.0,0.0,0.0,0.0,0.0,0.0,0.0,0.0,0.0,0.0,0.0,0.0,0.0,0.259,0.3766,0.4472,0.4472,0.4786,0.5021,0.5021,0.5021,0.5099,0.5332,0.5819,0.658,0.7703,0.7948,0.8415,0.8891,0.9109,0.919,0.9008,0.9008,0.9008,0.8891,0.8804,0.8799,0.8837,0.0,0.0,0.0,0.0,0.0,0.0,0.0,0.0,0.0,0.9158,0.9185,0.9201,0.928,0.9304,0.9368,0.9615,1.1028,1.2444,1.2513,1.3857,1.5182,1.4978,1.4866,1.4866,1.4866,1.4866,1.4866,1.4866,1.477,1.469,1.4837,1.5468,1.5953,1.6129,1.7214,1.7624,1.6803,1.6332,1.5806,1.4867,1.4102,1.3868,1.4217,1.4277,1.4396,1.4808,1.4456,1.4277,1.4277,1.4079,1.4081,1.4222,1.4496,1.464,1.4781,1.4842,1.5073,1.5333,1.5389,1.5578,1.5931,1.5928,1.6041,1.6112,1.5319,1.4102,1.2606,1.1459,1.0287,0.9228,0.8957,0.886,0.8867,0.0,0.0,0.0,0.0,0.0,0.0,0.0,0.0,0.0,0.0,0.0,0.0,0.0,0.0,0.0,0.0,0.0,0.0,0.0,0.4551,0.5021,0.5021,0.5021,0.5021,0.5021,0.5334,0.596,0.6742,0.6581,0.7105,0.838,0.8536,0.8868,0.9304,0.9304,0.9266,0.9201,0.9201,0.9133,0.8944,0.8891,0.8856,0.8867,0.0,0.0,0.0,0.0,0.0,0.0,0.0,0.0,0.0,0.9025,0.9133,0.9158,0.9269,0.9304,0.9304,0.9304,1.0892,1.2489,1.2252,1.3806,1.529,1.4997,1.4866,1.4866,1.4866,1.4866,1.4866,1.4866,1.47,1.4463,1.4331,1.4727,1.4956,1.4888,1.5924,1.6391,1.5688,1.5575,1.5278,1.4515,1.3983,1.3688,1.3688,1.3688,1.3688,1.3688,1.3688,1.3688,1.3688,1.3977,1.4189,1.4312,1.4605,1.4748,1.4866,1.4866,1.4932,1.5049,1.5129,1.5418,1.5817,1.5919,1.606,1.6037,1.4462,1.3389,1.2534,1.0956,0.9879,0.9275,0.8968,0.8882,0.8847,0.0,0.0,0.0,0.0,0.0,0.0,0.0,0.0,0.0,0.0,0.5016,0.0,0.0,0.0,0.0,0.0,0.0,0.0,0.0,0.0,0.5021,0.5021,0.5099,0.5177,0.5255,0.6038,0.6822,0.7603,0.7418,0.7705,0.853,0.905,0.9304,0.9304,0.9304,0.9304,0.9304,0.9304,0.9245,0.9139,0.8946,0.8897,0.8772,0.8649,0.0,0.0,0.0,0.0,0.0,0.0,0.0,0.0,0.9063,0.9109,0.9141,0.9256,0.9296,0.9304,0.9304,1.0956,1.2637,1.2466,1.3957,1.5427,1.5021,1.4866,1.4866,1.4866,1.4866,1.4866,1.4866,1.4591,1.4312,1.4312,1.3958,1.3688,1.3688,1.4694,1.5456,1.5456,1.5456,1.5456,1.5456,1.4396,1.3688,1.3688,1.3688,1.3688,1.3688,1.3688,1.3688,1.3688,1.4095,1.4312,1.4312,1.4723,1.4866,1.4866,1.4866,1.4866,1.4936,1.512,1.5337,1.5651,1.598,1.6164,1.6042,1.3678,1.2678,1.2463,1.0164,0.9304,0.9275,0.8968,0.8882,0.8847,0.0,0.0,0.0,0.0,0.0,0.0,0.0,0.0,0.0,0.0,0.0,0.0,0.0,0.0,0.0,0.0,0.0,0.0,0.0,0.0,0.5021,0.5021,0.5647,0.6351,0.6976,0.7135,0.7681,0.8544,0.826,0.861,0.9436,0.9346,0.9304,0.9304,0.9304,0.9304,0.9304,0.9304,0.9291,0.9258,0.9141,0.8952,0.8899,0.8777,0.8671,0.0,0.0,0.0,0.0,0.0,0.0,0.0,0.881,0.8913,0.8944,0.9136,0.9234,0.9304,0.9304,1.0956,1.2637,1.2466,1.3856,1.5238,1.4993,1.4866,1.4866,1.4866,1.4866,1.4866,1.4866,1.4591,1.4312,1.4312,1.3958,1.3688,1.3688,1.3928,1.4102,1.4102,1.4102,1.4102,1.4102,1.3868,1.3688,1.3688,1.3688,1.3688,1.3688,1.3688,1.3688,1.3688,1.4095,1.4312,1.4312,1.4723,1.4866,1.4866,1.4866,1.4866,1.487,1.4913,1.5205,1.5642,1.5893,1.6027,1.6042,1.3678,1.2678,1.2463,1.0164,0.9304,0.9275,0.8968,0.8882,0.8847,0.0,0.0,0.0,0.0,0.0,0.0,0.0,0.0,0.0,0.0,0.0,0.0,0.0,0.0,0.0,0.0,0.0,0.0,0.0,0.0,0.6195,0.6195,0.6664,0.7056,0.7525,0.7918,0.831,0.8778,0.8947,0.9291,0.9663,0.9419,0.9304,0.9304,0.9304,0.9304,0.9304,0.9304,0.9304,0.9294,0.9179,0.8992,0.8868,0.8815,0.8696,0.8587,0.8587,0.0,0.0,0.0,0.0,0.0,0.0,0.0,0.8906,0.9027,0.9215,0.9304,0.9304,1.0596,1.2137,1.3033,1.4315,1.5333,1.5125,1.5002,1.4866,1.4866,1.4866,1.4866,1.4866,1.4591,1.4312,1.4312,1.3958,1.3688,1.3688,1.3688,1.3688,1.3688,1.3688,1.3688,1.3688,1.3688,1.3688,1.3688,1.3688,1.3688,1.3688,1.3688,1.3736,1.384,1.4147,1.4359,1.4463,1.4775,1.4866,1.4866,1.4866,1.4866,1.487,1.503,1.5196,1.5422,1.5725,1.5993,1.5896,1.3642,1.2678,1.2463,1.0164,0.9304,0.9275,0.8968,0.8882,0.8847,0.0,0.0,0.0,0.0,0.0,0.0,0.0,0.0,0.0,0.0,0.0,0.0,0.0,0.0,0.0,0.0,0.0,0.0,0.0,0.0,0.0,0.7681,0.7759,0.7759,0.7916,0.862,0.9003,0.8983,0.9471,0.9658,0.9633,0.941,0.9304,0.9304,0.9304,0.9304,0.9304,0.9304,0.9304,0.9294,0.9179,0.8992,0.8868,0.8815,0.8696,0.8587,0.8587,0.8587,0.8587,0.8587,0.0,0.0,0.0,0.0,0.89,0.9003,0.9198,0.9304,0.9304,1.0308,1.178,1.3743,1.488,1.5503,1.5281,1.5012,1.4866,1.4866,1.4866,1.4866,1.4866,1.4591,1.4312,1.4312,1.3958,1.3688,1.3688,1.3688,1.3688,1.3688,1.3688,1.3688,1.3688,1.3688,1.3688,1.3688,1.3688,1.3688,1.3688,1.3688,1.3788,1.4005,1.4208,1.4416,1.4633,1.4767,1.4866,1.4866,1.4866,1.4866,1.4936,1.504,1.52,1.5186,1.564,1.5898,1.5732,1.3602,1.2678,1.2463,1.0164,0.9294,0.9247,0.8963,0.8868,0.8889,0.0,0.0,0.0,0.0,0.0,0.0,0.0,0.0,0.0,0.0,0.9708,0.963,0.0,0.0,0.0,0.0,0.0,0.0,0.0,0.0,0.0,0.8622,0.8622,0.8932,0.963,0.9786,0.9816,0.9632,0.9658,0.9614,0.9508,0.937,0.9304,0.9304,0.9304,0.9304,0.9304,0.9304,0.9304,0.9294,0.9179,0.8992,0.8868,0.8815,0.8696,0.8587,0.8587,0.8587,0.8587,0.8587,0.8587,0.0,0.0,0.0,0.8884,0.89,0.913,0.9304,0.9304,1.0884,1.2783,1.3883,1.488,1.5503,1.5281,1.5012,1.4866,1.4866,1.4866,1.4866,1.4866,1.4591,1.4312,1.4312,1.3958,1.3688,1.3688,1.3688,1.3688,1.3688,1.3688,1.3688,1.3688,1.3688,1.3688,1.3688,1.3688,1.3688,1.3688,1.3688,1.3788,1.4005,1.4208,1.4416,1.4633,1.4767,1.4866,1.4866,1.4866,1.4866,1.4866,1.4959,1.5068,1.5243,1.5493,1.577,1.5732,1.3602,1.2678,1.2463,1.0164,0.9242,0.9141,0.8933,0.8886,0.8774,0.0,0.0,0.0,0.0,0.0,0.0,0.0,0.0,0.0,0.0,0.0,1.0019,0.0,0.0,0.0,0.0,0.0,0.0,0.0,0.0,0.0,0.9477,0.9477,0.9602,0.9919,0.9916,0.9859,0.9745,0.9625,0.9541,0.9484,0.9362,0.9304,0.9304,0.9304,0.9304,0.9304,0.9304,0.9266,0.9204,0.9155,0.8992,0.8868,0.8815,0.8736,0.8679,0.8611,0.8587,0.8587,0.8587,0.8587,0.8587,0.8587,0.0,0.0,0.0,0.912,0.9304,0.9304,1.0524,1.2015,1.3086,1.4064,1.4918,1.5325,1.5252,1.5068,1.4889,1.4866,1.4866,1.4866,1.4591,1.4312,1.4312,1.3958,1.3688,1.3688,1.3688,1.3688,1.3688,1.3688,1.3688,1.3688,1.3688,1.3688,1.3688,1.3688,1.3688,1.3688,1.3688,1.384,1.417,1.4265,1.4468,1.4799,1.4889,1.4866,1.4866,1.4866,1.4866,1.4866,1.4866,1.4978,1.5007,1.5285,1.5427,1.5395,1.4047,1.3106,1.2395,1.0763,0.974,0.9111,0.8921,0.8772,0.8649,0.0,0.0,0.0,0.0,0.0,0.0,0.0,0.0,0.0,0.0,0.0,0.0,0.0,0.0,0.0,0.0,0.0,0.0,0.0,0.0,0.0,1.0019,0.9989,0.9932,0.9837,0.981,0.9737,0.9622,0.9533,0.947,0.9438,0.9345,0.9304,0.9304,0.9304,0.9304,0.9304,0.9304,0.9239,0.9133,0.9133,0.8992,0.8874,0.8851,0.8815,0.8802,0.8677,0.8633,0.863,0.8598,0.8587,0.8587,0.8587,0.8755,0.0,0.0,0.0,0.9304,0.9304,1.0164,1.1243,1.2391,1.3475,1.4419,1.5402,1.5389,1.5106,1.4908,1.4866,1.4866,1.4866,1.4591,1.4312,1.4312,1.3958,1.3688,1.3688,1.3688,1.3688,1.3688,1.3688,1.3688,1.3688,1.3688,1.3688,1.3688,1.3688,1.3688,1.3688,1.3688,1.3882,1.4298,1.4312,1.4511,1.4926,1.4866,1.4866,1.4866,1.4866,1.4866,1.4866,1.4866,1.4866,1.4875,1.5077,1.5233,1.5124,1.4392,1.3416,1.2293,1.1178,1.0022,0.8973,0.8791,0.8628,0.8486,0.0,0.0,0.0,0.0,0.0,0.0,0.0,0.0,0.0,0.0,0.0,0.0,1.0019,1.0019,1.0019,1.0019,1.0019,0.0,0.0,0.0,0.0,1.0019,0.9908,0.0,0.9837,0.9731,0.962,0.9497,0.9489,0.9427,0.9313,0.9307,0.9304,0.9304,0.9304,0.9304,0.9304,0.9304,0.9239,0.9133,0.9133,0.8992,0.8882,0.8876,0.8874,0.8857,0.8804,0.8761,0.8745,0.8628,0.8587,0.8587,0.8587,0.8755,0.8882,0.0,0.0,0.0,0.9304,1.0164,1.1243,1.2391,1.3475,1.4419,1.5402,1.5389,1.5106,1.4908,1.4866,1.4866,1.4866,1.4591,1.4312,1.4312,1.3958,1.3688,1.3688,1.3688,1.3688,1.3688,1.3688,1.3688,1.3688,1.3688,1.3688,1.3688,1.3688,1.3688,1.3688,1.3688,1.3882,1.4298,1.4312,1.4511,1.4926,1.4866,1.4866,1.4866,1.4866,1.4866,1.4866,1.4866,1.4866,1.4875,1.5077,1.5233,1.5114,1.4172,1.3223,1.2192,1.0958,0.9772,0.8614,0.86,0.8451,0.8253,0.0,0.0,0.0,0.0,0.0,0.0,0.0,0.0,0.0,0.0,0.0,0.0,0.0,1.0019,1.0019,1.0019,1.0019,0.0,0.0,0.0,0.0,0.9902,0.9791,0.9693,0.9614,0.9574,0.9492,0.937,0.937,0.9348,0.9304,0.9304,0.9304,0.9304,0.9304,0.9304,0.9304,0.9304,0.9239,0.9133,0.9133,0.9038,0.8989,0.8911,0.893,0.8981,0.8932,0.8837,0.8764,0.872,0.8652,0.8587,0.8587,0.8755,0.8911,0.9133,0.9237,0.9304,0.9304,0.959,1.0164,1.1312,1.2419,1.3467,1.4406,1.5042,1.538,1.5167,1.5021,1.4866,1.4866,1.4591,1.4312,1.4312,1.3958,1.3688,1.3688,1.3688,1.3688,1.3688,1.3688,1.3688,1.3688,1.3688,1.3688,1.3688,1.3688,1.3688,1.3688,1.3688,1.3882,1.4298,1.4312,1.4511,1.4926,1.4866,1.4866,1.4866,1.4866,1.4866,1.4866,1.4866,1.4866,1.487,1.5007,1.504,1.4988,1.4785,1.3646,1.1937,1.1538,1.0216,0.847,0.8391,0.8258,0.8119,0.0,0.0,0.0,0.0,0.0,0.0,0.0,0.0,0.0,1.0019,0.0,0.0,0.0,0.0,1.0019,1.0019,1.0019,1.0003,0.9962,0.9883,0.9821,0.9783,0.9669,0.9571,0.9489,0.9446,0.9386,0.9304,0.9304,0.9304,0.9304,0.9304,0.9304,0.9304,0.9304,0.9304,0.9304,0.9304,0.9449,0.9626,0.9316,0.9379,0.9618,0.9225,0.912,0.9177,0.8984,0.8959,0.8886,0.8845,0.8777,0.8709,0.8709,0.8851,0.8981,0.9245,0.9304,0.9304,0.9304,0.9304,0.959,1.074,1.1603,1.249,1.3805,1.4648,1.5101,1.5223,1.5059,1.5011,1.488,1.4652,1.4397,1.4322,1.4024,1.3769,1.3698,1.3688,1.3688,1.3688,1.3688,1.3688,1.3688,1.3688,1.3688,1.3688,1.3688,1.3688,1.3688,1.3688,1.3882,1.4298,1.4449,1.4652,1.4931,1.4866,1.4866,1.4866,1.4866,1.4866,1.4866,1.4866,1.4828,1.4767,1.4767,1.4767,1.4776,1.4908,1.3656,1.1663,1.1666,1.034,0.8285,0.8204,0.8098,0.8054,0.0,0.0,0.0,0.0,0.0,0.0,0.0,0.0,1.0019,1.0019,0.0,0.0,0.0,0.0,0.0,1.0014,1.0014,0.9962,0.984,0.9829,0.9777,0.9669,0.0,0.0,0.9481,0.9364,0.9304,0.9304,0.9304,0.9304,0.9304,0.9304,0.9304,0.9304,0.9304,0.9304,0.9377,0.9377,0.9947,1.0687,0.9755,0.9944,1.069,0.9686,0.9302,0.9291,0.9179,0.9136,0.9046,0.8927,0.8884,0.8882,0.8887,0.8968,0.9158,0.9269,0.9304,0.9304,0.0,0.0,0.0,1.0668,1.0956,1.1562,1.3602,1.4051,1.4289,1.4997,1.5176,1.5106,1.4913,1.4715,1.4572,1.4355,1.4147,1.3939,1.3717,1.3688,1.3688,1.3688,1.3688,1.3688,1.3688,1.3688,1.3688,1.3688,1.3688,1.3688,1.3688,1.3703,1.3892,1.4298,1.4718,1.4866,1.4866,1.4866,1.4866,1.4866,1.4866,1.4866,1.4866,1.4861,1.4753,1.4569,1.456,1.4619,1.4551,1.4619,1.328,1.1266,1.1266,0.9976,0.8111,0.8111,0.8034,0.7872,0.0,0.0,0.0,0.0,0.0,0.0,1.0019,1.0019,1.0019,0.0,0.0,0.0,1.0019,1.0019,0.9984,0.9894,0.9889,0.984,0.9723,0.9633,0.9571,0.9538,0.9419,0.9353,0.9353,0.9321,0.9304,0.9304,0.9304,0.9304,0.9304,0.9304,0.9304,0.9304,0.9304,0.9735,1.0524,1.0524,1.0718,1.097,1.1514,1.1432,1.0898,1.0653,1.002,0.9299,0.9269,0.9204,0.9128,0.9025,0.8954,0.8898,0.8984,0.9038,0.9158,0.9269,0.9304,0.9304,0.9304,0.0,0.0,0.0,0.0,0.0,1.1763,1.237,1.3173,1.4259,1.4222,1.4214,1.4959,1.4917,1.472,1.4577,1.4246,1.3939,1.3717,1.3688,1.3688,1.3688,1.3688,1.3688,1.3688,1.3688,1.3688,1.3688,1.3688,1.3688,1.3688,1.3977,1.4189,1.4307,1.4718,1.4866,1.4866,1.4866,1.4866,1.4866,1.4866,1.4866,1.4926,1.472,1.4621,1.456,1.4468,1.4317,1.4194,1.434,1.3139,1.1157,1.1157,0.9819,0.7982,0.7982,0.796,0.7872,0.0,0.0,0.0,0.0,0.0,1.0019,1.0019,1.0019,1.0019,0.0,0.0,0.0,1.0019,0.9976,0.9913,0.9843,0.9794,0.9718,0.9601,0.9527,0.9465,0.9413,0.9343,0.9304,0.9304,0.9304,0.9304,0.9304,0.9304,0.9304,0.9304,0.9304,0.9304,0.9304,0.9304,0.9951,1.1028,1.1531,1.2029,1.2456,1.2101,1.189,1.1671,1.1172,1.0596,1.002,1.002,0.9976,0.9846,0.9347,0.9158,0.9111,0.9182,0.9204,0.9217,0.9283,0.9304,0.9304,0.9304,0.9304,0.9304,0.9304,0.0,0.0,1.0884,1.1389,1.2158,1.3216,1.3595,1.3951,1.4392,1.4409,1.4313,1.3964,1.3409,1.3034,1.3182,1.3134,1.2904,1.2539,1.2844,1.3084,1.3084,1.3444,1.3688,1.3688,1.3688,1.3731,1.3816,1.4133,1.4355,1.4444,1.4696,1.4866,1.4866,1.4866,1.4866,1.4866,1.4866,1.4866,1.4861,1.4663,1.4518,1.4487,1.4279,1.4071,1.3887,1.4,1.2803,1.0988,1.0988,0.9706,0.7872,0.7872,0.7872,0.7872,0.0,0.0,0.0,1.0019,1.0019,1.0019,1.0019,1.0019,1.0019,0.0,1.0019,1.0014,1.0003,0.9902,0.9826,0.9802,0.9707,0.9598,0.9473,0.9468,0.9419,0.9307,0.9304,0.9304,0.9304,0.9304,0.9304,0.9304,0.9304,0.9304,0.9304,0.9304,0.9304,0.9304,0.9449,1.0092,1.124,1.2388,1.3607,1.4529,1.2384,1.2105,1.2821,1.1743,1.1312,1.1172,1.1172,1.1172,1.1028,0.9879,0.9374,0.9304,0.9304,0.9304,0.9304,0.9304,0.9304,0.9304,0.9304,0.9304,0.9304,0.9304,0.9304,0.0,1.0596,1.0812,1.1061,1.2062,1.3076,1.3735,1.3413,1.3457,1.3394,1.293,1.2132,1.1727,1.2246,1.2182,1.1776,1.091,1.1511,1.2113,1.2174,1.2904,1.3449,1.3504,1.3527,1.3686,1.4,1.4222,1.4435,1.4565,1.4827,1.4866,1.4866,1.4866,1.4866,1.4866,1.4866,1.4922,1.4828,1.469,1.4477,1.4265,1.4062,1.3868,1.3688,1.3569,1.2479,1.0789,1.0789,0.9633,0.7872,0.7872,0.7872,0.7872,0.0,0.0,0.0,0.0,0.0,1.0019,1.0019,1.0019,1.0019,1.0019,1.0019,0.9981,0.9883,0.9851,0.9761,0.9574,0.9536,0.947,0.9348,0.934,0.9329,0.9304,0.9304,0.9304,0.9304,0.9304,0.9304,0.9304,0.9304,0.9304,0.9304,0.9304,0.9304,0.9377,1.0236,1.1315,1.2463,1.3674,1.4817,1.5824,1.5394,1.4746,1.4102,1.3884,1.3246,1.2391,1.2391,1.2391,1.2176,1.1028,1.0095,0.9304,0.9304,0.9304,0.9304,0.9304,0.9304,0.9304,0.9304,0.9304,0.9304,0.9304,0.9304,0.0,0.959,0.9663,0.9942,1.1061,1.1315,1.1632,1.248,1.2392,1.2191,1.2126,1.176,1.1472,1.1317,1.1241,1.1111,1.0804,1.097,1.1394,1.2118,1.1692,1.1696,1.2419,1.2612,1.3088,1.3948,1.4369,1.4591,1.4633,1.4827,1.4866,1.4866,1.4866,1.4866,1.4866,1.4866,1.4846,1.4621,1.4473,1.4265,1.4057,1.3844,1.3731,1.3629,1.284,1.1812,1.0789,1.0789,0.9633,0.7872,0.7872,0.7872,0.7872,0.0,1.0019,1.0175,0.0,0.0,1.0175,1.0874,1.0408,1.0019,1.0019,0.9968,0.9883,0.9767,0.9699,0.9614,0.9497,0.943,0.937,0.9307,0.9304,0.9304,0.9304,0.9304,0.9304,0.9304,0.9304,0.9304,0.9304,0.9304,0.9304,0.9304,0.9304,0.9304,0.9377,1.0524,1.1603,1.2749,1.3959,1.5172,1.6183,1.5607,1.503,1.4529,1.4529,1.4102,1.3603,1.3603,1.3178,1.2534,1.1384,1.0596,1.0023,0.9446,0.9304,0.9304,0.9304,0.9304,0.9304,0.9304,0.9304,0.9304,0.9304,0.9304,0.0,0.0,0.9304,0.9446,1.0023,1.0541,1.0963,1.1456,1.1459,1.1334,1.119,1.0588,1.0062,0.9918,1.0159,1.012,0.9551,0.9915,1.0411,1.0904,1.0966,1.1151,1.1642,1.2221,1.2878,1.3492,1.4198,1.4681,1.478,1.4879,1.4866,1.4866,1.4866,1.4866,1.4866,1.4866,1.4762,1.456,1.4411,1.4199,1.4,1.3783,1.3688,1.3629,1.2599,1.1635,1.0728,1.0243,0.915,0.7872,0.7872,0.7872,0.7872,1.0716,1.0716,1.1023,0.0,0.0,0.0,0.0,1.1337,1.0707,1.0681,1.0338,1.0061,1.0018,0.9695,0.9476,0.9454,0.9362,0.9304,0.9304,0.9304,0.9304,0.9304,0.9304,0.9304,0.9304,0.9304,0.9304,0.9304,0.9304,0.9304,0.9304,0.9304,0.9304,0.9377,1.074,1.1818,1.2821,1.4244,1.539,1.6108,1.5177,1.4817,1.4817,1.4817,1.4817,1.4817,1.4817,1.403,1.2892,1.1958,1.1527,1.11,1.0023,0.9663,0.959,0.9377,0.9304,0.9304,0.9304,0.9304,0.9304,0.9304,0.9304,0.9304,0.0,0.0,0.0,0.9304,1.0023,1.0634,1.0448,1.0478,1.0409,1.0178,0.94,0.8788,0.8742,0.9183,0.9248,0.8341,0.8948,0.95,0.9691,1.0383,1.0827,1.0827,1.168,1.2338,1.2681,1.3758,1.4438,1.46,1.48,1.4866,1.4866,1.4866,1.4866,1.4866,1.4828,1.477,1.4563,1.435,1.4142,1.3939,1.3764,1.3569,1.3324,1.2359,1.1394,1.0425,0.964,0.8726,0.7872,0.7872,0.7872,0.7872,1.3259,1.3259,1.3337,1.3491,0.0,0.0,0.0,0.0,1.3209,1.3076,1.1936,1.1195,1.1062,1.0081,0.9443,0.9334,0.9313,0.9304,0.9304,0.9304,0.9304,0.9304,0.9304,0.9304,0.9304,0.9304,0.9304,0.9304,0.9304,0.9304,0.9304,0.9304,0.9304,0.9374,1.1527,1.2606,1.2821,1.5035,1.6108,1.6183,1.6037,1.6037,1.6037,1.6037,1.6037,1.6037,1.6037,1.5248,1.4315,1.4169,1.3389,1.232,1.1172,1.0812,1.0596,0.959,0.9304,0.9304,0.9304,0.9304,0.9304,0.9304,0.9304,0.9304,0.9304,0.0,0.9304,0.9304,0.0,0.9516,0.943,0.0,0.0,0.9032,0.8938,0.8856,0.8638,0.8826,0.8821,0.8435,0.8366,0.8742,0.9627,0.9818,0.9882,0.9882,1.0131,1.0732,1.1588,1.2771,1.3456,1.3477,1.4403,1.4866,1.4866,1.4866,1.4866,1.4931,1.4687,1.4553,1.434,1.4137,1.3925,1.3721,1.3698,1.3204,1.2298,1.1329,1.0365,0.9457,0.9335,0.8726,0.7872,0.7872,0.7872,0.7872,1.3953,1.3722,1.3953,1.4645,0.0,0.0,0.0,0.0,1.3304,1.3141,1.2613,1.2223,1.2077,1.1046,1.0372,1.0314,0.9663,0.9304,0.9304,0.9304,0.9304,0.9304,0.9304,0.9304,0.9304,0.9304,0.9304,0.9304,0.9304,0.9304,0.9304,0.9304,0.9663,1.038,1.1961,1.3103,1.3817,1.5536,1.6183,1.6183,1.6183,1.6183,1.6183,1.6183,1.6183,1.6183,1.6183,1.5895,1.539,1.4742,1.4102,1.3405,1.2287,1.1467,1.0773,1.0356,0.9807,0.9304,0.9304,0.9304,0.9304,0.9304,0.9304,0.9304,0.9304,0.9304,0.9304,0.9304,0.0,0.0,0.0,0.0,0.0,0.0,0.9068,0.9044,0.9008,0.8973,0.8825,0.8677,0.8615,0.8756,0.9146,0.9133,0.9089,0.9089,0.973,1.0287,1.0743,1.2382,1.328,1.328,1.4338,1.4866,1.4866,1.4866,1.4866,1.4931,1.4728,1.452,1.4303,1.4104,1.3892,1.3688,1.3688,1.3144,1.2118,1.1212,1.0183,0.9275,0.8726,0.8238,0.7872,0.7872,0.7872,0.7872,1.4886,1.4618,1.4955,1.5874,1.5223,0.0,0.0,1.4761,1.4004,1.3873,1.3596,1.3305,1.319,1.1886,1.11,1.1459,1.0164,0.9449,0.9735,0.9446,0.9304,0.9304,0.9304,0.9304,0.9304,0.9304,0.9304,0.9304,0.9304,0.9304,0.9304,0.9304,0.9879,1.1028,1.2176,1.3389,1.46,1.5749,1.6183,1.6178,1.6117,1.6027,1.5928,1.5989,1.6013,1.5994,1.5881,1.5838,1.57,1.4923,1.4518,1.4272,1.3333,1.2348,1.1614,1.1484,1.0668,0.9735,0.9735,0.9518,0.9304,0.9304,0.9304,0.9304,0.9304,0.9304,0.9304,0.9304,0.9304,0.0,0.0,0.0,0.9283,0.9217,0.0,0.9188,0.9204,0.9114,0.8965,0.8936,0.8903,0.8847,0.8829,0.8739,0.8674,0.8638,0.9369,0.9819,0.9779,1.1494,1.2618,1.2882,1.394,1.4604,1.4866,1.4866,1.4842,1.4846,1.4579,1.4435,1.4222,1.4014,1.384,1.3688,1.3389,1.2719,1.1752,1.0789,0.9819,0.8848,0.8175,0.7872,0.7872,0.7872,0.7872,0.7872,1.6747,1.6828,1.7039,1.7039,1.6879,1.6747,1.6743,1.6559,1.6413,1.6409,1.5225,1.4462,1.4457,1.2384,1.1459,1.2534,1.0596,0.9735,1.0884,0.9879,0.9304,0.9304,0.9304,0.9304,0.9304,0.9304,0.9304,0.9304,0.9304,0.9304,0.9304,0.9304,0.9879,1.1028,1.2176,1.3389,1.46,1.5749,1.6183,1.6164,1.6026,1.5626,1.5285,1.5498,1.5647,1.5526,1.512,1.4974,1.4974,1.4908,1.503,1.5018,1.4057,1.3901,1.3875,1.2914,1.1818,1.0956,1.0956,1.0164,0.9304,0.9304,0.9304,0.9304,0.9304,0.9304,0.9304,0.9304,0.9304,0.9304,0.9304,0.9304,0.9228,0.893,0.9152,0.0,0.0,0.9152,0.9253,0.9141,0.8954,0.8882,0.8876,0.8874,0.8891,0.8772,0.8832,0.878,0.8662,0.9712,1.077,1.1828,1.2816,1.3875,1.4866,1.4866,1.4772,1.4643,1.4426,1.4218,1.4014,1.3797,1.3698,1.3629,1.2659,1.1692,1.0789,0.9761,0.8787,0.793,0.7933,0.7872,0.7872,0.7872,0.7872,0.7872,1.6779,1.6741,1.6736,1.6883,1.6849,1.676,1.6613,1.6415,1.6282,1.6282,1.5937,1.5607,1.5607,1.4244,1.3456,1.3888,1.2459,1.1387,1.1028,1.0668,1.0092,0.9302,0.9304,0.9304,0.9304,0.9304,0.9304,0.9304,0.9304,0.9304,0.9304,1.0092,1.1028,1.2176,1.3389,1.4533,1.5669,1.5887,1.5971,1.5938,1.5588,1.5361,1.5238,1.5314,1.5262,1.5125,1.4983,1.4866,1.4866,1.4866,1.4889,1.474,1.4606,1.4045,1.3528,1.3307,1.2619,1.1945,1.1945,1.1735,1.1384,1.0596,1.0452,1.0239,0.9446,0.9304,0.9304,0.9304,0.9304,0.9304,0.9304,0.9304,0.9277,0.9198,0.9253,0.9275,0.0,0.9253,0.9291,0.9253,0.9144,0.9003,0.9003,0.8927,0.8815,0.8774,0.8696,0.863,0.859,0.9646,1.0373,1.0704,1.1762,1.2487,1.282,1.282,1.2792,1.2612,1.3071,1.3132,1.2996,1.2807,1.2719,1.2659,1.1692,1.0728,0.9758,0.9457,0.8726,0.7872,0.7872,0.7872,0.7872,0.7872,0.7872,0.7872,1.6556,1.6471,1.6443,1.6651,1.6632,1.6538,1.6396,1.6264,1.6183,1.6183,1.6183,1.6183,1.6183,1.5177,1.4671,1.5101,1.3603,1.2391,1.1671,1.1243,1.0524,0.9377,0.9304,0.9304,0.9304,0.9304,0.9304,0.9304,0.9304,0.9304,0.9304,1.0452,1.1599,1.2749,1.3894,1.5,1.6056,1.5912,1.5822,1.5715,1.5295,1.504,1.4898,1.4827,1.4761,1.469,1.4544,1.4492,1.4492,1.4492,1.4454,1.4449,1.4648,1.4239,1.3744,1.394,1.3405,1.2804,1.2804,1.2657,1.2221,1.1089,1.0844,1.0593,0.9457,0.9275,0.9304,0.9304,0.9304,0.9304,0.9304,0.9304,0.9304,0.9304,0.9304,0.9304,0.0,0.9304,0.9304,0.9304,0.9239,0.9196,0.9196,0.9052,0.8943,0.8902,0.8785,0.8698,0.8655,0.9276,0.9779,1.0174,1.0902,1.1431,1.1828,1.1828,1.1715,1.149,1.2337,1.2403,1.1914,1.2107,1.1993,1.1635,1.0668,0.9883,0.9275,0.897,0.8421,0.7872,0.7872,0.7872,0.7872,0.7872,0.7872,0.7872,1.6178,1.6183,1.6245,1.6434,1.6311,1.6183,1.6183,1.6183,1.6183,1.6183,1.6183,1.6183,1.6183,1.5248,1.503,1.6112,1.4181,1.2821,1.2821,1.1743,1.0596,0.9449,0.9302,0.9304,0.9304,0.9304,0.9304,0.9304,0.9304,0.9302,0.9374,1.0524,1.1667,1.2802,1.3771,1.481,1.5903,1.5699,1.5536,1.5493,1.5073,1.4662,1.4288,1.4076,1.4114,1.4227,1.383,1.3688,1.3688,1.3688,1.3825,1.4029,1.4222,1.4426,1.4643,1.4832,1.4253,1.3549,1.3549,1.2942,1.1982,1.0951,1.0702,1.0517,0.9405,0.9209,0.9288,0.9294,0.9296,0.9296,0.9302,0.9304,0.9302,0.9296,0.9296,0.9296,0.9302,0.9304,0.9304,0.9304,0.9304,0.9304,0.9304,0.9299,0.925,0.9144,0.8952,0.8899,0.8777,0.866,0.9059,1.011,1.0107,1.0638,1.163,1.1622,1.146,1.115,1.2083,1.1903,1.0789,1.1635,1.1571,1.0668,0.9636,0.9214,0.9153,0.8238,0.7872,0.7872,0.7872,0.7872,0.7872,0.7872,0.7872,0.7872,1.615,1.6183,1.6202,1.6249,1.6216,1.6183,1.6183,1.6183,1.6183,1.6183,1.6183,1.6183,1.6183,1.5966,1.5895,1.6178,1.5683,1.4964,1.4102,1.2888,1.1746,1.0596,0.9735,0.9304,0.9304,0.9304,0.9304,0.9304,0.9304,0.9735,1.0596,1.1746,1.2824,1.3833,1.4976,1.5501,1.5689,1.5408,1.5229,1.5059,1.4638,1.4407,1.427,1.391,1.3802,1.3835,1.3726,1.3688,1.3688,1.3688,1.3726,1.3783,1.3835,1.3996,1.418,1.4232,1.4354,1.4547,1.4547,1.4607,1.4391,1.3283,1.2417,1.1552,1.0382,0.9579,0.8998,0.9158,0.9179,0.9204,0.9288,0.9304,0.9275,0.9193,0.9179,0.9207,0.9294,0.9304,0.9304,0.9304,0.9304,0.9304,0.9304,0.9228,0.9166,0.9136,0.8952,0.8899,0.8777,0.8742,0.8817,0.8989,0.8984,0.9117,0.9449,0.9357,0.916,0.8994,0.9896,1.0119,0.97,0.994,0.994,0.964,0.8662,0.8238,0.8238,0.7994,0.7872,0.7872,0.7872,0.7872,0.7872,0.7872,0.7872,0.7872,1.616,1.6183,1.6183,1.6183,1.6183,1.6183,1.6183,1.6183,1.6183,1.6183,1.6183,1.6183,1.6183,1.6183,1.6183,1.6183,1.6183,1.5749,1.46,1.3888,1.2745,1.11,1.038,0.9807,0.9304,0.9304,0.9304,0.9304,0.9807,1.038,1.1028,0.0,1.3655,1.4252,1.5183,1.5522,1.5404,1.5191,1.4917,1.4711,1.4444,1.426,0.0,1.3811,1.3688,1.3688,1.3688,1.3688,1.3688,1.3688,1.3688,1.3688,1.3688,1.3773,1.3868,1.3868,1.4185,1.4548,1.4638,1.4903,1.4906,1.3839,1.3177,1.2418,1.0855,1.0012,0.9454,0.9108,0.8984,0.9019,0.9207,0.9231,0.9226,0.9209,0.9207,0.9231,0.9296,0.9304,0.9304,0.9304,0.9304,0.9304,0.9304,0.9245,0.9207,0.9207,0.9098,0.9,0.8932,0.8829,0.8739,0.8668,0.8617,0.8562,0.8513,0.8451,0.8329,0.8155,0.9081,0.9221,0.8726,0.9092,0.9092,0.8665,0.8116,0.7872,0.7872,0.7872,0.7872,0.7872,0.7872,0.7872,0.7872,0.7872,0.7872,0.7872,1.6183,1.6183,1.6183,1.6183,1.6183,1.6183,1.6183,1.6183,1.6183,1.6183,1.6183,1.6183,1.6183,1.6183,1.6183,1.6183,1.6183,1.5749,1.4817,1.46,1.3599,1.1527,1.1172,1.0524,0.9518,0.9377,0.9377,0.9518,1.0524,1.1159,0.0,0.0,1.4231,1.438,1.4922,1.5219,1.5182,1.4941,1.4753,1.4551,1.4397,1.4189,1.3986,1.3769,1.3688,1.3688,1.3688,1.3688,1.3688,1.3688,1.3688,1.3688,1.3688,1.3688,1.3688,1.3688,1.3844,1.4057,1.4255,1.4468,1.4424,1.3696,1.3468,1.2984,1.117,1.0597,1.0213,0.9267,0.8996,0.89,0.9109,0.9133,0.9171,0.9285,0.9291,0.9285,0.9302,0.9304,0.9304,0.9304,0.9304,0.0,0.9304,0.9304,0.9304,0.9304,0.9212,0.915,0.9136,0.8932,0.8804,0.8772,0.8668,0.8549,0.8418,0.8402,0.828,0.8117,0.8901,0.8832,0.7933,0.8726,0.8665,0.7872,0.7872,0.7872,0.7872,0.7872,0.7872,0.7872,0.7872,0.7872,0.7872,0.7872,0.7872,0.7872,1.6183,1.6183,1.6183,1.6183,1.6183,1.6183,1.6183,1.6183,1.6183,1.6183,1.6183,1.6183,1.6183,1.6183,1.6183,1.6183,1.6183,1.6108,1.5895,1.503,1.4315,1.3884,1.2026,1.0884,1.074,0.9807,0.9735,1.0668,1.0884,1.1895,1.3673,1.3994,1.4505,1.5002,1.5133,1.5139,1.4983,1.488,1.4753,1.4551,1.4397,1.4189,1.3986,1.3769,1.3688,1.3688,1.3688,1.3688,1.3688,1.3688,1.3688,1.3688,1.3688,1.3688,1.3688,1.3688,1.3844,1.4057,1.4255,1.4468,1.4616,1.4619,1.3967,1.326,1.2865,1.1493,1.0219,1.0134,0.9413,0.887,0.9095,0.9133,0.9171,0.9285,0.9226,0.9196,0.9291,0.9304,0.9304,0.9304,0.9304,0.9304,0.9304,0.9304,0.9304,0.9304,0.9285,0.9234,0.9141,0.9095,0.8978,0.8777,0.875,0.8636,0.8418,0.8318,0.8195,0.8114,0.8136,0.8072,0.7933,0.8055,0.8055,0.7872,0.7872,0.7872,0.7872,0.7872,0.7872,0.7872,0.7872,0.7872,0.7872,0.7872,0.7872,0.7872,1.6183,1.6183,1.6183,1.6183,1.6183,1.6183,1.6183,1.6183,1.6183,1.6183,1.6183,1.6183,1.6183,1.6183,1.6183,1.6183,1.6183,1.6183,1.6183,1.5678,1.5101,1.4529,1.3385,1.2527,1.189,1.1315,1.1276,1.1764,1.2335,1.3095,1.4035,1.449,1.4887,1.5229,1.512,1.5021,1.4866,1.4866,1.4753,1.4551,1.4397,1.4189,1.3986,1.3769,1.3688,1.3688,1.3688,1.3688,1.3688,1.3688,1.3688,1.3688,1.3688,1.3688,1.3688,1.3688,1.3764,1.391,1.4227,1.4388,1.4544,1.479,1.4534,1.4006,1.3411,1.2553,1.1652,1.1199,1.028,0.9423,0.9064,0.9022,0.9171,0.9285,0.9258,0.9242,0.9296,0.9304,0.9304,0.9304,0.9304,0.9304,0.9304,0.9304,0.9304,0.9304,0.9304,0.928,0.9226,0.9166,0.9052,0.887,0.8742,0.8562,0.8326,0.8201,0.8081,0.8021,0.796,0.7872,0.7872,0.7872,0.7872,0.7872,0.7872,0.7872,0.7872,0.7872,0.7872,0.7872,0.7872,0.7872,0.7872,0.7872,0.7872,0.7872,1.6183,1.6183,1.6183,1.6183,1.6183,1.6183,1.6183,1.6183,1.6183,1.6183,1.6183,1.6183,1.6183,1.6183,1.6183,1.6183,1.6183,1.6183,1.6183,1.6183,1.582,1.4888,1.46,1.403,1.3107,1.2783,1.2701,1.278,1.3653,1.4005,1.4048,1.4817,1.521,1.5163,1.5002,1.4866,1.4866,1.4866,1.4753,1.4551,1.4397,1.4189,1.3986,1.3769,1.3688,1.3688,1.3688,1.3688,1.3688,1.3688,1.3688,1.3688,1.3688,1.3688,1.3688,1.3688,1.3688,1.3783,1.4194,1.4312,1.4411,1.4827,1.4866,1.467,1.3809,1.3477,1.3079,1.2289,1.1129,1.0021,0.9357,0.9173,0.9163,0.9253,0.9288,0.9304,0.9304,0.9304,0.9304,0.9304,0.9304,0.9304,0.9304,0.9304,0.9304,0.9304,0.9304,0.9304,0.9304,0.922,0.9033,0.8887,0.8739,0.85,0.8175,0.8114,0.8054,0.7872,0.7872,0.7872,0.7872,0.7872,0.7872,0.7872,0.7872,0.7872,0.7872,0.7872,0.7872,0.7872,0.7872,0.7872,0.7872,0.7872,0.7872,0.7872,1.6183,1.6183,1.6183,1.6183,1.6183,1.6183,1.6183,1.6183,1.6183,1.6183,1.6183,1.6183,1.6183,1.6183,1.6183,1.6183,1.6183,1.6183,1.6183,1.6183,1.6183,1.6037,1.503,1.4457,1.4315,1.3091,1.2935,1.4047,1.3871,1.4153,1.4796,1.5092,1.5068,1.4959,1.4941,1.4866,1.4866,1.4866,1.4753,1.4551,1.4397,1.4189,1.3986,1.3769,1.3688,1.3688,1.3688,1.3688,1.3688,1.3688,1.3688,1.3688,1.3688,1.3688,1.3688,1.3688,1.3688,1.3783,1.4194,1.4312,1.4411,1.4827,1.4866,1.4866,1.48,1.4006,1.328,1.321,1.1681,1.038,1.0273,0.9599,0.9136,0.915,0.9237,0.9304,0.9304,0.9304,0.9304,0.9304,0.9304,0.9304,0.9304,0.9304,0.9304,0.9304,0.9304,0.9304,0.9304,0.9294,0.9185,0.889,0.8823,0.8587,0.8175,0.8114,0.8054,0.7872,0.7872,0.7872,0.7872,0.7872,0.7872,0.7872,0.7872,0.7872,0.7872,0.7872,0.7872,0.7872,0.7872,0.7872,0.7872,0.7872,0.7872,0.7872,1.581,1.581,1.581,1.581,1.581,1.581,1.581,1.581,1.581,1.581,1.6027,1.6183,1.6183,1.6183,1.6183,1.6183,1.6183,1.6183,1.6183,1.6183,1.6183,1.6183,1.5629,1.535,1.535,1.4666,1.4512,1.4806,1.472,1.4739,1.487,1.495,1.5011,1.4866,1.4866,1.4866,1.4866,1.4866,1.4819,1.4729,1.4586,1.4378,1.417,1.3962,1.3802,1.3688,1.3688,1.3688,1.3688,1.3688,1.3688,1.3688,1.3688,1.3688,1.3688,1.3688,1.3688,1.3783,1.4194,1.4312,1.4411,1.4827,1.4866,1.4866,1.4866,1.46,1.4272,1.4272,1.3141,1.1755,1.0647,1.0147,0.9724,0.9179,0.9171,0.9226,0.9294,0.9304,0.9304,0.9304,0.9242,0.9201,0.9201,0.9136,0.9092,0.9092,0.916,0.9201,0.9201,0.913,0.9016,0.8848,0.8658,0.8454,0.8175,0.8043,0.798,0.7872,0.7872,0.7872,0.7872,0.7872,0.7872,0.7872,0.7872,0.7872,0.7872,0.7872,0.7872,0.7872,0.7872,0.7872,0.7872,0.7872,0.7872,0.7872,1.5628,1.5628,1.5628,1.5628,1.5628,1.5628,1.5628,1.5628,1.5628,1.5628,1.5815,1.5999,1.5999,1.5999,1.6023,1.6084,1.6089,1.6089,1.6089,1.6089,1.606,1.6004,1.5922,1.5841,1.5841,1.5569,1.5389,1.5233,1.5172,1.5044,1.4781,1.4781,1.4809,1.4866,1.4866,1.4866,1.4866,1.4866,1.4866,1.4852,1.4649,1.4544,1.4378,1.4109,1.3915,1.3773,1.3712,1.3688,1.3688,1.3688,1.3688,1.3688,1.3688,1.3688,1.3688,1.3688,1.3736,1.3859,1.4213,1.4359,1.4492,1.4781,1.4866,1.4866,1.4866,1.4866,1.4866,1.4866,1.4071,1.279,1.1111,1.0566,1.0119,0.9137,0.9057,0.9109,0.9188,0.9198,0.9198,0.9198,0.9128,0.9011,0.9011,0.8933,0.8882,0.8882,0.8997,0.9044,0.9008,0.8927,0.8897,0.8774,0.8541,0.8359,0.8172,0.7992,0.7872,0.7872,0.7872,0.7872,0.7872,0.7872,0.7872,0.7872,0.7872,0.7872,0.7872,0.7872,0.7872,0.7872,0.7872,0.7872,0.7872,0.7872,0.7872,0.7872,1.5628,1.5628,1.5628,1.5628,1.5628,1.5628,1.5628,1.5628,1.5628,1.5628,1.5632,1.5637,1.5637,1.5637,1.5718,1.5917,1.5936,1.5936,1.5936,1.5936,1.5846,1.5642,1.5632,1.5632,1.5632,1.5347,1.5167,1.5233,1.503,1.4767,1.4574,1.4574,1.4678,1.4866,1.4866,1.4866,1.4866,1.4866,1.4866,1.4852,1.4649,1.4633,1.4518,1.417,1.401,1.3981,1.3764,1.3688,1.3688,1.3688,1.3688,1.3688,1.3688,1.3688,1.3688,1.3688,1.384,1.4052,1.4255,1.4468,1.4681,1.4819,1.4866,1.4866,1.4866,1.4866,1.4866,1.4866,1.4071,1.3017,1.1963,1.103,1.0054,0.8979,0.8875,0.8884,0.8887,0.8887,0.8887,0.8887,0.8884,0.8884,0.8884,0.8884,0.8882,0.8882,0.8842,0.8829,0.8879,0.8884,0.8897,0.8774,0.8541,0.8359,0.8172,0.7992,0.7872,0.7872,0.7872,0.7872,0.7872,0.7872,0.7872,0.7872,0.7872,0.7872,0.7872,0.7872,0.7872,0.7872,0.7872,0.7872,0.7872,0.7872,0.7872,0.7872,1.5134,1.5134,1.5134,1.5134,1.5134,1.5134,1.5134,1.5134,1.5082,1.4945,1.4931,1.4874,1.4728,1.5082,1.5309,1.5233,1.5352,1.5432,1.5432,1.5574,1.5694,1.5632,1.5418,1.5337,1.5337,1.5134,1.5026,1.5026,1.4899,1.4903,1.4772,1.4772,1.487,1.4866,1.4866,1.4866,1.4866,1.4866,1.4866,1.4861,1.48,1.4692,1.4619,1.4487,1.4345,1.4208,1.4137,1.4114,1.4114,1.4114,1.4114,1.4114,1.4114,1.4019,1.391,1.391,1.4052,1.426,1.4473,1.4581,1.4681,1.4819,1.4866,1.4866,1.4866,1.4866,1.4866,1.4866,1.4604,1.4071,1.3017,1.2596,1.181,1.0174,0.9887,0.9674,0.901,0.8882,0.8882,0.8882,0.8878,0.8829,0.8829,0.8753,0.8704,0.8704,0.8668,0.8698,0.8821,0.8747,0.8685,0.8647,0.8416,0.8274,0.8172,0.7992,0.7872,0.7872,0.7872,0.7872,0.7872,0.7872,0.7872,0.7872,0.7872,0.7872,0.7872,0.7872,0.7872,0.7872,0.7872,0.7872,0.7872,0.7872,0.7872,0.7872,1.4866,1.4866,1.4866,1.4866,1.4866,1.4866,1.4866,1.487,1.4711,1.4652,1.4563,1.443,1.4222,1.4544,1.4785,1.4818,1.487,1.504,1.5049,1.5248,1.5323,1.5323,1.5191,1.512,1.512,1.4932,1.4866,1.4866,1.4866,1.4866,1.4866,1.4866,1.4866,1.4866,1.4866,1.4866,1.4866,1.4866,1.4866,1.4866,1.4866,1.479,1.4673,1.4598,1.4548,1.4421,1.434,1.4312,1.4312,1.4312,1.4312,1.4312,1.4312,1.4279,1.4227,1.4147,1.427,1.4463,1.4596,1.469,1.4711,1.4903,1.4866,1.4866,1.4866,1.4866,1.4866,1.4866,1.4866,1.46,1.3477,1.328,1.2786,1.1164,1.0913,1.0543,0.9552,0.9356,0.9223,0.8812,0.8747,0.8701,0.8701,0.8633,0.8587,0.8587,0.8587,0.8622,0.8698,0.863,0.8587,0.8587,0.8402,0.8282,0.8172,0.804,0.7977,0.7872,0.7872,0.7872,0.7872,0.7872,0.7872,0.7872,0.7872,0.7872,0.7872,0.7872,0.7872,0.7872,0.7872,0.7872,0.7872,0.7872,0.7872,0.7872,1.4866,1.4866,1.4866,1.4866,1.4866,1.4866,1.4866,1.4696,1.4565,1.4551,1.4421,1.4213,1.401,1.3991,1.4147,1.4471,1.4581,1.4612,1.4874,1.4838,1.4917,1.4866,1.4866,1.4866,1.4866,1.4866,1.4866,1.4866,1.4866,1.4866,1.4866,1.4866,1.4866,1.4866,1.4866,1.4866,1.4866,1.4866,1.4866,1.4866,1.4866,1.4866,1.4847,1.4663,1.4588,1.4629,1.4426,1.4355,1.4355,1.4355,1.4355,1.4355,1.4355,1.4492,1.461,1.4397,1.4482,1.4588,1.4588,1.4789,1.4866,1.4866,1.4866,1.4866,1.4866,1.4866,1.4866,1.4866,1.4866,1.4604,1.3608,1.3411,1.3083,1.2091,1.1894,1.1497,1.0373,1.0174,0.9779,0.872,0.8587,0.8587,0.8587,0.8587,0.8587,0.8587,0.8587,0.8587,0.8587,0.8587,0.8587,0.8587,0.8478,0.8359,0.8172,0.8114,0.8054,0.7872,0.7872,0.7872,0.7872,0.7872,0.7872,0.7872,0.7872,0.7872,0.7872,0.7872,0.7872,0.7872,0.7872,0.7872,0.7872,0.7872,0.7872,0.7872,1.4866,1.4866,1.4866,1.4866,1.4866,1.4866,1.4866,1.4696,1.4508,1.4407,1.4208,1.4,1.3788,1.3764,1.3807,1.3901,1.4062,1.4241,1.4444,1.461,1.4711,1.4861,1.4866,1.4866,1.4866,1.4866,1.4866,1.4866,1.4866,1.4866,1.4866,1.4866,1.4866,1.4866,1.4866,1.4866,1.4866,1.4866,1.4866,1.4866,1.4866,1.4866,1.4861,1.4879,1.48,1.479,1.4804,1.4785,1.4785,1.4785,1.4785,1.4785,1.4785,1.4822,1.4822,1.4615,1.47,1.48,1.48,1.4828,1.4866,1.4866,1.4866,1.4866,1.4866,1.4866,1.4866,1.4866,1.4866,1.48,1.46,1.4534,1.4207,1.3149,1.2947,1.2285,1.0439,1.0174,0.9779,0.872,0.8587,0.8587,0.8587,0.8587,0.8587,0.8587,0.8587,0.8587,0.8587,0.8587,0.8587,0.8587,0.8478,0.8359,0.8172,0.8114,0.8054,0.7872,0.7872,0.7872,0.7872,0.7872,0.7872,0.7872,0.7872,0.7872,0.7872,0.7872,0.7872,0.7872,0.7872,0.7872,0.7872,0.7872,0.7872,0.7872,1.4866,1.4866,1.4866,1.4866,1.4866,1.4866,1.4866,1.4681,1.4444,1.4326,1.4048,1.3821,1.3703,1.3688,1.3688,1.3688,1.3797,1.3991,1.4288,1.4421,1.4619,1.4922,1.4866,1.4866,1.4866,1.4866,1.4866,1.4866,1.4866,1.4866,1.4866,1.4866,1.4866,1.4866,1.4866,1.4866,1.4866,1.4866,1.4866,1.4866,1.4866,1.4866,1.4866,1.4866,1.4866,1.4866,1.4866,1.4866,1.4866,1.4866,1.4866,1.4866,1.4866,1.4866,1.4912,1.4739,1.4781,1.4866,1.4866,1.4866,1.4866,1.4866,1.4866,1.4866,1.4866,1.4866,1.4866,1.4866,1.4866,1.4866,1.4866,1.4866,1.4735,1.4141,1.4006,1.328,1.1233,1.0902,1.0373,0.8787,0.8587,0.8587,0.8587,0.8587,0.8587,0.8587,0.8587,0.8587,0.8587,0.8587,0.8587,0.8587,0.8527,0.8437,0.832,0.8141,0.8054,0.7872,0.7872,0.7872,0.7872,0.7872,0.7872,0.7872,0.7872,0.7872,0.7872,0.7872,0.7872,0.7872,0.7872,0.7872,0.7872,0.7872,0.7872,0.7872,1.4866,1.4866,1.4866,1.4866,1.4866,1.4866,1.4866,1.4605,1.435,1.4317,1.3977,1.3726,1.3693,1.3688,1.3703,1.3736,1.374,1.3901,1.4284,1.434,1.4534,1.4852,1.4866,1.4866,1.4866,1.4866,1.4866,1.4866,1.4866,1.4866,1.4866,1.4866,1.4866,1.4866,1.4866,1.4866,1.4866,1.4866,1.4866,1.4866,1.4866,1.4866,1.4866,1.4866,1.4866,1.4866,1.4866,1.4866,1.4866,1.4866,1.4866,1.4866,1.4866,1.4866,1.4866,1.4866,1.4866,1.4866,1.4866,1.4866,1.4866,1.4866,1.4866,1.4866,1.4866,1.4866,1.4866,1.4866,1.4866,1.4866,1.4866,1.4866,1.4866,1.4866,1.4866,1.4141,1.2091,1.1828,1.0969,0.8851,0.8587,0.8587,0.8587,0.8587,0.8587,0.8587,0.8587,0.8587,0.8587,0.8587,0.8587,0.8587,0.8587,0.8532,0.8418,0.8176,0.8065,0.7958,0.7941,0.7872,0.7872,0.7872,0.7872,0.7872,0.7872,0.7872,0.7872,0.7872,0.7872,0.7872,0.7872,0.7872,0.7872,0.7872,0.7872,0.7872,1.4866,1.4866,1.4866,1.4866,1.4866,1.4866,1.4866,1.4668,1.4515,1.4336,1.4104,1.3892,1.3707,1.3688,1.3764,1.3944,1.3962,1.4062,1.4293,1.4482,1.469,1.4856,1.4866,1.4866,1.4866,1.4866,1.4866,1.4866,1.4866,1.4866,1.4866,1.4866,1.4866,1.4866,1.4866,1.4866,1.4866,1.4866,1.4866,1.4866,1.4866,1.4866,1.4866,1.4866,1.4866,1.4866,1.4866,1.4866,1.4866,1.4866,1.4866,1.4866,1.4866,1.4866,1.4866,1.4866,1.4866,1.4866,1.4866,1.4866,1.4866,1.4866,1.4866,1.4866,1.4866,1.4866,1.4866,1.4866,1.4866,1.4866,1.4866,1.4866,1.4866,1.4866,1.4866,1.4141,1.2091,1.1828,1.0969,0.8851,0.8587,0.8587,0.8587,0.8587,0.8587,0.8587,0.8587,0.8587,0.8587,0.8587,0.8587,0.8587,0.8587,0.8532,0.8418,0.8176,0.8106,0.8086,0.7982,0.7872,0.7872,0.7872,0.7872,0.7872,0.7872,0.7872,0.7872,0.7872,0.7872,0.7872,0.7872,0.7872,0.7872,0.7872,0.7872,0.7872,1.4866,1.4866,1.4866,1.4866,1.4866,1.4866,1.4866,1.4696,1.4558,1.434,1.4137,1.3929,1.3712,1.3792,1.3901,1.4,1.4218,1.4383,1.4477,1.4577,1.4659,1.4856,1.4866,1.4866,1.4866,1.4866,1.4866,1.4866,1.4866,1.4866,1.4866,1.4866,1.4866,1.4866,1.4866,1.4866,1.4866,1.4866,1.4866,1.4866,1.4866,1.4866,1.4866,1.4866,1.4866,1.4866,1.4866,1.4866,1.4866,1.4866,1.4866,1.4866,1.4866,1.4866,1.4866,1.4866,1.4866,1.4866,1.4866,1.4866,1.4866,1.4866,1.4866,1.4866,1.4866,1.4866,1.4866,1.4866,1.4866,1.4866,1.4866,1.4866,1.4866,1.4866,1.4866,1.4141,1.2091,1.1828,1.0969,0.8851,0.8587,0.8587,0.8587,0.8587,0.8587,0.8587,0.8587,0.8587,0.8587,0.8587,0.8587,0.8587,0.8587,0.8532,0.8418,0.8307,0.8185,0.8117,0.8059,0.7996,0.7872,0.7872,0.7872,0.7872,0.7872,0.7872,0.7872,0.7872,0.7872,0.7872,0.7872,0.7872,0.7872,0.7872,0.7872,0.7872,1.4866,1.4866,1.4866,1.4866,1.4866,1.4866,1.4866,1.4739,1.4629,1.4411,1.4251,1.4076,1.3859,1.3981,1.4099,1.4151,1.4449,1.4588,1.47,1.464,1.477,1.4861,1.4866,1.4866,1.4866,1.4866,1.48,1.4534,1.4534,1.4403,1.4207,1.4207,1.4207,1.4207,1.4207,1.4207,1.4207,1.4207,1.4207,1.4207,1.4207,1.4338,1.4534,1.4534,1.467,1.4866,1.4866,1.4866,1.4866,1.4866,1.4866,1.4866,1.4866,1.4866,1.4866,1.4866,1.4866,1.4866,1.4866,1.4866,1.4866,1.4866,1.4866,1.4866,1.4866,1.4866,1.4866,1.4866,1.4866,1.4866,1.4866,1.4866,1.4866,1.4866,1.4866,1.4141,1.2091,1.1828,1.0969,0.8851,0.8587,0.8587,0.8587,0.8587,0.8587,0.8587,0.8587,0.8587,0.8587,0.8587,0.8587,0.8587,0.8587,0.8546,0.8456,0.8432,0.8323,0.8138,0.8144,0.8067,0.7974,0.7883,0.7872,0.7872,0.7872,0.7872,0.7872,0.7872,0.7872,0.7872,0.7872,0.7872,0.7872,0.7872,0.7872,0.7872,1.4866,1.4866,1.4866,1.4866,1.4866,1.4866,1.4866,1.4922,1.4837,1.4574,1.4532,1.4506,1.4288,1.4279,1.4369,1.4572,1.4551,1.4649,1.4898,1.4912,1.4852,1.4866,1.4866,1.4866,1.4866,1.4866,1.4403,1.3411,1.3411,1.2947,1.2025,1.2025,1.2025,1.2025,1.2025,1.2025,1.2025,1.2025,1.2025,1.2025,1.2025,1.2618,1.3411,1.3411,1.4006,1.4866,1.4866,1.4866,1.4866,1.4866,1.4866,1.4866,1.4866,1.4866,1.4866,1.4866,1.4866,1.4866,1.4866,1.4866,1.4866,1.4866,1.4866,1.4866,1.4866,1.4866,1.4866,1.4866,1.4866,1.4866,1.4866,1.4866,1.4866,1.4866,1.4866,1.4141,1.2091,1.1828,1.0969,0.8851,0.8587,0.8587,0.8587,0.8587,0.8587,0.8587,0.8587,0.8587,0.8587,0.8587,0.8587,0.8587,0.8587,0.8584,0.8573,0.847,0.841,0.8388,0.8163,0.8111,0.81,0.7985,0.7872,0.7872,0.7872,0.7872,0.7872,0.7872,0.7872,0.7872,0.7872,0.7872,0.7872,0.7872,0.7872,0.7872,1.4866,1.4866,1.4866,1.4866,1.4866,1.4866,1.4866,1.4866,1.486,1.4662,1.4742,1.4742,1.4534,1.4733,1.4865,1.4758,1.4866,1.4917,1.487,1.4866,1.4866,1.4866,1.4866,1.4866,1.4866,1.4268,1.3739,1.328,1.2684,1.2157,1.1828,1.1828,1.1828,1.1828,1.1828,1.1828,1.1828,1.1828,1.1828,1.1828,1.1828,1.2025,1.2421,1.3079,1.3543,1.4006,1.4665,1.4866,1.4866,1.4866,1.4866,1.4866,1.4866,1.4866,1.4866,1.4866,1.4866,1.4866,1.4866,1.4866,1.4866,1.4866,1.4866,1.4866,1.4866,1.4866,1.4866,1.4866,1.4866,1.4866,1.4866,1.4866,1.4866,1.4866,1.4338,1.3411,1.2025,1.1233,1.024,0.8787,0.8587,0.8587,0.8587,0.8587,0.8587,0.8587,0.8587,0.8587,0.8587,0.8587,0.8587,0.8587,0.8587,0.8587,0.8587,0.8546,0.8486,0.8416,0.8323,0.8239,0.8163,0.804,0.8048,0.8043,0.7966,0.7872,0.7872,0.7872,0.7872,0.7872,0.7872,0.7872,0.7872,0.7872,0.7872,0.7872,1.4866,1.4866,1.4866,1.4866,1.4866,1.4866,1.4866,1.4917,1.4913,1.4841,1.5002,1.5078,1.4941,1.5172,1.5281,1.5139,1.5257,1.5276,1.5139,1.5063,1.4997,1.487,1.46,1.4403,1.4403,1.3346,1.2684,1.2355,1.163,1.1101,1.077,1.077,1.077,1.077,1.077,1.077,1.077,1.077,1.077,1.077,1.077,1.0969,1.1365,1.2091,1.2553,1.2951,1.3678,1.4141,1.4403,1.4403,1.46,1.4866,1.4866,1.4866,1.4866,1.4866,1.4866,1.4866,1.4866,1.4866,1.4866,1.4866,1.4866,1.4866,1.4866,1.4866,1.4866,1.4866,1.4866,1.4866,1.4866,1.4866,1.48,1.4469,1.3805,1.2816,1.1497,1.0638,0.9779,0.872,0.8587,0.8587,0.8587,0.8587,0.8587,0.8587,0.8587,0.8587,0.8587,0.8587,0.8587,0.8587,0.8587,0.8587,0.8587,0.8587,0.8549,0.847,0.8435,0.8375,0.8288,0.8168,0.8111,0.8103,0.7981,0.7991,0.7988,0.7947,0.7872,0.7872,0.7872,0.7872,0.7872,0.7872,0.7872,0.7872,1.4866,1.4866,1.4866,1.4866,1.487,1.487,1.487,1.504,1.5167,1.5167,1.5427,1.5632,1.5632,1.5632,1.5632,1.5632,1.5632,1.5632,1.556,1.5356,1.5082,1.488,1.3875,1.328,1.3276,1.2289,1.1299,1.0174,1.0174,0.9646,0.8587,0.8587,0.8587,0.8587,0.8587,0.8587,0.8587,0.8587,0.8587,0.8587,0.8587,0.925,1.0174,1.0174,1.0836,1.1762,1.1828,1.2421,1.3276,1.328,1.4006,1.4866,1.4866,1.4866,1.4866,1.4866,1.4866,1.4866,1.4866,1.4866,1.4866,1.4866,1.4866,1.4866,1.4866,1.4866,1.4866,1.4866,1.4866,1.4866,1.4866,1.4866,1.4539,1.3477,1.3276,1.2553,1.0505,1.0174,0.9779,0.872,0.8587,0.8587,0.8587,0.8587,0.8587,0.8587,0.8587,0.8587,0.8587,0.8587,0.8587,0.8587,0.8587,0.8587,0.8587,0.8587,0.8587,0.8587,0.8473,0.8418,0.8416,0.8293,0.8172,0.8231,0.8108,0.8117,0.8106,0.7985,0.7872,0.7872,0.7872,0.7872,0.7872,0.7872,0.7872,0.7872,1.4866,1.4866,1.4866,1.4866,1.5049,1.5144,1.5144,1.5323,1.546,1.546,1.564,1.5841,1.5841,1.5904,1.5938,1.5855,1.5841,1.5358,1.4391,1.4257,1.3857,1.2998,1.3153,1.2947,1.2289,1.1233,1.0505,1.0174,0.9446,0.8917,0.8587,0.8587,0.8587,0.8587,0.8587,0.8587,0.8587,0.8587,0.8587,0.8587,0.8587,0.8787,0.9183,0.9911,1.0373,1.077,1.1497,1.196,1.2355,1.3079,1.3543,1.394,1.4665,1.4866,1.4866,1.4866,1.4866,1.4866,1.4866,1.4866,1.4866,1.4866,1.4866,1.4866,1.4866,1.4866,1.4866,1.4866,1.4866,1.467,1.394,1.4403,1.4338,1.2553,1.2223,1.1762,1.0373,0.9579,0.8984,0.8653,0.8587,0.8587,0.8587,0.8587,0.8587,0.8587,0.8587,0.8587,0.8587,0.8587,0.8587,0.8587,0.8587,0.8587,0.8587,0.8587,0.8587,0.8587,0.8554,0.8535,0.8532,0.8416,0.8364,0.8356,0.8233,0.8133,0.8114,0.8075,0.801,0.7872,0.7872,0.7872,0.7872,0.7872,0.7872,0.7872,1.4866,1.4932,1.5049,1.5049,1.5224,1.5361,1.5361,1.5541,1.5746,1.5746,1.5857,1.5985,1.5985,1.6103,1.6131,1.5999,1.5985,1.5408,1.4022,1.394,1.3222,1.1572,1.1928,1.1926,1.1263,1.0194,0.9634,0.9579,0.8917,0.8587,0.8587,0.8587,0.8587,0.8587,0.8587,0.8587,0.8587,0.8587,0.8587,0.8587,0.8587,0.8587,0.8653,0.9313,0.9579,0.9646,1.0306,1.0836,1.1233,1.1894,1.2618,1.3346,1.3608,1.4272,1.48,1.4403,1.46,1.4866,1.4866,1.4866,1.4866,1.4866,1.4866,1.4866,1.4866,1.4866,1.48,1.4338,1.4272,1.394,1.2882,1.3214,1.3149,1.1431,1.1167,1.077,0.9712,0.8984,0.8587,0.8587,0.8587,0.8587,0.8587,0.8587,0.8587,0.8587,0.8587,0.8587,0.8587,0.8587,0.8587,0.8587,0.8587,0.8587,0.8587,0.8587,0.8587,0.8587,0.8587,0.8587,0.8584,0.8516,0.8484,0.8478,0.8359,0.8266,0.819,0.8155,0.8073,0.7999,0.7949,0.7872,0.7872,0.7872,0.7872,0.7872,1.4959,1.512,1.5262,1.5262,1.5441,1.5656,1.5656,1.5827,1.596,1.596,1.606,1.6183,1.6183,1.6183,1.6183,1.6183,1.6112,1.5459,1.4081,1.3932,1.2878,1.0512,1.0367,1.0373,1.0299,0.9333,0.8731,0.8619,0.8619,0.8619,0.8619,0.8619,0.8614,0.8603,0.8603,0.8598,0.8587,0.8587,0.8587,0.8587,0.8587,0.8587,0.8587,0.8587,0.8587,0.8587,0.8587,0.925,1.0041,1.0177,1.1494,1.3013,1.2091,1.3083,1.4403,1.3477,1.3875,1.4674,1.4758,1.4763,1.4833,1.4917,1.4857,1.4777,1.4744,1.4735,1.4469,1.3411,1.3149,1.2882,1.1828,1.1762,1.1431,1.024,1.0107,0.9845,0.872,0.8587,0.8587,0.8587,0.8587,0.8587,0.8587,0.8587,0.8587,0.8587,0.8587,0.8587,0.8587,0.8587,0.8587,0.8587,0.8587,0.8587,0.8587,0.8587,0.8587,0.8587,0.8587,0.8587,0.8587,0.8587,0.8587,0.8581,0.8478,0.8429,0.8402,0.8179,0.8136,0.8106,0.7993,0.788,0.7872,0.7872,0.7872,0.7872,1.5101,1.5342,1.5489,1.5489,1.5659,1.5865,1.5865,1.5975,1.6112,1.6112,1.6155,1.6183,1.6183,1.6183,1.6183,1.6183,1.539,1.4374,1.3053,1.2194,1.1038,0.9655,0.9584,0.9527,0.9408,0.9032,0.883,0.8803,0.8803,0.8803,0.8803,0.8803,0.8821,0.8731,0.8731,0.8677,0.8587,0.8587,0.8587,0.8587,0.8587,0.8587,0.8587,0.8587,0.8587,0.8587,0.8587,0.872,0.905,0.9911,1.1035,1.2091,1.1894,1.2091,1.2421,1.2223,1.2289,1.2716,1.3665,1.3974,1.4214,1.5178,1.4738,1.397,1.3743,1.3674,1.3346,1.2355,1.2157,1.1828,1.077,1.1233,1.1167,0.925,0.9646,0.9845,0.872,0.8587,0.8587,0.8587,0.8587,0.8587,0.8587,0.8587,0.8587,0.8587,0.8587,0.8587,0.8587,0.8587,0.8587,0.8587,0.8587,0.8587,0.8587,0.8587,0.8587,0.8587,0.8587,0.8587,0.8587,0.8587,0.8587,0.8587,0.8562,0.85,0.8413,0.8361,0.8225,0.8114,0.8086,0.8018,0.7872,0.7872,0.7872,0.7872,1.5389,1.556,1.577,1.577,1.5946,1.6013,1.6013,1.6112,1.6183,1.6183,1.6183,1.6183,1.6183,1.6183,1.5966,1.5461,1.4817,1.3741,1.2029,1.1315,1.0524,0.9377,0.9304,0.9275,0.9217,0.9152,0.8995,0.8882,0.8882,0.8882,0.8882,0.8882,0.8849,0.8856,0.8856,0.8821,0.8761,0.8761,0.8761,0.8761,0.8761,0.8761,0.8761,0.8761,0.8761,0.8761,0.8761,0.8761,0.8829,0.9369,1.0312,1.1123,1.0583,1.1123,1.1865,1.1326,1.1528,1.2086,1.2787,1.295,1.311,1.375,1.3493,1.3098,1.3448,1.3139,1.24,1.139,1.1191,1.0853,0.9774,0.9988,1.0012,0.8876,0.909,0.925,0.8653,0.8587,0.8587,0.8587,0.8587,0.8587,0.8587,0.8587,0.8587,0.8587,0.8587,0.8587,0.8587,0.8587,0.8587,0.8587,0.8587,0.8587,0.8587,0.8587,0.8587,0.8587,0.8587,0.8587,0.8587,0.8587,0.8587,0.8587,0.8587,0.8554,0.8494,0.844,0.8342,0.8217,0.816,0.8075,0.8012,0.7952,0.7872,0.7872,1.568,1.5846,1.5984,1.5984,1.6065,1.6183,1.6183,1.6183,1.6183,1.6183,1.6183,1.6183,1.6183,1.6037,1.5536,1.46,1.4097,1.3099,1.1096,1.0812,1.0311,0.9377,0.9304,0.9304,0.9304,0.9304,0.9207,0.8941,0.8941,0.8941,0.8941,0.8941,0.893,0.8914,0.8914,0.89,0.8882,0.8882,0.8882,0.8882,0.8882,0.8882,0.8882,0.8882,0.8882,0.8882,0.8882,0.8882,0.8882,0.8882,0.9504,1.0055,0.9159,1.0124,1.1365,1.0467,1.0882,1.1576,1.1808,1.1887,1.196,1.2128,1.2066,1.2131,1.3096,1.257,1.1503,1.0467,1.0263,0.9986,0.909,0.887,0.8802,0.8802,0.8717,0.8649,0.8649,0.8649,0.8649,0.8649,0.8649,0.8649,0.8649,0.8649,0.8641,0.8619,0.8619,0.8609,0.859,0.8587,0.8587,0.8587,0.8587,0.8587,0.8587,0.8587,0.8587,0.8587,0.8587,0.8587,0.8587,0.8587,0.8587,0.8587,0.8587,0.8587,0.8581,0.8486,0.8435,0.8397,0.8171,0.8136,0.81,0.7977,0.7872,0.7872,1.5889,1.5989,1.6136,1.6136,1.6164,1.6183,1.6183,1.6183,1.6183,1.6183,1.6183,1.6183,1.6183,1.5319,1.4671,1.4529,1.267,1.1312,1.1028,1.0092,0.9446,0.9304,0.9304,0.9304,0.9304,0.9304,0.9288,0.9256,0.9256,0.9256,0.9256,0.9256,0.9204,0.9038,0.9038,0.8981,0.8882,0.8882,0.8882,0.8882,0.8882,0.8882,0.8882,0.8882,0.8882,0.8882,0.8882,0.8882,0.8882,0.8882,0.9021,0.9087,0.8951,0.909,0.9296,0.9157,0.9226,0.9596,1.0681,1.0994,1.1235,1.2361,1.1898,1.1184,1.1324,1.1061,1.0401,0.9365,0.909,0.909,0.8951,0.8868,0.8857,0.8857,0.8844,0.8833,0.8833,0.8833,0.8833,0.8833,0.8833,0.8833,0.8833,0.8833,0.8859,0.8753,0.8745,0.8701,0.8592,0.8587,0.8587,0.8587,0.8587,0.8587,0.8587,0.8587,0.8587,0.8587,0.8587,0.8587,0.8587,0.8587,0.8587,0.8587,0.8587,0.8587,0.8587,0.8571,0.8508,0.8405,0.8263,0.8147,0.81,0.7977,0.7872,0.7872,1.5931,1.5848,1.5834,1.5834,1.5834,1.5834,1.5834,1.5834,1.5834,1.5834,1.5834,1.5876,1.5989,1.5106,1.3959,1.267,1.1599,1.074,1.0092,0.959,0.9304,0.9304,0.9304,0.9304,0.9304,0.9304,0.9304,0.9304,0.9304,0.9304,0.9304,0.9304,0.9277,0.9228,0.9228,0.9198,0.915,0.915,0.915,0.915,0.915,0.915,0.915,0.915,0.915,0.915,0.915,0.915,0.915,0.915,0.915,0.915,0.915,0.915,0.915,0.915,0.915,0.9229,0.9778,0.9935,1.009,1.0653,1.0452,1.0023,1.0023,0.9935,0.9712,0.9218,0.915,0.915,0.915,0.9095,0.8984,0.8984,0.8927,0.8882,0.8882,0.8882,0.8882,0.8882,0.8882,0.8882,0.8882,0.8882,0.886,0.8875,0.8872,0.8848,0.8793,0.8791,0.8791,0.8791,0.8791,0.8791,0.8791,0.8723,0.869,0.8687,0.8619,0.8587,0.8587,0.8587,0.8587,0.8587,0.8587,0.8587,0.8587,0.8587,0.8557,0.8503,0.8383,0.8223,0.81,0.7977,0.7872,0.7872]}]]